     2              OBSERVATION DATA    GPS                 RINEX VERSION / TYPE
srx-v1.5-(11/13/93) SEISMO 17-FEB-1994                      PGM / RUN BY / DATE
                                                            COMMENT
sig: 9 8 7 6 5 4 1 0                                        COMMENT
sig: 9 8 7 6 5 4 1 0                                        COMMENT
sig: 9 8 7 6 5 4 1 0                                        COMMENT
Original Marker Name: SAFE                                  COMMENT
Campaign Name: jpl 1993-1997                                COMMENT
4-Character Station Name: SAFE                              COMMENT
6-Character Antenna Code: DMRCHT                            COMMENT
Vertical Measurement Point: BPA                             COMMENT
Vertical Offset to Rinex Ref. Point: 0.0000                 COMMENT
Radial Measurement Point: RRP                               COMMENT
Radial Offset to Rinex Ref. Point: 0.0000                   COMMENT
Antenna Height from Field Measurement: 0.0614 m             COMMENT
Additional Antenna Identification Info.:                    COMMENT
Turborogue and Ashtech Choke Ring                           COMMENT
Original XYZ: -2524639.5480 -4630220.7968 3577357.8041      COMMENT
New XYZ position is based on association with SCEC monument COMMENT
E1E9I3F8+0011. Position of that monument is believed to be  COMMENT
valid to within 1 m horizontally; vertical accuracy         COMMENT
should be no worse than 3-times this value.                 COMMENT
                                                            COMMENT
Revised Rinex header created by UCSD GPS archive for        COMMENT
GSAC on 28-May-1999 (1999:148) 22:33:37 GMT                 COMMENT
For assistance contact dagnew@ucsd.edu or hjohnson@ucsd.edu COMMENT
                                                            COMMENT
PICO L9C                                                    MARKER NAME
SAFE                                                        MARKER NUMBER
GWF JET PROPULSION LABORATORY                               OBSERVER / AGENCY
263 TURBOROGUE SNR-8000 93.07.06                            REC # / TYPE / VERS
161 DORNE-MARGOL. TYPE T                                    ANT # / TYPE
 -2524531.0000 -4630059.0000  3577397.0000                  APPROX POSITION XYZ
        0.0614        0.0000        0.0000                  ANTENNA: DELTA H/E/N
     1     1     0                                          WAVELENGTH FACT L1/2
     5    L1    L2    P1    P2    C1                        # / TYPES OF OBSERV
    30                                                      INTERVAL
  1994     2     5     0     0    0.000000                  TIME OF FIRST OBS
  1994     2     5    23    59   30.000000                  TIME OF LAST OBS
    26                                                      # OF SATELLITES
                                                            END OF HEADER
 94 02 05 00 00 00.0000000  0  8 02 07 16 18 19 26 27 31
 -21322962.22748 -16615276.98647         0.00041  21436302.70047  21436300.80448
 -10140121.74448  -7901380.39246         0.00041  23413451.83146  23413448.68548
  -7134520.96148  -5559360.96445         0.00041  24017829.49445  24017825.39848
 -11911759.00048  -9281883.00446         0.00041  22983790.19546  22983787.49648
 -19393205.79448 -15111575.25547         0.00041  21004258.28647  21004256.35948
  -1783474.30248  -1389718.26544         0.00041  25169993.48744  25169991.25948
 -27051525.25348 -21079093.87347         0.00041  20303297.82747  20303296.58148
    715965.08448    557899.45046         0.00041  22877275.33746  22877275.56548
 94 02 05 00 00 30.0000000  0  8 02 07 16 18 19 26 27 31
 -21360741.69148 -16644715.49847         0.00041  21429113.62347  21429111.33748
 -10244362.55048  -7982606.87245         0.00041  23393616.15245  23393612.47648
  -7105921.33448  -5537075.60044         0.00041  24023271.68044  24023267.58648
 -11807007.20648  -9200258.28446         0.00041  23003725.29946  23003721.58848
 -19362773.26248 -15087861.60647         0.00041  21010049.43847  21010047.56348
  -1881487.38848  -1466092.00245         0.00041  25151342.38945  25151340.24248
 -27068835.77748 -21092582.58047         0.00041  20300003.76447  20300002.18348
    789040.85148    614841.54445         0.00041  22891182.14245  22891181.65848
 94 02 05 00 01 00.0000000  0  8 02 07 16 18 19 26 27 31
 -21398281.43648 -16673967.22247         0.00041  21421970.14747  21421967.73848
 -10348521.73048  -8063769.76945         0.00041  23373795.27645  23373790.97048
  -7076889.80648  -5514453.63744         0.00041  24028793.61244  24028792.64148
 -11702102.01948  -9118514.03646         0.00041  23023686.72546  23023684.58648
 -19332129.46948 -15063983.33147         0.00041  21015880.99447  21015878.93948
  -1979376.38647  -1542369.05044         0.00041  25132717.23444  25132711.68347
 -27085887.30548 -21105869.47547         0.00041  20296759.14747  20296757.67148
    862539.18248    672112.92645         0.00041  22905170.00945  22905167.42648
 94 02 05 00 01 30.0000000  0  8 02 07 16 18 19 26 27 31
 -21435635.36548 -16703074.14247         0.00041  21414861.72747  21414859.57248
 -10452646.89148  -8144906.11745         0.00041  23353980.54345  23353975.58448
  -7047460.16448  -5491521.46344         0.00041  24034395.20644  24034392.62648
 -11597084.17848  -9036681.99646         0.00041  23043670.85846  23043669.01648
 -19301328.21848 -15039982.35047         0.00041  21021742.11347  21021740.14848
  -2077190.04748  -1618587.41544         0.00041  25114106.97644  25114099.34048
 -27102708.59648 -21118976.96747         0.00041  20293558.19347  20293556.69948
    936388.38448    729657.73745         0.00041  22919220.98945  22919220.13948
 94 02 05 00 02 00.0000000  0  8 02 07 16 18 19 26 27 31
 -21472578.43848 -16731860.92847         0.00041  21407831.60447  21407829.25248
 -10556480.70948  -8225815.45245         0.00041  23334221.30445  23334217.24148
  -7017394.69148  -5468093.84144         0.00041  24040116.72044  24040114.08748
 -11491707.65248  -8954570.48146         0.00041  23063723.33246  23063721.56648
 -19270114.92348 -15015660.30947         0.00041  21027682.02347  21027679.69248
  -2174682.24548  -1694555.28944         0.00041  25095553.87444  25095548.02748
 -27119058.71448 -21131717.31447         0.00041  20290446.77947  20290445.34348
   1010833.22948    787666.72045         0.00041  22933388.29645  22933386.04248
 94 02 05 00 02 30.0000000  0  8 02 07 16 18 19 26 27 31
 -21509250.19548 -16760436.29947         0.00041  21400853.45947  21400850.92948
 -10660130.15648  -8306581.13745         0.00041  23314498.80745  23314493.96548
  -6986862.87648  -5444302.82445         0.00041  24045927.06745  24045924.62048
 -11386109.90848  -8872286.56546         0.00041  23083819.07746  23083815.96148
 -19238615.10048 -14991114.99547         0.00041  21033675.90347  21033674.03748
  -2271993.25147  -1770381.97644         0.00041  25077032.78744  25077028.72447
 -27135080.14548 -21144201.54147         0.00041  20287397.77247  20287396.32548
   1085735.69048    846032.27045         0.00041  22947643.53645  22947640.48848
 94 02 05 00 03 00.0000000  0  8 02 07 16 18 19 26 27 31
 -21545712.83248 -16788848.72647         0.00041  21393914.34347  21393912.34248
 -10763645.71148  -8387242.51446         0.00041  23294798.57446  23294795.11348
  -6955951.63148  -5420216.17344         0.00041  24051811.94544  24051806.47748
 -11280353.08148  -8789878.69346         0.00041  23103944.86746  23103940.10348
 -19206898.70348 -14966400.91647         0.00041  21039711.50947  21039709.65548
  -2369197.56747  -1846125.53244         0.00041  25058538.60444  25058530.67347
 -27150843.32248 -21156484.53247         0.00041  20284398.33847  20284397.01048
   1161006.38348    904684.72445         0.00041  22961966.91845  22961963.69648
 94 02 05 00 03 30.0000000  0  8 02 07 16 18 19 26 27 31
 -21582013.31848 -16817134.80347         0.00041  21387006.94247  21387004.70048
 -10867077.26848  -8467838.42146         0.00041  23275115.69846  23275112.23148
  -6924747.19448  -5395901.00744         0.00041  24057753.37844  24057744.81448
 -11174492.64348  -8707390.10746         0.00041  23124088.27946  23124085.49048
 -19175000.29648 -14941545.02747         0.00041  21045781.60947  21045779.67048
  -2466356.45747  -1921833.61044         0.00041  25040043.78244  25040041.53847
 -27166407.96648 -21168612.82547         0.00041  20281436.66447  20281434.96248
   1236592.21048    963582.76145         0.00041  22976349.54345  22976347.67748
 94 02 05 00 04 00.0000000  0  8 02 07 16 18 19 26 27 31
 -21618049.71948 -16845215.10747         0.00041  21380149.20447  21380147.08348
 -10970318.97348  -8548286.38546         0.00041  23255470.64346  23255466.27448
  -6893164.53748  -5371291.20944         0.00041  24063762.09544  24063754.04748
 -11068448.34248  -8624758.23146         0.00041  23144267.22546  23144265.08348
 -19142798.82448 -14916452.97547         0.00041  21051909.49847  21051907.19248
  -2563372.64447  -1997430.53944         0.00041  25021583.95844  25021580.70847
 -27181696.69248 -21180526.11847         0.00041  20278527.24447  20278525.78348
   1312595.41448   1022805.97945         0.00041  22990815.22445  22990810.28148
 94 02 05 00 04 30.0000000  0  8 02 07 16 18 19 26 27 31
 -21653802.55148 -16873074.44647         0.00041  21373346.26147  21373343.52748
 -11073368.48048  -8628584.60845         0.00041  23235860.45045  23235856.06948
  -6861186.24848  -5346373.02844         0.00041  24069845.67344  24069838.47148
 -10962221.46648  -8541984.07946         0.00041  23164482.28846  23164479.72148
 -19110281.71448 -14891114.97047         0.00041  21058096.77147  21058095.12748
  -2660244.01547  -2072914.68744         0.00041  25003155.58644  25003147.90647
 -27196686.81548 -21192206.72947         0.00041  20275674.45447  20275673.07848
   1389023.37648   1082360.24545         0.00041  23005355.74945  23005354.17748
 94 02 05 00 05 00.0000000  0  8 02 07 16 18 19 26 27 31
 -21689169.52448 -16900633.12447         0.00041  21366615.54547  21366613.55848
 -11176146.34848  -8708671.15746         0.00041  23216301.70046  23216298.18748
  -6828682.65648  -5321045.57844         0.00041  24076030.63944  24076024.23448
 -10855707.62548  -8458986.35646         0.00041  23184749.72646  23184748.33048
 -19077351.64148 -14865455.17747         0.00041  21064363.52147  21064361.55048
  -2756863.87647  -2148202.79444         0.00041  24984760.87544  24984759.66947
 -27211265.14548 -21203566.47047         0.00041  20272900.48247  20272899.08448
   1465978.89748   1142325.58245         0.00041  23020000.11245  23019998.28048
 94 02 05 00 05 30.0000000  0  8 02 07 16 18 19 26 27 31
 -21724488.65948 -16928154.52247         0.00041  21359894.77447  21359892.55348
 -11279004.41248  -8788820.20446         0.00041  23196727.80246  23196725.33848
  -6795977.55548  -5295561.05944         0.00041  24082250.14844  24082248.70448
 -10749258.34248  -8376038.91246         0.00041  23205007.36146  23205004.17748
 -19044354.83548 -14839743.38747         0.00041  21070642.45347  21070640.64648
  -2853578.68347  -2223564.87144         0.00041  24966358.52344  24966356.27647
 -27225779.87448 -21214876.64847         0.00041  20270138.31247  20270136.72848
   1543113.37348   1202430.36445         0.00041  23034675.71945  23034676.10548
 94 02 05 00 06 00.0000000  0  8 02 07 16 18 19 26 27 31
 -21759491.62548 -16955429.55547         0.00041  21353233.83047  21353231.69248
 -11381685.79348  -8868831.58346         0.00041  23177189.47546  23177186.22248
  -6762779.97348  -5269692.89546         0.00041  24088570.13646  24088566.74748
 -10642605.83148  -8292933.13646         0.00041  23225303.16746  23225299.64248
 -19011040.50448 -14813784.17546         0.00041  21076982.23646  21076980.13448
  -2950114.10647  -2298787.18844         0.00041  24947987.46944  24947984.82847
 -27239950.60348 -21225918.77147         0.00041  20267441.82347  20267440.48648
   1620694.42548   1262883.14145         0.00041  23049439.70545  23049440.19348
 94 02 05 00 06 30.0000000  0  8 02 07 16 18 19 26 27 31
 -21794241.58648 -16982507.45147         0.00041  21346621.30647  21346619.06948
 -11484279.83748  -8948774.90446         0.00041  23157666.47846  23157662.41948
  -6729164.92748  -5243499.32144         0.00041  24094963.27044  24094962.84648
 -10535808.39048  -8209714.37046         0.00041  23245628.49646  23245623.13748
 -18977501.15948 -14787649.62246         0.00041  21083364.58346  21083362.43148
  -3046539.51647  -2373923.84144         0.00041  24929639.23344  24929637.93347
 -27253834.61648 -21236737.48647         0.00041  20264799.75047  20264798.06348
   1698661.45548   1323636.63345         0.00041  23064276.34445  23064275.90948
 94 02 05 00 07 00.0000000  0  8 02 07 16 18 19 26 27 31
 -21828600.57348 -17009280.69947         0.00041  21340082.66247  21340080.52448
 -11586643.96248  -9028539.09745         0.00041  23138185.88945  23138182.32248
  -6695012.00448  -5216886.72944         0.00041  24101467.22944  24101460.23148
 -10428725.96548  -8126273.57346         0.00041  23266003.10446  23265999.94348
 -18943621.51748 -14761249.91547         0.00041  21089811.39647  21089809.46048
  -3142711.90347  -2448863.24544         0.00041  24911337.43844  24911336.59747
 -27267306.24948 -21247234.85947         0.00041  20262236.26547  20262234.85348
   1777141.45248   1384789.87945         0.00041  23079213.97245  23079211.17648
 94 02 05 00 07 30.0000000  0  8 02 07 16 18 19 26 27 31
 -21862681.35848 -17035837.16247         0.00041  21333597.71247  21333595.30048
 -11688881.25948  -9108204.41346         0.00041  23118731.76546  23118726.97148
  -6660464.99948  -5189966.98844         0.00041  24108039.68544  24108035.57948
 -10321491.89348  -8042714.59646         0.00041  23286410.76246  23286406.63248
 -18909520.43748 -14734677.66247         0.00041  21096300.73847  21096298.93248
  -3238753.02947  -2523700.40044         0.00041  24893065.11544  24893058.61047
 -27280491.82648 -21257509.32647         0.00041  20259726.78447  20259725.32648
   1856012.27948   1446247.65245         0.00041  23094220.17345  23094218.81948
 94 02 05 00 08 00.0000000  0  8 02 07 16 18 19 26 27 31
 -21896467.83248 -17062164.28747         0.00041  21327168.08647  21327166.07748
 -11790955.16948  -9187742.45746         0.00041  23099306.69646  23099303.84548
  -6625524.45948  -5162740.63944         0.00041  24114686.64744  24114685.01348
 -10214085.66848  -7959021.48746         0.00041  23306846.86246  23306845.52848
 -18875169.62048 -14707910.80646         0.00041  21102837.53646  21102835.55748
  -3334629.87047  -2598409.49944         0.00041  24874815.56644  24874814.40647
 -27293356.52548 -21267533.76047         0.00041  20257279.08247  20257277.68548
   1935316.42148   1508043.05245         0.00041  23109313.77445  23109309.89348
 94 02 05 00 08 30.0000000  0  8 02 07 16 18 19 26 27 31
 -21929925.62048 -17088235.29247         0.00041  21320800.73547  21320798.65248
 -11892803.01548  -9267104.35846         0.00041  23079927.83646  23079923.29648
  -6590167.67548  -5135189.90745         0.00041  24121415.30945  24121413.52548
 -10106478.24748  -7875171.61546         0.00041  23327325.82546  23327321.92948
 -18840526.27048 -14680916.00346         0.00041  21109430.11246  21109428.01148
  -3430290.39747  -2672950.16844         0.00041  24856615.17744  24856608.97847
 -27305865.31248 -21277280.85747         0.00041  20254898.93047  20254897.00248
   2015081.83748   1570197.91645         0.00041  23124491.11245  23124488.58848
 94 02 05 00 09 00.0000000  0  8 02 07 16 18 19 26 27 31
 -21963005.23748 -17114011.62247         0.00041  21314506.71747  21314504.50748
 -11994333.17948  -9346218.70246         0.00041  23060605.63046  23060602.87448
  -6554323.86548  -5107259.68744         0.00041  24128240.68344  24128233.11148
  -9998615.73448  -7791122.95146         0.00041  23347852.34646  23347846.91648
 -18805508.25548 -14653629.26147         0.00041  21116093.18147  21116091.35948
  -3525659.20647  -2747263.44144         0.00041  24838468.41144  24838463.02847
 -27317950.53948 -21286697.90847         0.00041  20252598.84347  20252597.64548
   2095362.99748   1632754.64245         0.00041  23139765.01445  23139765.46048
 94 02 05 00 09 30.0000000  0  8 02 07 16 18 19 26 27 31
 -21995837.16048 -17139594.93447         0.00041  21308258.90647  21308256.60948
 -12095660.34448  -9425174.85946         0.00041  23041322.47546  23041320.61848
  -6518099.10948  -5079032.65145         0.00041  24135130.34845  24135125.75648
  -9890627.01748  -7706975.97145         0.00041  23368401.57045  23368396.85148
 -18770207.77148 -14626122.40247         0.00041  21122811.40047  21122809.03048
  -3620849.74847  -2821437.75844         0.00041  24820359.39544  24820348.82547
 -27329714.15948 -21295864.35047         0.00041  20250360.15247  20250358.77448
   2176045.61748   1695624.22945         0.00041  23155118.13245  23155119.02748
 94 02 05 00 10 00.0000000  0  8 02 07 16 18 19 26 27 31
 -22028555.32048 -17165089.59847         0.00041  21302032.62747  21302030.12248
 -12196906.58848  -9504067.96446         0.00041  23022057.57746  23022052.96148
  -6481606.76348  -5050597.11045         0.00041  24142074.80145  24142070.85448
  -9782619.56948  -7622814.37846         0.00041  23388954.55146  23388950.17548
 -18734738.94748 -14598484.36847         0.00041  21129560.75547  21129558.61948
  -3715965.31747  -2895553.69244         0.00041  24802251.35844  24802249.55247
 -27341266.45648 -21304866.13047         0.00041  20248162.01147  20248160.47248
   2257011.98748   1758714.84645         0.00041  23170528.85245  23170527.33448
 94 02 05 00 10 30.0000000  0  8 02 07 16 18 19 26 27 31
 -22061113.24348 -17190459.39047         0.00041  21295837.58447  21295835.03948
 -12298035.52848  -9582869.66346         0.00041  23002811.64346  23002808.71248
  -6444788.79248  -5021907.77245         0.00041  24149082.30645  24149077.35248
  -9674542.83048  -7538598.77846         0.00041  23409518.38946  23409517.21948
 -18699052.52148 -14570676.76246         0.00041  21136351.35546  21136349.72648
  -3810957.15947  -2969573.25844         0.00041  24784180.50844  24784171.95547
 -27352567.47348 -21313672.09247         0.00041  20246011.22847  20246010.02148
   2338294.25748   1822051.63845         0.00041  23185996.44145  23185994.68648
 94 02 05 00 11 00.0000000  0  8 02 07 16 18 19 26 27 31
 -22093345.77548 -17215575.65047         0.00041  21289703.66447  21289701.47348
 -12398891.56648  -9661458.71346         0.00041  22983621.29646  22983617.26548
  -6407487.70048  -4992842.03645         0.00041  24156181.86745  24156176.42548
  -9566225.56848  -7454195.77646         0.00041  23430130.69746  23430129.18248
 -18662971.19148 -14542561.44747         0.00041  21143217.69747  21143215.59348
  -3905668.90447  -3043374.46544         0.00041  24766147.78744  24766147.72847
 -27363455.48248 -21322156.24847         0.00041  20243939.32947  20243937.89648
   2420064.68148   1885768.83645         0.00041  23201556.37645  23201554.95148
 94 02 05 00 11 30.0000000  0  8 02 07 16 18 19 26 27 31
 -22125185.66748 -17240385.94447         0.00041  21283644.53547  21283642.14348
 -12499427.07748  -9739798.00946         0.00041  22964489.26346  22964486.73648
  -6369660.21248  -4963366.10045         0.00041  24163379.56345  24163375.18248
  -9457601.38548  -7369553.66346         0.00041  23450802.69846  23450799.73348
 -18626447.62648 -14514101.52847         0.00041  21150167.63047  21150165.70548
  -4000034.98147  -3116906.38744         0.00041  24748197.60844  24748190.80747
 -27373874.21249 -21330274.72748         0.00041  20241956.77448  20241955.53449
   2502376.21748   1949907.68945         0.00041  23217221.03945  23217217.53448
 94 02 05 00 12 00.0000000  0  8 02 07 16 18 19 26 27 31
 -22156918.30448 -17265112.65447         0.00041  21277605.91547  21277603.75948
 -12599936.07748  -9818116.60946         0.00041  22945363.04646  22945359.93948
  -6331608.41848  -4933715.39845         0.00041  24170618.00745  24170615.42148
  -9348954.29548  -7284893.64546         0.00041  23471475.54746  23471474.43348
 -18589787.21648 -14485534.97647         0.00041  21157143.91747  21157141.86248
  -4094352.75347  -3190400.66244         0.00041  24730241.92844  24730244.32847
 -27384123.88149 -21338261.46647         0.00041  20240006.26347  20240004.97949
   2584931.06748   2014236.13545         0.00041  23232928.72345  23232927.38248
 94 02 05 00 12 30.0000000  0  8 02 07 16 18 19 26 27 31
 -22188443.47348 -17289677.69647         0.00041  21271607.24347  21271604.53748
 -12700331.50548  -9896346.74246         0.00041  22926258.48846  22926255.31748
  -6293254.50248  -4903829.23945         0.00041  24177917.10145  24177913.85048
  -9240209.81548  -7200157.75446         0.00041  23492170.40546  23492168.13348
 -18552913.00048 -14456801.82147         0.00041  21164161.05947  21164158.97348
  -4188560.61347  -3263809.26344         0.00041  24712321.78544  24712315.03847
 -27394117.08249 -21346048.36547         0.00041  20238104.78247  20238103.44949
   2667802.99448   2078811.63745         0.00041  23248701.14645  23248698.16648
 94 02 05 00 13 00.0000000  0  8 02 07 16 18 19 26 27 31
 -22219695.46148 -17314029.86847         0.00041  21265659.96047  21265657.54348
 -12800540.89848  -9974431.90046         0.00041  22907189.58946  22907185.44648
  -6254535.56848  -4873658.70245         0.00041  24185287.90045  24185281.17548
  -9131313.12448  -7115303.22446         0.00041  23512893.32546  23512890.09148
 -18515759.99548 -14427851.42147         0.00041  21171231.12847  21171229.25948
  -4282597.78047  -3337084.82244         0.00041  24694422.71844  24694421.70247
 -27403779.84849 -21353577.78648         0.00041  20236265.82448  20236264.49249
   2751052.96548   2143681.68745         0.00041  23264539.08345  23264540.03848
 94 02 05 00 13 30.0000000  0  8 02 07 16 18 19 26 27 31
 -22250647.75748 -17338148.51547         0.00041  21259769.78747  21259767.59048
 -12900540.88548 -10052353.89646         0.00041  22888158.80646  22888156.19948
  -6215415.64448  -4843175.66345         0.00041  24192726.95945  24192724.33648
  -9022254.49848  -7030322.55746         0.00041  23533645.69746  23533644.14348
 -18478324.34448 -14398680.78647         0.00041  21178354.83647  21178352.79448
  -4376446.11847  -3410213.31544         0.00041  24676564.81544  24676561.45447
 -27413082.98849 -21360826.98247         0.00041  20234495.90247  20234494.25349
   2834693.07148   2208855.76245         0.00041  23280457.74145  23280456.19848
 94 02 05 00 14 00.0000000  0  8 02 07 16 18 19 26 27 31
 -22281304.57548 -17362036.92247         0.00041  21253935.89947  21253933.75948
 -13000334.47548 -10130115.06846         0.00041  22869168.23846  22869166.37148
  -6175883.14248  -4812371.17745         0.00041  24200251.80545  24200248.07448
  -8913051.52348  -6945229.41046         0.00041  23554427.25546  23554424.06348
 -18440601.91448 -14369286.68847         0.00041  21185532.99447  21185531.01648
  -4470115.45047  -3483202.26144         0.00041  24658741.58444  24658737.89447
 -27422040.12649 -21367806.55947         0.00041  20232791.25347  20232789.79849
   2918727.04948   2274336.74745         0.00041  23296450.38245  23296446.98748
 94 02 05 00 14 30.0000000  0  8 02 07 16 18 19 26 27 31
 -22311672.65748 -17385700.33647         0.00041  21248157.35947  21248154.99848
 -13099923.77848 -10207717.06146         0.00041  22850217.71046  22850214.55048
  -6135947.53048  -4781252.51445         0.00041  24207852.37345  24207848.61748
  -8803727.51548  -6860041.94445         0.00041  23575230.22545  23575226.77748
 -18402597.91548 -14339673.19447         0.00041  21192764.82847  21192762.99348
  -4563597.36948  -3556045.18844         0.00041  24640948.90744  24640950.17948
 -27430672.24949 -21374532.88147         0.00041  20231148.58247  20231147.09049
   3003144.96148   2340116.94845         0.00041  23312514.87045  23312510.96248
 94 02 05 00 15 00.0000000  0  8 02 07 16 18 19 26 27 31
 -22341763.48448 -17409147.70847         0.00041  21242431.12747  21242428.90948
 -13199297.85948 -10285151.33046         0.00041  22831306.94246  22831304.11048
  -6095602.34748  -4749814.75545         0.00041  24215530.69345  24215526.70848
  -8694292.15848  -6774767.70145         0.00041  23596056.15045  23596051.76248
 -18364311.25748 -14309839.44347         0.00041  21200050.68647  21200048.80648
  -4656876.89048  -3628730.39144         0.00041  24623198.22144  24623198.38148
 -27438993.89148 -21381017.27547         0.00041  20229565.17547  20229563.57248
   3087942.94948   2406193.31145         0.00041  23328651.60245  23328647.97148
 94 02 05 00 15 30.0000000  0  8 02 07 16 18 19 26 27 31
 -22371623.75748 -17432415.42747         0.00041  21236748.64947  21236746.62048
 -13298482.44748 -10362437.95346         0.00041  22812434.30446  22812429.35548
  -6054892.64848  -4718092.91745         0.00041  24223277.34245  24223272.78848
  -8584784.01648  -6689436.70846         0.00041  23616895.61046  23616891.60848
 -18325781.37948 -14279816.17047         0.00041  21207382.30147  21207380.57848
  -4749978.45748  -3701276.97544         0.00041  24605479.17544  24605482.48648
 -27447046.64648 -21387292.14947         0.00041  20228032.66147  20228031.19748
   3173076.27048   2472530.94345         0.00041  23344849.38945  23344848.84848
 94 02 05 00 16 00.0000000  0  8 02 07 16 18 19 26 27 31
 -22401244.45348 -17455496.46347         0.00041  21231112.22747  21231109.81048
 -13397446.49048 -10439552.72046         0.00041  22793601.81946  22793597.23048
  -6013818.77148  -4686087.30845         0.00041  24231091.57045  24231087.75248
  -8475182.31048  -6604032.86945         0.00041  23637750.96145  23637748.01248
 -18286977.35348 -14249579.27446         0.00041  21214766.85446  21214764.90348
  -4842874.14047  -3773663.17744         0.00041  24587807.76044  24587803.36247
 -27454802.99848 -21393336.06047         0.00041  20226556.71747  20226555.05748
   3258559.01348   2539140.83445         0.00041  23361116.87245  23361115.63648
 94 02 05 00 16 30.0000000  0  8 02 07 16 18 19 26 27 31
 -22430775.42248 -17478507.59347         0.00041  21225492.36347  21225490.20748
 -13496321.62248 -10516598.22146         0.00041  22774786.65446  22774782.29948
  -5972545.33048  -4653926.24945         0.00041  24238947.30245  24238942.64648
  -8365627.44848  -6518665.51545         0.00041  23658599.95845  23658595.57848
 -18248042.27148 -14219240.25947         0.00041  21222176.14947  21222174.15448
  -4935712.81848  -3846004.81544         0.00041  24570137.37744  24570137.27348
 -27462387.54248 -21399246.09947         0.00041  20225113.33547  20225111.85148
   3344239.79748   2605905.05445         0.00041  23377421.34245  23377419.77048
 94 02 05 00 17 00.0000000  0  8 02 07 16 18 19 26 27 31
 -22459834.13848 -17501150.73847         0.00041  21219962.86447  21219960.71548
 -13594714.27248 -10593267.74746         0.00041  22756062.20046  22756058.63248
  -5930681.57748  -4621305.18145         0.00041  24246914.17645  24246910.18748
  -8255714.14048  -6433018.86145         0.00041  23679517.82545  23679512.04148
 -18208578.56348 -14188489.32547         0.00041  21229685.75647  21229683.56648
  -5028097.45548  -3917992.82644         0.00041  24552559.19544  24552557.32848
 -27469386.60148 -21404699.91447         0.00041  20223781.24047  20223779.88848
   3430503.83948   2673123.78245         0.00041  23393836.94245  23393834.85548
 94 02 05 00 17 30.0000000  0  8 02 07 16 18 19 26 27 31
 -22488640.15048 -17523596.96347         0.00041  21214481.15747  21214479.04848
 -13692859.14548 -10669744.22846         0.00041  22737385.95146  22737382.97048
  -5888463.77048  -4588408.21645         0.00041  24254945.59345  24254944.08248
  -8145658.14848  -6347261.01945         0.00041  23700458.95545  23700455.00448
 -18168808.45148 -14157499.63047         0.00041  21237253.92747  21237251.97648
  -5120243.12448  -3989794.54344         0.00041  24535026.92644  24535023.55948
 -27475997.84148 -21409851.52947         0.00041  20222523.37647  20222521.71248
   3517136.62248   2740629.88445         0.00041  23410324.99845  23410321.14148
 94 02 05 00 18 00.0000000  0  8 02 07 16 18 19 26 27 31
 -22517177.21448 -17545833.62147         0.00041  21209050.99147  21209048.88948
 -13790762.29048 -10746032.32846         0.00041  22718755.34046  22718752.78948
  -5845889.27748  -4555233.30645         0.00041  24263050.78245  24263045.67148
  -8035451.21848  -6261385.54745         0.00041  23721430.15045  23721426.31648
 -18128732.09648 -14126271.31447         0.00041  21244879.99547  21244878.03548
  -5212159.76348  -4061417.80244         0.00041  24517532.43844  24517530.70348
 -27482224.98448 -21414703.85447         0.00041  20221338.36547  20221336.81248
   3604149.98948   2808432.46045         0.00041  23426881.10045  23426879.12848
 94 02 05 00 18 30.0000000  0  8 02 07 16 18 19 26 27 31
 -22545519.74248 -17567918.69447         0.00041  21203657.35447  21203655.10448
 -13888509.78248 -10822199.15946         0.00041  22700153.63646  22700151.41548
  -5803035.64848  -4521840.87045         0.00041  24271204.53345  24271200.80448
  -7925178.67548  -6175458.94145         0.00041  23742411.74545  23742409.95348
 -18088438.85948 -14094874.00247         0.00041  21252547.46847  21252545.59748
  -5303921.16648  -4132920.11344         0.00041  24500072.14044  24500069.72548
 -27488168.33648 -21419335.03747         0.00041  20220207.30247  20220205.91748
   3691462.93248   2876468.51245         0.00041  23443498.73545  23443494.80248
 94 02 05 00 19 00.0000000  0  8 02 07 16 18 19 26 27 31
 -22573577.82848 -17589782.12547         0.00041  21198317.92847  21198315.65148
 -13986021.20648 -10898182.03946         0.00041  22681598.19146  22681595.51748
  -5759816.61248  -4488163.74245         0.00041  24279428.66245  24279425.84148
  -7814767.87148  -6089424.64345         0.00041  23763421.19245  23763420.79448
 -18047857.63948 -14063252.29147         0.00041  21260269.95347  21260267.86848
  -5395441.91448  -4204234.91344         0.00041  24482658.97344  24482654.31548
 -27493758.17248 -21423690.75747         0.00041  20219143.63247  20219142.14048
   3779148.72248   2944795.08145         0.00041  23460182.22045  23460180.15948
 94 02 05 00 19 30.0000000  0  8 02 07 16 18 19 26 27 31
 -22601395.54648 -17611458.25447         0.00041  21193024.35047  21193022.42348
 -14083336.39548 -10974012.01646         0.00041  22663080.17746  22663077.50048
  -5716283.79548  -4454242.09645         0.00041  24287710.54245  24287708.50848
  -7704282.69348  -6003332.36245         0.00041  23784448.90645  23784445.88348
 -18007043.34448 -14031448.96147         0.00041  21268036.59347  21268034.80348
  -5486789.37248  -4275414.66544         0.00041  24465273.11744  24465272.29648
 -27499055.80548 -21427818.78147         0.00041  20218135.85347  20218134.21448
   3867157.80448   3013373.53345         0.00041  23476928.25745  23476927.77548
 94 02 05 00 20 00.0000000  0  8 02 07 16 18 19 26 27 31
 -22628948.62549 -17632928.17247         0.00041  21187781.34647  21187779.20549
 -14180416.30248 -11049658.66546         0.00041  22644606.38546  22644603.75248
  -5672406.41048  -4420051.90145         0.00041  24296062.01345  24296057.31548
  -7593693.13548  -5917158.75045         0.00041  23805494.35245  23805490.23248
 -17965960.90348 -13999436.67747         0.00041  21275854.42347  21275852.53448
  -5577930.09748  -4346433.38144         0.00041  24447928.28744  24447926.99448
 -27504049.53448 -21431709.98847         0.00041  20217185.06647  20217183.83248
   3955503.78848   3082214.55345         0.00041  23493743.57045  23493740.03748
 94 02 05 00 20 30.0000000  0  8 02 07 16 18 19 26 27 31
 -22656236.68148 -17654191.57947         0.00041  21182588.62047  21182586.46248
 -14277260.68648 -11125121.78846         0.00041  22626177.83246  22626174.43248
  -5628191.25548  -4385598.57145         0.00041  24304473.96245  24304470.87648
  -7482997.95648  -5830902.83045         0.00041  23826559.07345  23826554.23648
 -17924598.95648 -13967206.59247         0.00041  21283724.93147  21283723.43348
  -5668840.39148  -4417272.46945         0.00041  24430628.21745  24430628.30148
 -27508722.86248 -21435351.53247         0.00041  20216295.99547  20216294.43048
   4044177.65948   3151311.06245         0.00041  23510614.96945  23510613.43348
 94 02 05 00 21 00.0000000  0  8 02 07 16 18 19 26 27 31
 -22683268.62149 -17675255.41747         0.00041  21177444.15947  21177442.42949
 -14373871.00048 -11200402.51546         0.00041  22607793.32446  22607788.99248
  -5583636.26748  -4350880.46245         0.00041  24312952.37045  24312949.17348
  -7372194.34048  -5744562.41645         0.00041  23847644.55545  23847640.09748
 -17882954.39948 -13934756.29247         0.00041  21291649.88547  21291648.18948
  -5759523.91148  -4487934.89545         0.00041  24413372.31245  24413371.80048
 -27513060.52348 -21438731.52347         0.00041  20215470.56047  20215469.02848
   4133179.11748   3220662.80245         0.00041  23527550.03545  23527549.56048
 94 02 05 00 21 30.0000000  0  8 02 07 16 18 19 26 27 31
 -22710053.83048 -17696126.99947         0.00041  21172347.33447  21172345.33348
 -14470252.30148 -11275504.79446         0.00041  22589452.53146  22589448.99748
  -5538743.81748  -4315899.28345         0.00041  24321497.03645  24321491.80348
  -7261283.45748  -5658138.43845         0.00041  23868746.11045  23868746.29848
 -17841026.30148 -13902085.05447         0.00041  21299628.53447  21299626.56648
  -5849971.09948  -4558413.18445         0.00041  24396163.36545  24396160.69748
 -27517055.12948 -21441844.18747         0.00041  20214710.34847  20214708.96948
   4222507.45448   3290269.27045         0.00041  23544550.97045  23544549.45048
 94 02 05 00 22 00.0000000  0  8 02 07 16 18 19 26 27 31
 -22736665.94848 -17716863.70047         0.00041  21167283.26847  21167280.96148
 -14566494.45448 -11350498.64846         0.00041  22571138.39346  22571134.91548
  -5493588.63948  -4280713.45844         0.00041  24330085.57844  24330085.22448
  -7150339.18548  -5571688.43545         0.00041  23889863.25845  23889858.11148
 -17798894.40548 -13869255.01647         0.00041  21307645.81947  21307644.12848
  -5940247.68548  -4628758.50844         0.00041  24378988.00644  24378982.04648
 -27520774.68548 -21444742.53747         0.00041  20214002.68547  20214001.01748
   4312094.91348   3360077.62245         0.00041  23561599.14945  23561596.39248
 94 02 05 00 22 30.0000000  0  8 02 07 16 18 19 26 27 31
 -22763012.15149 -17737393.19647         0.00041  21162269.86747  21162267.94649
 -14662502.38548 -11425309.98546         0.00041  22552867.68746  22552865.30548
  -5448072.90948  -4245246.70544         0.00041  24338752.66344  24338746.98148
  -7039284.04948  -5485152.05045         0.00041  23910992.48445  23910990.01848
 -17756466.57848 -13836194.37347         0.00041  21315719.86147  21315717.96048
  -6030277.14448  -4698911.29544         0.00041  24361850.90444  24361850.25748
 -27524121.21548 -21447350.21547         0.00041  20213365.70347  20213364.29948
   4402040.88348   3430165.36645         0.00041  23578714.89645  23578712.33648
 94 02 05 00 23 00.0000000  0  8 02 07 16 18 19 26 27 31
 -22789150.09948 -17757760.42047         0.00041  21157295.81947  21157293.70248
 -14758300.29948 -11499957.67146         0.00041  22534639.28646  22534635.92948
  -5402225.78348  -4209521.66744         0.00041  24347470.58744  24347470.71048
  -6928175.62248  -5398574.13545         0.00041  23932136.60345  23932134.34348
 -17713798.61548 -13802946.62347         0.00041  21323839.38147  21323837.34148
  -6120111.94548  -4768912.37245         0.00041  24344755.67845  24344753.99248
 -27527142.17048 -21449704.19347         0.00041  20212790.83647  20212789.47448
   4492293.82348   3500492.34545         0.00041  23595892.12145  23595886.47248
 94 02 05 00 23 30.0000000  0  8 02 07 16 18 19 26 27 31
 -22815002.76149 -17777905.34147         0.00041  21152376.35647  21152374.18749
 -14853807.87948 -11574379.10546         0.00041  22516464.59446  22516461.27848
  -5355986.98548  -4173491.43444         0.00041  24356274.40744  24356269.02848
  -6816947.76948  -5311903.09544         0.00041  23953306.16744  23953300.25848
 -17670809.57748 -13769448.68247         0.00041  21332020.10747  21332017.91648
  -6209671.17448  -4838698.72345         0.00041  24327712.88845  24327712.00148
 -27529761.58748 -21451745.28247         0.00041  20212292.45747  20212290.93548
   4582926.40148   3571115.15645         0.00041  23613135.55545  23613133.65048
 94 02 05 00 24 00.0000000  0  8 02 07 16 18 19 26 27 31
 -22840577.40049 -17797833.61247         0.00041  21147509.90247  21147507.78849
 -14949022.24348 -11648572.06146         0.00041  22498345.02146  22498342.21348
  -5309371.43248  -4137167.69944         0.00041  24365146.05944  24365139.68148
  -6705604.30547  -5225142.02544         0.00041  23974494.69444  23974488.13847
 -17627493.51448 -13735695.92447         0.00041  21340262.61147  21340260.76048
  -6298959.60448  -4908274.01745         0.00041  24310720.70445  24310719.71248
 -27531990.28948 -21453481.92547         0.00041  20211868.24947  20211866.83948
   4673917.64448   3642017.37245         0.00041  23630454.00445  23630449.30948
 94 02 05 00 24 30.0000000  0  8 02 07 16 18 19 26 27 31
 -22865950.48949 -17817604.84047         0.00041  21142681.26347  21142679.35349
 -15043993.75748 -11722575.78746         0.00041  22480272.19046  22480269.48548
  -5262462.41548  -4100615.23145         0.00041  24374067.80945  24374067.31748
  -6594223.20047  -5138351.65745         0.00041  23995686.86145  23995682.72847
 -17583916.33748 -13701739.68047         0.00041  21348555.62847  21348553.21648
  -6388045.14048  -4977691.27444         0.00041  24293771.00744  24293768.54648
 -27533891.49348 -21454963.37447         0.00041  20211506.20647  20211504.95948
   4765172.84848   3713125.27544         0.00041  23647815.80944  23647814.28648
 94 02 05 00 25 00.0000000  0  8 02 07 16 18 19 26 27 31
 -22891094.63748 -17837197.66547         0.00041  21137896.55947  21137894.24048
 -15138695.10548 -11796368.96346         0.00041  22462251.14146  22462248.06848
  -5215252.35448  -4063828.17644         0.00041  24383057.42144  24383050.86548
  -6482773.81148  -5051508.03145         0.00041  24016894.64145  24016891.32448
 -17540058.77648 -13667564.95746         0.00041  21356900.91346  21356899.01348
  -6476886.79848  -5046918.42144         0.00041  24276860.03944  24276861.29248
 -27535433.58548 -21456164.99047         0.00041  20211212.92747  20211211.46948
   4856714.67848   3784456.56844         0.00041  23665236.91944  23665233.31548
 94 02 05 00 25 30.0000000  0  8 02 07 16 18 19 26 27 31
 -22916060.44249 -17856651.52047         0.00041  21133145.50847  21133143.72449
 -15233195.94648 -11870005.90246         0.00041  22444268.27646  22444265.99648
  -5167818.45948  -4026866.74045         0.00041  24392080.81545  24392077.52748
  -6371304.99748  -4964649.28745         0.00041  24038106.37445  24038103.52448
 -17495970.57648 -13633210.52447         0.00041  21365290.87447  21365288.45748
  -6565546.46048  -5116003.84144         0.00041  24259990.12544  24259989.73748
 -27536682.02148 -21457137.79047         0.00041  20210975.50947  20210973.75748
   4948490.02348   3855969.81845         0.00041  23682700.91845  23682697.42848
 94 02 05 00 26 00.0000000  0  8 02 07 16 18 19 26 27 31
 -22940734.38348 -17875877.94647         0.00041  21128449.96147  21128448.00048
 -15327392.40848 -11943405.65946         0.00041  22426343.98946  22426341.10248
  -5120047.07948  -3989642.30544         0.00041  24401175.68744  24401168.10848
  -6259709.22047  -4877691.61144         0.00041  24059343.12644  24059339.36747
 -17451556.27648 -13598601.97846         0.00041  21373742.54346  21373740.17248
  -6653920.83748  -5184866.92145         0.00041  24243172.52745  24243172.87748
 -27537536.76548 -21457803.81247         0.00041  20210812.77047  20210811.29748
   5040603.45848   3927746.52244         0.00041  23700234.04044  23700227.52148
 94 02 05 00 26 30.0000000  0  8 02 07 16 18 19 26 27 31
 -22965156.90748 -17894908.47647         0.00041  21123802.22747  21123800.49248
 -15421327.63948 -12016601.87446         0.00041  22408468.07546  22408465.44048
  -5071981.45948  -3952188.60145         0.00041  24410318.27545  24410315.39248
  -6148043.46847  -4790679.40944         0.00041  24080594.40044  24080588.50247
 -17406868.59748 -13563780.41547         0.00041  21382246.22347  21382244.28048
  -6742059.00148  -5253545.90845         0.00041  24226405.90145  24226401.59648
 -27538043.21948 -21458198.45047         0.00041  20210716.24947  20210714.84948
   5133023.34748   3999761.99945         0.00041  23717814.34245  23717813.75348
 94 02 05 00 27 00.0000000  0  8 02 07 16 18 19 26 27 31
 -22989058.23749 -17913532.87247         0.00041  21119254.66747  21119252.58649
 -15514751.06348 -12089399.26946         0.00041  22390689.71946  22390687.23648
  -5023356.38748  -3914298.96944         0.00041  24419573.03344  24419568.26348
  -6036040.87248  -4703404.75645         0.00041  24101905.53845  24101901.93648
 -17361653.00948 -13528547.50047         0.00041  21390850.44747  21390848.36648
  -6829695.83448  -5321834.27345         0.00041  24209725.04745  24209724.18448
 -27537956.24748 -21458130.67347         0.00041  20210733.02547  20210731.52348
   5226015.21248   4072223.22645         0.00041  23735512.59245  23735509.48348
 94 02 05 00 27 30.0000000  0  8 02 07 16 18 19 26 27 31
 -23012815.63348 -17932045.11147         0.00041  21114733.01547  21114731.20048
 -15608033.73848 -12162086.98246         0.00041  22372939.19446  22372936.22248
  -4974538.29748  -3876258.89745         0.00041  24428862.89045  24428857.77748
  -5924091.04448  -4616171.20745         0.00041  24123208.79445  24123205.62648
 -17316269.99148 -13493184.11646         0.00041  21399486.50946  21399484.33448
  -6917208.29248  -5390025.71045         0.00041  24193074.66045  24193070.48348
 -27537653.23648 -21457894.55647         0.00041  20210790.60247  20210789.20148
   5319196.84148   4144832.26644         0.00041  23753244.58044  23753241.95948
 94 02 05 00 28 00.0000000  0  8 02 07 16 18 19 26 27 31
 -23036328.45149 -17950366.76847         0.00041  21110259.13147  21110257.42349
 -15701066.12548 -12234579.68246         0.00041  22355235.24546  22355232.54948
  -4925418.82048  -3837984.04445         0.00041  24438210.14745  24438203.97948
  -5812115.11048  -4528917.26345         0.00041  24144520.74545  24144513.59448
 -17270607.96848 -13457603.32246         0.00041  21408175.54046  21408173.63948
  -7004491.55848  -5458038.55745         0.00041  24176460.89245  24176461.53648
 -27537027.88348 -21457407.26047         0.00041  20210909.38047  20210908.13348
   5412663.78848   4217663.58445         0.00041  23771029.01945  23771027.62848
 94 02 05 00 28 30.0000000  0  8 02 07 16 18 19 26 27 31
 -23059610.15548 -17968508.33247         0.00041  21105828.65147  21105826.67648
 -15793822.93348 -12306857.64746         0.00041  22337584.01446  22337580.81648
  -4875987.91548  -3799466.47844         0.00041  24447614.71644  24447609.44948
  -5700098.81848  -4441631.91045         0.00041  24165834.78145  24165830.02248
 -17224647.92348 -13421790.30547         0.00041  21416921.57847  21416919.41348
  -7091529.37948  -5525860.14445         0.00041  24159903.84145  24159898.63248
 -27536068.41148 -21456659.61247         0.00041  20211092.22447  20211090.93448
   5506418.86447   4290719.48845         0.00041  23788870.01745  23788868.11847
 94 02 05 00 29 00.0000000  0  8 02 07 16 18 19 26 27 31
 -23082722.87848 -17986518.22947         0.00041  21101430.37147  21101428.43248
 -15886359.11148 -12378963.69846         0.00041  22319975.37546  22319972.08248
  -4826307.21948  -3760754.32444         0.00041  24457064.66744  24457064.66648
  -5588104.30847  -4354363.49945         0.00041  24187144.34845  24187141.96847
 -17178438.84648 -13385783.23346         0.00041  21425714.88846  21425712.91548
  -7178363.71648  -5593523.18045         0.00041  24143376.10645  24143373.79948
 -27534826.23948 -21455691.67847         0.00041  20211328.65347  20211327.27448
   5600405.15247   4363955.52744         0.00041  23806749.03544  23806753.38347
 94 02 05 00 29 30.0000000  0  8 02 07 16 18 19 26 27 31
 -23105526.70349 -18004287.43047         0.00041  21097091.18547  21097089.36249
 -15978517.86348 -12450775.64646         0.00041  22302437.39146  22302434.74148
  -4776237.43648  -3721738.85944         0.00041  24466595.63744  24466594.25748
  -5475998.26547  -4267008.20645         0.00041  24208478.11545  24208473.58947
 -17131828.76648 -13349463.68846         0.00041  21434584.71246  21434582.42248
  -7264837.94648  -5660905.61945         0.00041  24126921.73645  24126917.95448
 -27533151.64348 -21454386.79747         0.00041  20211647.28747  20211645.74848
   5694776.99148   4437492.02744         0.00041  23824712.08244  23824711.58448
 94 02 05 00 30 00.0000000  0  8 02 07 16 18 19 26 27 31
 -23128032.78149 -18021824.62047         0.00041  21092808.52547  21092806.36449
 -16070319.77248 -12522309.54546         0.00041  22284968.41146  22284965.56748
  -4725802.80448  -3682439.27645         0.00041  24476192.55545  24476191.06648
  -5363777.17347  -4179563.25444         0.00041  24229830.43144  24229828.77347
 -17084861.73948 -13312866.01046         0.00041  21443522.17046  21443520.01048
  -7350948.57148  -5728004.73345         0.00041  24110533.97945  24110531.74548
 -27531066.12649 -21452761.71747         0.00041  20212044.04347  20212042.85549
   5789514.80548   4511313.68745         0.00041  23842743.37045  23842739.68548
 94 02 05 00 30 30.0000000  0  8 02 07 16 18 19 26 27 31
 -23150423.63149 -18039272.02047         0.00041  21088547.65047  21088545.59949
 -16161955.83548 -12593714.22446         0.00041  22267530.76946  22267527.89648
  -4675198.47748  -3643007.28345         0.00041  24485824.19545  24485820.10448
  -5251613.28647  -4092162.90945         0.00041  24251178.58645  24251173.12547
 -17037743.77848 -13276150.71446         0.00041  21452488.69446  21452486.46148
  -7436860.98448  -5794949.39945         0.00041  24094180.41945  24094183.41448
 -27528743.67648 -21450952.00847         0.00041  20212485.61147  20212484.60548
   5884433.71648   4585276.40644         0.00041  23860802.82844  23860802.64848
 94 02 05 00 31 00.0000000  0  8 02 07 16 18 19 26 27 31
 -23172624.48448 -18056571.36947         0.00041  21084322.58647  21084320.55348
 -16253378.10548 -12664952.29846         0.00041  22250133.86946  22250130.96848
  -4624381.49648  -3603409.64944         0.00041  24495495.92944  24495489.56748
  -5139471.98547  -4004780.16244         0.00041  24272517.21044  24272512.82947
 -16990432.17748 -13239284.53846         0.00041  21461491.20846  21461489.32648
  -7522522.50048  -5861698.55345         0.00041  24077884.67145  24077882.17648
 -27526125.90648 -21448912.18747         0.00041  20212983.90547  20212982.75448
   5979583.09247   4659418.83644         0.00041  23878912.55444  23878908.07347
 94 02 05 00 31 30.0000000  0  8 02 07 16 18 19 26 27 31
 -23194602.87749 -18073697.37747         0.00041  21080140.52747  21080138.51449
 -16344556.15748 -12736000.07546         0.00041  22232782.91946  22232780.35248
  -4573317.00048  -3563619.20344         0.00041  24505215.60644  24505205.96348
  -5027298.56048  -3917372.36645         0.00041  24293864.76345  24293860.05348
 -16942906.66648 -13202251.66846         0.00041  21470535.49646  21470533.48748
  -7607911.70948  -5928235.52744         0.00041  24061635.52044  24061632.45548
 -27523172.68749 -21446610.97647         0.00041  20213546.06847  20213544.84549
   6074978.97248   4733753.27045         0.00041  23897064.71345  23897063.10248
 94 02 05 00 32 00.0000000  0  8 02 07 16 18 19 26 27 31
 -23216323.50149 -18090622.52347         0.00041  21076007.23847  21076005.34049
 -16435452.13248 -12806828.05046         0.00041  22215486.64146  22215483.84348
  -4521951.57448  -3523594.24345         0.00041  24514985.41845  24514981.51148
  -4915040.71548  -3829898.76245         0.00041  24315225.70345  24315222.56948
 -16895118.82048 -13165014.38946         0.00041  21479628.99946  21479626.88448
  -7692998.07448  -5994536.54645         0.00041  24045444.45145  24045441.50048
 -27519809.91148 -21443990.63147         0.00041  20214185.78247  20214184.62248
   6170653.37048   4808304.75445         0.00041  23915268.04045  23915268.85648
 94 02 05 00 32 30.0000000  0  8 02 07 16 18 19 26 27 31
 -23237817.28849 -18107370.91647         0.00041  21071916.95747  21071914.93549
 -16526078.08748 -12877445.62146         0.00041  22198240.31246  22198237.82348
  -4470319.87948  -3483361.75344         0.00041  24524808.94444  24524806.58748
  -4802752.60848  -3742401.57345         0.00041  24336592.13045  24336590.21948
 -16847073.09848 -13127576.17646         0.00041  21488771.58846  21488769.56848
  -7777828.64248  -6060638.21845         0.00041  24029303.84845  24029299.49848
 -27516049.36348 -21441060.34347         0.00041  20214901.50847  20214900.32248
   6266576.38848   4883049.95344         0.00041  23933532.16644  23933522.50948
 94 02 05 00 33 00.0000000  0  8 02 07 16 18 19 26 27 31
 -23259082.30249 -18123941.04947         0.00041  21067870.41147  21067868.52249
 -16616411.30748 -12947835.08846         0.00041  22181050.09446  22181047.59948
  -4418414.93947  -3442916.41444         0.00041  24534687.62844  24534683.64047
  -4690431.08948  -3654878.40245         0.00041  24357968.38545  24357964.48748
 -16798746.04448 -13089918.74146         0.00041  21497968.19846  21497966.04148
  -7862410.01748  -6126545.75845         0.00041  24013207.34245  24013203.67148
 -27511890.73948 -21437819.86647         0.00041  20215692.77847  20215691.53948
   6362749.53048   4957990.06145         0.00041  23951827.17245  23951822.96048
 94 02 05 00 33 30.0000000  0  8 02 07 16 18 19 26 27 31
 -23280096.38849 -18140315.65147         0.00041  21063871.36847  21063869.55949
 -16706415.42848 -13017968.11746         0.00041  22163923.01446  22163920.49348
  -4366210.09848  -3402237.42944         0.00041  24544625.91644  24544618.00948
  -4578031.55248  -3567294.43245         0.00041  24379359.61745  24379353.04548
 -16750092.35848 -13052006.78146         0.00041  21507226.40146  21507224.48448
  -7946709.31148  -6192233.47245         0.00041  23997164.36845  23997161.42848
 -27507305.77248 -21434247.17547         0.00041  20216565.47147  20216564.04548
   6459197.96648   5033144.69145         0.00041  23970180.21445  23970176.54648
 94 02 05 00 34 00.0000000  0  8 02 07 16 18 19 26 27 31
 -23300842.04549 -18156481.08947         0.00041  21059923.65447  21059921.72849
 -16796068.50948 -13087827.61046         0.00041  22146862.04746  22146860.08248
  -4313703.77947  -3361323.38844         0.00041  24554616.62244  24554609.83447
  -4465570.62048  -3479662.58645         0.00041  24400758.59545  24400753.42248
 -16701082.85948 -13013817.56746         0.00041  21516552.86846  21516550.81648
  -8030702.64848  -6257682.80845         0.00041  23981182.07045  23981177.80548
 -27502300.49748 -21430346.96647         0.00041  20217517.86047  20217516.63048
   6555939.22948   5108527.46645         0.00041  23988588.55045  23988586.26148
 94 02 05 00 34 30.0000000  0  8 02 07 16 18 19 26 27 31
 -23321305.63649 -18172426.73447         0.00041  21056029.89247  21056027.89949
 -16885356.98548 -13157402.99046         0.00041  22129871.95346  22129869.20748
  -4260913.53248  -3320188.19944         0.00041  24564661.15844  24564656.41348
  -4353045.49648  -3391980.74645         0.00041  24422172.05945  24422166.24248
 -16651717.26348 -12975350.87246         0.00041  21525946.70246  21525944.71848
  -8114372.94248  -6322880.37645         0.00041  23965258.75445  23965256.66448
 -27496904.12448 -21426142.00447         0.00041  20218544.60147  20218543.49448
   6652977.13248   5184141.42445         0.00041  24007053.76045  24007052.93548
 94 02 05 00 35 00.0000000  0  8 02 07 16 18 19 26 27 31
 -23341549.07749 -18188200.83247         0.00041  21052177.50547  21052175.57149
 -16974345.75748 -13226744.85046         0.00041  22112938.20346  22112935.28348
  -4207882.20748  -3278865.07144         0.00041  24574752.26544  24574748.01748
  -4240496.29248  -3304280.14345         0.00041  24443589.54145  24443583.18348
 -16602061.43948 -12936658.02946         0.00041  21535395.98046  21535393.90348
  -8197767.54748  -6387863.19145         0.00041  23949389.55945  23949386.83348
 -27491187.29348 -21421687.33747         0.00041  20219632.58847  20219631.36248
   6750254.74248   5259942.13045         0.00041  24025566.56145  24025563.66148
 94 02 05 00 35 30.0000000  0  8 02 07 16 18 19 26 27 31
 -23361547.75149 -18203784.19547         0.00041  21048371.83647  21048369.87549
 -17063025.83848 -13295846.16746         0.00041  22096061.79746  22096059.75848
  -4154594.49848  -3237342.21244         0.00041  24584893.46044  24584888.46948
  -4127912.16448  -3216552.32245         0.00041  24465013.78845  24465007.71148
 -16552108.81148 -12897733.90746         0.00041  21544901.64246  21544899.54748
  -8280854.72248  -6452606.44045         0.00041  23933579.35145  23933575.91948
 -27485124.34048 -21416962.96547         0.00041  20220786.28647  20220785.11948
   6847794.14548   5335946.90345         0.00041  24044127.10445  24044125.32348
 94 02 05 00 36 00.0000000  0  8 02 07 16 18 19 26 27 31
 -23381297.74749 -18219173.78247         0.00041  21044613.62247  21044611.71849
 -17151402.28448 -13364710.88946         0.00041  22079244.39046  22079242.13448
  -4101050.42747  -3195619.61444         0.00041  24595074.40344  24595076.17447
  -4015310.11048  -3128810.51745         0.00041  24486438.60245  24486435.70248
 -16501876.57148 -12858591.90546         0.00041  21554460.45546  21554458.52648
  -8363626.44148  -6517103.85845         0.00041  23917827.72445  23917824.88448
 -27478704.61948 -21411960.59347         0.00041  20222008.07647  20222006.81648
   6945604.39148   5412162.59445         0.00041  24062741.75545  24062736.96848
 94 02 05 00 36 30.0000000  0  8 02 07 16 18 19 26 27 31
 -23400801.64449 -18234371.60747         0.00041  21040901.80647  21040900.32149
 -17239475.30348 -13433339.17946         0.00041  22062484.81346  22062482.38748
  -4047239.38647  -3153688.94344         0.00041  24605314.15244  24605315.86347
  -3902680.98348  -3041047.58844         0.00041  24507872.77444  24507868.09148
 -16451387.14548 -12819249.50046         0.00041  21564068.60246  21564066.11548
  -8446093.91648  -6581364.17345         0.00041  23902135.03245  23902131.55048
 -27471912.32348 -21406667.90147         0.00041  20223300.43047  20223299.29748
   7043684.17948   5488588.37645         0.00041  24081401.85945  24081401.19648
 94 02 05 00 37 00.0000000  0  8 02 07 16 18 19 26 27 31
 -23420069.79249 -18249385.73047         0.00041  21037235.31547  21037233.15249
 -17327246.59848 -13501732.35946         0.00041  22045782.52746  22045779.79448
  -3993153.07247  -3111543.85244         0.00041  24615610.45244  24615609.55547
  -3790046.38848  -2953280.41244         0.00041  24529305.26844  24529301.59248
 -16400646.11148 -12779711.04446         0.00041  21573723.91846  21573721.82348
  -8528266.47448  -6645394.71445         0.00041  23886497.51445  23886495.00848
 -27464744.36549 -21401082.47947         0.00041  20224664.60247  20224663.54249
   7142024.73248   5565217.40445         0.00041  24100118.44545  24100114.32448
 94 02 05 00 37 30.0000000  0  8 02 07 16 18 19 26 27 31
 -23439097.00949 -18264212.11047         0.00041  21033614.88447  21033613.05049
 -17414708.62348 -13569884.55246         0.00041  22029139.00246  22029136.52548
  -3938803.07447  -3069193.22044         0.00041  24625958.89744  24625952.16547
  -3677404.04647  -2865507.19044         0.00041  24550742.87744  24550736.82847
 -16349631.64448 -12739959.51646         0.00041  21583431.54246  21583429.86548
  -8610138.27548  -6709190.90045         0.00041  23870916.15745  23870915.04448
 -27457178.35948 -21395186.88747         0.00041  20226104.48947  20226103.09848
   7240624.46948   5642048.36345         0.00041  24118880.61145  24118877.93348
 94 02 05 00 38 00.0000000  0  8 02 07 16 18 19 26 27 31
 -23457909.26249 -18278870.99747         0.00041  21030034.63747  21030032.94749
 -17501858.06348 -13637793.17846         0.00041  22012555.39346  22012552.84748
  -3884197.90447  -3026643.78644         0.00041  24636348.14344  24636341.70747
  -3564762.03447  -2777734.21544         0.00041  24572173.84544  24572172.10947
 -16298345.04248 -12699995.93546         0.00041  21593191.11846  21593189.25948
  -8691731.78948  -6772770.22345         0.00041  23855388.86245  23855388.51248
 -27449235.29049 -21388997.47747         0.00041  20227615.99347  20227614.69249
   7339458.44548   5719061.84745         0.00041  24137687.30645  24137684.80848
 94 02 05 00 38 30.0000000  0  8 02 07 16 18 19 26 27 31
 -23476508.86049 -18293364.17948         0.00041  21026495.04148  21026493.29549
 -17588685.03648 -13705450.53046         0.00041  21996032.46246  21996029.69548
  -3829336.57547  -2983894.74344         0.00041  24646781.92144  24646780.91047
  -3452106.06847  -2689950.39344         0.00041  24593617.29144  24593610.48647
 -16246760.16748 -12659799.94346         0.00041  21603007.87246  21603005.36448
  -8773036.15748  -6836124.22145         0.00041  23839921.60945  23839917.93648
 -27440926.61848 -21382523.18147         0.00041  20229197.18347  20229195.77348
   7438513.88648   5796247.89545         0.00041  24156539.04145  24156535.30748
 94 02 05 00 39 00.0000000  0  8 02 07 16 18 19 26 27 31
 -23494898.72449 -18307693.93148         0.00041  21022995.98048  21022994.25749
 -17675189.04948 -13772856.22546         0.00041  21979570.82846  21979568.16548
  -3774236.98047  -2940960.03844         0.00041  24657271.90444  24657265.95947
  -3339435.82647  -2602155.57244         0.00041  24615051.38544  24615050.33647
 -16194851.23248 -12619351.43246         0.00041  21612885.14646  21612883.24548
  -8854030.34448  -6899236.52645         0.00041  23824507.39045  23824505.02848
 -27432245.00049 -21375758.27147         0.00041  20230849.00447  20230847.77149
   7537784.84948   5873601.92545         0.00041  24175425.96145  24175426.12248
 94 02 05 00 39 30.0000000  0  7 02 07 16 19 26 27 31
 -23513099.19949 -18321876.10748         0.00041  21019532.44448  21019530.47949
 -17761393.63648 -13840028.61546         0.00041  21963167.44946  21963164.29048
  -3718920.09047  -2897856.04844         0.00041  24667794.56944  24667794.63347
 -16142635.63448 -12578663.95546         0.00041  21622821.79046  21622819.64648
  -8934721.04548  -6962112.31245         0.00041  23809153.34145  23809150.08748
 -27423197.22848 -21368708.05247         0.00041  20232570.64247  20232569.31448
   7637256.97048   5951112.64745         0.00041  24194353.21445  24194354.45948
 94 02 05 00 40 00.0000000  0  7 02 07 16 19 26 27 31
 -23531114.04249 -18335913.63548         0.00041  21016104.09248  21016102.30149
 -17847307.19048 -13906974.21246         0.00041  21946818.22246  21946815.43848
  -3663401.14848  -2854594.58444         0.00041  24678362.39444  24678360.40548
 -16090143.53448 -12537761.03046         0.00041  21632811.11746  21632808.48448
  -9015110.69048  -7024753.52145         0.00041  23793851.91745  23793852.69048
 -27413812.38548 -21361395.17947         0.00041  20234356.41647  20234355.25148
   7736919.40848   6028771.67745         0.00041  24213322.22945  24213320.63948
 94 02 05 00 40 30.0000000  0  8 02 07 15 16 19 26 27 31
 -23548898.31049 -18349771.49447         0.00041  21012720.39647  21012718.43749
 -17932900.78648 -13973670.50046         0.00041  21930530.52346  21930527.38948
        -0.92357        -0.63155         0.00051  24520665.60955  24520660.93857
  -3607650.11947  -2811152.23244         0.00041  24688970.27544  24688968.44547
 -16037344.40748 -12496618.86946         0.00041  21642858.31546  21642855.99948
  -9095152.64848  -7087123.82345         0.00041  23778621.69645  23778620.26948
 -27404043.91248 -21353783.36947         0.00041  20236215.23847  20236214.04148
   7836823.30248   6106618.84645         0.00041  24232331.25545  24232330.93048
 94 02 05 00 41 00.0000000  0  8 02 07 15 16 19 26 27 31
 -23566411.98349 -18363418.50348         0.00041  21009386.97648  21009385.20849
 -18018131.64048 -14040084.13046         0.00041  21914311.41746  21914309.15848
    -56719.31048    -44196.70445         0.00041  24509870.46845  24509867.33148
  -3551630.37648  -2767500.56744         0.00041  24699627.33344  24699629.10148
 -15984215.76948 -12455219.94046         0.00041  21652968.16946  21652965.90048
  -9174814.18048  -7149197.68545         0.00041  23763464.21745  23763461.15948
 -27393835.48348 -21345828.74047         0.00041  20238157.54147  20238156.65948
   7937017.07748   6184691.90145         0.00041  24251401.55545  24251396.68948
 94 02 05 00 41 30.0000000  0  8 02 07 15 16 19 26 27 31
 -23583683.91449 -18376877.13448         0.00041  21006100.39048  21006098.64649
 -18103016.33148 -14106228.02346         0.00041  21898158.29146  21898156.52548
   -113138.32648    -88159.49845         0.00041  24499137.89445  24499131.41748
  -3495361.03247  -2723654.43244         0.00041  24710344.80744  24710336.22947
 -15930799.82648 -12413597.13346         0.00041  21663133.30646  21663130.59448
  -9254122.30048  -7210996.13945         0.00041  23748372.01445  23748368.61348
 -27383229.13749 -21337564.04347         0.00041  20240176.29347  20240175.20149
   8037477.66248   6262972.87345         0.00041  24270517.23145  24270513.98448
 94 02 05 00 42 00.0000000  0  8 02 07 15 16 19 26 27 31
 -23600735.91549 -18390164.40148         0.00041  21002856.05648  21002853.91049
 -18187573.11448 -14172116.40946         0.00041  21882067.79246  21882065.02648
   -169282.37948   -131908.00545         0.00041  24488450.97445  24488447.46348
  -3438882.85648  -2679645.49244         0.00041  24721085.39844  24721083.66448
 -15877120.23948 -12371768.90546         0.00041  21673348.31746  21673345.49548
  -9333112.78148  -7272547.09945         0.00041  23733336.87245  23733336.35648
 -27372259.15349 -21329015.99447         0.00041  20242264.06247  20242262.70949
   8138160.54048   6341427.07345         0.00041  24289677.43945  24289672.80948
 94 02 05 00 42 30.0000000  0  8 02 07 15 16 19 26 27 31
 -23617585.49049 -18403293.92347         0.00041  20999649.26347  20999647.34749
 -18271811.09148 -14237756.36546         0.00041  21866037.68546  21866035.42048
   -225160.39448   -175449.27345         0.00041  24477817.26245  24477813.82948
  -3382202.06347  -2635478.63044         0.00041  24731867.32844  24731870.21947
 -15823181.97948 -12329739.10946         0.00041  21683612.01046  21683609.59548
  -9411803.04748  -7333864.13045         0.00041  23718365.25645  23718362.80548
 -27360926.42048 -21320185.28247         0.00041  20244420.21447  20244418.99148
   8239049.38248   6420041.72645         0.00041  24308872.51245  24308871.46848
 94 02 05 00 43 00.0000000  0  8 02 07 15 16 19 26 27 31
 -23634370.32049 -18416373.00147         0.00041  20996455.17047  20996453.20949
 -18355869.38148 -14303256.31446         0.00041  21850041.88746  21850039.66748
   -280914.32048   -218893.84045         0.00041  24467208.17545  24467204.74548
  -3325453.75648  -2591259.23944         0.00041  24742675.33444  24742669.55048
 -15769119.55348 -12287612.55946         0.00041  21693899.97046  21693897.45348
  -9490334.52448  -7395057.44245         0.00041  23703422.57145  23703419.97848
 -27349376.92548 -21311185.66847         0.00041  20246618.04347  20246617.02748
   8339985.44348   6498693.19245         0.00041  24328080.43145  24328078.79948
 94 02 05 00 43 30.0000000  0  8 02 07 15 16 19 26 27 31
 -23650639.27149 -18429050.09848         0.00041  20993359.41248  20993357.40249
 -18439304.99348 -14368271.05546         0.00041  21834164.93646  21834162.29248
   -336094.43948   -261891.21445         0.00041  24456707.60945  24456704.19248
  -3268198.60248  -2546644.93444         0.00041  24753567.77344  24753563.56948
 -15714475.60648 -12245032.87146         0.00041  21704298.18146  21704295.88148
  -9568260.56348  -7455778.96845         0.00041  23688593.73745  23688590.38348
 -27337165.87048 -21301670.55447         0.00041  20248941.62347  20248940.49148
   8441402.54848   6577719.50845         0.00041  24347381.49545  24347377.10648
 94 02 05 00 44 00.0000000  0  8 02 07 15 16 19 26 27 31
 -23666730.25849 -18441588.51948         0.00041  20990297.35148  20990295.61949
 -18522478.62848 -14433081.66546         0.00041  21818336.77646  21818334.67648
   -391055.02148   -304717.59645         0.00041  24446248.77145  24446245.24648
  -3210797.73847  -2501917.03544         0.00041  24764491.66144  24764486.14747
 -15659610.93548 -12202281.20446         0.00041  21714738.68846  21714736.03848
  -9645939.80248  -7516308.18245         0.00041  23673810.69645  23673809.19748
 -27324630.53548 -21291902.75747         0.00041  20251327.26747  20251325.93848
   8542940.86948   6656840.26445         0.00041  24366701.38345  24366699.62848
 94 02 05 00 44 30.0000000  0  8 02 07 15 16 19 26 27 31
 -23682599.30049 -18453953.99148         0.00041  20987277.00448  20987275.20049
 -18605338.74748 -14497647.96446         0.00041  21802569.32446  21802566.77548
   -445750.92948   -347337.65545         0.00041  24435838.85945  24435837.54148
  -3153199.69048  -2457035.48844         0.00041  24775453.14544  24775447.19548
 -15604484.63248 -12159325.65646         0.00041  21725229.08446  21725226.68748
  -9723316.84248  -7576601.94945         0.00041  23659086.68545  23659085.20748
 -27311723.64648 -21281845.43847         0.00041  20253783.14047  20253782.09648
   8644653.71448   6736097.06145         0.00041  24386057.22845  24386055.35048
 94 02 05 00 45 00.0000000  0  8 02 07 15 16 19 26 27 31
 -23698225.14749 -18466129.96248         0.00041  20984304.62548  20984302.46449
 -18687847.90148 -14561940.80446         0.00041  21786868.59346  21786865.83748
   -500151.99348   -389728.04445         0.00041  24425490.07845  24425485.71248
  -3095390.41748  -2411989.38244         0.00041  24786453.42744  24786448.17348
 -15549074.36448 -12116148.84346         0.00041  21735773.40746  21735771.20748
  -9800351.96348  -7636629.26545         0.00041  23644427.11245  23644425.39648
 -27298415.98649 -21271475.82947         0.00041  20256315.98547  20256314.50849
   8746563.39748   6815507.14645         0.00041  24405448.12745  24405448.47548
 94 02 05 00 45 30.0000000  0  8 02 07 15 16 19 26 27 31
 -23713617.29949 -18478123.82848         0.00041  20981374.63048  20981372.85649
 -18769995.02848 -14625951.52946         0.00041  21771236.18746  21771233.75248
   -554254.05148   -431885.40045         0.00041  24415195.38945  24415189.62948
  -3037384.81948  -2366790.25844         0.00041  24797486.78644  24797486.58148
 -15493399.48548 -12072765.84246         0.00041  21746367.67846  21746365.49248
  -9877035.59348  -7696382.69945         0.00041  23629835.11245  23629832.17448
 -27284707.28648 -21260793.72647         0.00041  20258924.08947  20258923.16548
   8848676.33748   6895075.68045         0.00041  24424883.88945  24424880.67648
 94 02 05 00 46 00.0000000  0  8 02 07 15 16 19 26 27 31
 -23728822.41349 -18489971.94848         0.00041  20978481.37048  20978479.62749
 -18851807.87348 -14689701.78446         0.00041  21755668.20446  21755665.79348
   -608098.13448   -473841.76145         0.00041  24404947.13245  24404943.22748
  -2979218.20248  -2321465.72744         0.00041  24808555.84644  24808556.18548
 -15437504.36948 -12029211.21546         0.00041  21757003.78246  21757002.07348
  -9953404.02048  -7755890.51045         0.00041  23615302.99545  23615300.73448
 -27270642.31148 -21249834.01247         0.00041  20261600.99747  20261599.56448
   8950946.38748   6974766.61945         0.00041  24444345.40745  24444340.70048
 94 02 05 00 46 30.0000000  0  8 02 07 15 16 19 26 27 31
 -23743793.59849 -18501637.78347         0.00041  20975632.83747  20975630.68249
 -18933220.15048 -14753139.90446         0.00041  21740175.72346  21740173.58648
   -661611.37948   -515540.31444         0.00041  24394764.86644  24394759.53848
  -2920827.70848  -2275966.65644         0.00041  24819672.40944  24819667.74748
 -15381300.37548 -11985415.90646         0.00041  21767699.24846  21767697.24948
 -10029379.67748  -7815092.28346         0.00041  23600846.17646  23600843.98748
 -27256158.19548 -21238547.69047         0.00041  20264357.10147  20264355.92648
   9053445.00048   7054635.67645         0.00041  24463847.82145  24463846.50948
 94 02 05 00 47 00.0000000  0  8 02 07 15 16 19 26 27 31
 -23758552.59649 -18513138.27647         0.00041  20972823.53747  20972821.85849
 -19014257.82548 -14816286.12946         0.00041  21724754.71646  21724752.43448
   -714795.13848   -556982.13645         0.00041  24384639.55845  24384639.02548
  -2862238.39748  -2230312.74844         0.00041  24830822.26744  24830815.85848
 -15324797.05448 -11941387.35846         0.00041  21778451.37046  21778449.55348
 -10104975.25948  -7873997.85246         0.00041  23586458.41646  23586457.13248
 -27241274.06748 -21226949.66947         0.00041  20267189.41947  20267188.05848
   9156153.99048   7134668.60445         0.00041  24483391.33545  24483391.84048
 94 02 05 00 47 30.0000000  0  8 02 07 15 16 19 26 27 31
 -23773105.94349 -18524478.52047         0.00041  20970054.62047  20970052.71249
 -19094949.67248 -14879162.87446         0.00041  21709399.50646  21709397.00748
   -767658.60048   -598174.36144         0.00041  24374581.92044  24374580.01248
  -2803461.81448  -2184512.89644         0.00041  24842004.14544  24842001.02548
 -15268006.59748 -11897135.05846         0.00041  21789258.01546  21789256.38448
 -10180217.57048  -7932628.19946         0.00041  23572141.18046  23572138.13648
 -27226016.61248 -21215060.74847         0.00041  20270092.65047  20270091.38548
   9259054.04848   7214850.46245         0.00041  24502972.70445  24502971.61048
 94 02 05 00 48 00.0000000  0  8 02 07 15 16 19 26 27 31
 -23787452.10849 -18535657.33447         0.00041  20967324.62547  20967322.69749
 -19175307.43648 -14941779.29246         0.00041  21694108.12946  21694105.20948
   -820197.20548   -639113.45845         0.00041  24364584.46645  24364582.43048
  -2744500.89748  -2138569.40244         0.00041  24853226.01144  24853221.52548
 -15210899.55848 -11852636.07946         0.00041  21800125.00946  21800123.39548
 -10255116.42848  -7990990.89446         0.00041  23557889.05346  23557886.90048
 -27210390.70948 -21202884.72547         0.00041  20273066.34247  20273064.99748
   9362137.61948   7295175.36545         0.00041  24522589.20745  24522587.84148
 94 02 05 00 48 30.0000000  0  8 02 07 15 16 19 26 27 31
 -23801597.97849 -18546680.06547         0.00041  20964632.62147  20964630.51349
 -19255334.84048 -15004138.28946         0.00041  21678879.27046  21678876.70248
   -872403.14148   -679793.31645         0.00041  24354649.23245  24354647.78548
  -2685364.28048  -2092488.97344         0.00041  24864480.91544  24864473.77248
 -15153479.01648 -11807892.81646         0.00041  21811051.88946  21811050.01848
 -10329668.13248  -8049083.08546         0.00041  23543701.58946  23543700.45448
 -27194400.99148 -21190425.21347         0.00041  20276108.93547  20276107.89448
   9465410.73748   7375647.96544         0.00041  24542243.30344  24542239.56248
 94 02 05 00 49 00.0000000  0  8 02 07 15 16 19 26 27 31
 -23815516.94949 -18557525.99347         0.00041  20961983.96747  20961982.14949
 -19335009.03848 -15066222.05946         0.00041  21663718.09946  21663715.45548
   -924266.07248   -720205.86744         0.00041  24344781.75544  24344779.36348
  -2626043.17048  -2046264.82544         0.00041  24875765.79044  24875761.23748
 -15095754.03948 -11762912.32546         0.00041  21822036.86746  21822034.95348
 -10403871.29248  -8106903.71245         0.00041  23529582.47745  23529578.80948
 -27178043.24848 -21177678.92747         0.00041  20279222.15647  20279220.61548
   9568865.19648   7456261.77245         0.00041  24561927.92945  24561926.87348
 94 02 05 00 49 30.0000000  0  8 02 07 15 16 19 26 27 31
 -23829190.24449 -18568180.49447         0.00041  20959382.14947  20959380.21649
 -19414304.40948 -15128010.63246         0.00041  21648628.32346  21648625.74148
   -975779.17047   -760345.81244         0.00041  24334982.28444  24334975.96447
  -2566518.70448  -1999882.20844         0.00041  24887095.42244  24887088.91248
 -15037712.80748 -11717685.39546         0.00041  21833082.09846  21833079.98148
 -10477712.88148  -8164442.57346         0.00041  23515529.51246  23515527.06248
 -27161289.80548 -21164624.29847         0.00041  20282409.98947  20282408.41648
   9672513.03148   7537026.35744         0.00041  24581655.26044  24581650.50148
 94 02 05 00 50 00.0000000  0  8 02 07 15 16 19 26 27 31
 -23842650.48048 -18578668.97547         0.00041  20956820.46647  20956818.44248
 -19493222.54248 -15189505.25546         0.00041  21633610.47546  21633607.49148
  -1026959.76747   -800226.68244         0.00041  24325232.95344  24325236.52347
  -2506819.19348  -1953363.16544         0.00041  24898456.71044  24898449.89648
 -14979371.45148 -11672224.60046         0.00041  21844184.16946  21844181.89148
 -10551204.32348  -8221708.57546         0.00041  23501545.19546  23501542.48348
 -27144148.34348 -21151267.32247         0.00041  20285672.12147  20285670.67248
   9776337.75848   7617928.76845         0.00041  24601409.36445  24601407.95748
 94 02 05 00 50 30.0000000  0  8 02 07 15 16 19 26 27 31
 -23855882.55649 -18588979.66747         0.00041  20954302.64347  20954300.84949
 -19571724.35248 -15250675.46446         0.00041  21618672.36746  21618669.55348
  -1077793.23747   -839837.24844         0.00041  24315562.35644  24315563.02347
  -2446930.63048  -1906696.82545         0.00041  24909854.91345  24909846.88448
 -14920745.26848 -11626541.86146         0.00041  21855340.53246  21855338.06348
 -10624324.64948  -8278685.41846         0.00041  23487630.45446  23487627.33048
 -27126590.36248 -21137585.78047         0.00041  20289012.92447  20289011.74548
   9880351.83448   7698978.64745         0.00041  24621197.93345  24621199.87848
 94 02 05 00 51 00.0000000  0  8 02 07 15 16 19 26 27 31
 -23868955.22149 -18599166.14647         0.00041  20951815.24547  20951813.15249
 -19649878.43648 -15311574.72546         0.00041  21603799.98446  21603797.54148
  -1128353.83047   -879234.88844         0.00041  24305943.09344  24305941.56947
  -2386917.57948  -1859933.53244         0.00041  24921274.89544  24921267.06848
 -14861896.37148 -11580685.57646         0.00041  21866538.61546  21866536.80648
 -10697142.28248  -8335426.39746         0.00041  23473773.06646  23473770.38948
 -27108679.94748 -21123629.61847         0.00041  20292421.46147  20292419.98148
   9984470.37748   7780110.01944         0.00041  24641015.82144  24641014.10148
 94 02 05 00 51 30.0000000  0  8 02 07 15 16 19 26 27 31
 -23882339.38049 -18609595.34947         0.00041  20949267.79147  20949266.10549
 -19728142.87148 -15372559.96946         0.00041  21588907.16646  21588903.81848
  -1179093.91047   -918772.44644         0.00041  24296289.53944  24296286.54047
  -2327231.15348  -1813424.62845         0.00041  24932630.12645  24932625.37748
 -14803265.82348 -11534999.42446         0.00041  21877695.52446  21877693.47548
 -10770102.77248  -8392278.67846         0.00041  23459889.21946  23459887.42248
 -27090861.29648 -21109744.96047         0.00041  20295812.15147  20295810.72648
  10088245.65448   7860973.88345         0.00041  24660763.06945  24660761.68848
 94 02 05 00 52 00.0000000  0  8 02 07 15 16 19 26 27 31
 -23895055.78448 -18619504.22447         0.00041  20946848.06547  20946845.98148
 -19805533.70048 -15432864.47847         0.00041  21574179.03747  21574176.71648
  -1229028.00247   -957682.12044         0.00041  24286783.94244  24286783.99747
  -2266892.56948  -1766407.66544         0.00041  24944112.90644  24944108.14248
 -14743876.78148 -11488722.26046         0.00041  21888996.52546  21888994.59548
 -10842221.74148  -8448475.26346         0.00041  23446164.26746  23446164.02948
 -27072151.12748 -21095165.61647         0.00041  20299372.49947  20299371.25648
  10192647.44948   7942325.95645         0.00041  24680630.35245  24680629.56548
 94 02 05 00 52 30.0000000  0  7 02 07 16 19 26 27 31
 -23907388.81348 -18629114.36847         0.00041  20944501.56747  20944499.73548
 -19882371.46548 -15492738.02446         0.00041  21559557.14146  21559555.42448
  -2206193.08148  -1719109.41344         0.00041  24955664.77444  24955659.11848
 -14684023.43548 -11442083.29946         0.00041  21900386.95546  21900384.62048
 -10913790.00848  -8504242.70046         0.00041  23432547.49546  23432544.58448
 -27052846.88748 -21080123.35047         0.00041  20303045.68447  20303044.87848
  10297372.55448   8023929.91644         0.00041  24700556.79344  24700557.01848
 94 02 05 00 53 00.0000000  0  7 02 07 16 19 26 27 31
 -23919768.16548 -18638760.61247         0.00041  20942145.21047  20942143.34148
 -19959112.37448 -15552536.10147         0.00041  21544954.39547  21544951.82048
  -2145577.06748  -1671876.25745         0.00041  24967198.23645  24967193.88848
 -14624128.75448 -11395412.13146         0.00041  21911784.31546  21911782.26848
 -10985236.51248  -8559915.27446         0.00041  23418949.25946  23418948.37648
 -27033382.94248 -21064956.64447         0.00041  20306749.86747  20306748.66348
  10401989.47148   8105449.64944         0.00041  24720469.43544  24720464.52648
 94 02 05 00 53 30.0000000  0  7 02 07 16 19 26 27 31
 -23931778.23048 -18648119.09947         0.00041  20939859.94447  20939857.99248
 -20035349.67648 -15611941.77247         0.00041  21530446.82147  21530444.41748
  -2084663.04048  -1624410.86045         0.00041  24978792.52945  24978785.87148
 -14563805.40748 -11348406.93446         0.00041  21923263.74046  21923261.26648
 -11056155.58448  -8615176.86146         0.00041  23405457.10746  23405453.41948
 -27013355.31848 -21049350.70547         0.00041  20310560.74947  20310559.63748
  10506914.21848   8187209.14944         0.00041  24740434.09244  24740431.68848
 94 02 05 00 54 00.0000000  0  7 02 07 16 19 26 27 31
 -23943373.92649 -18657154.69747         0.00041  20937653.63847  20937651.80049
 -20111040.85148 -15670921.87947         0.00041  21516043.33047  21516040.92048
  -2023428.98348  -1576696.13645         0.00041  24990443.88645  24990438.88048
 -14503025.65948 -11301046.10446         0.00041  21934829.28946  21934827.52948
 -11126501.61448  -8669991.92846         0.00041  23392071.73746  23392068.03548
 -26992734.36148 -21033282.42947         0.00041  20314485.09647  20314483.71548
  10612181.91748   8269236.01445         0.00041  24760464.15245  24760463.27448
 94 02 05 00 54 30.0000000  0  7 02 07 16 19 26 27 31
 -23954837.41849 -18666087.28247         0.00041  20935472.25047  20935470.25149
 -20186463.77448 -15729692.96147         0.00041  21501690.67647  21501688.18648
  -1962167.70148  -1528960.11844         0.00041  25002099.07244  25002096.04348
 -14442076.92248 -11253553.60046         0.00041  21946427.27346  21946425.73548
 -11196540.92748  -8724567.97446         0.00041  23378740.56046  23378739.81948
 -26971815.26048 -21016981.83947         0.00041  20318465.95747  20318464.61648
  10717517.73148   8351315.82944         0.00041  24780513.80544  24780509.02448
 94 02 05 00 55 00.0000000  0  7 02 07 16 19 26 27 31
 -23966094.37049 -18674858.92747         0.00041  20933329.46447  20933327.99249
 -20261507.88748 -15788168.86647         0.00041  21487410.49847  21487407.70448
  -1900797.83248  -1481139.60445         0.00041  25013777.50045  25013774.53548
 -14380883.85848 -11205870.70346         0.00041  21958071.99746  21958070.05648
 -11266185.27248  -8778836.26346         0.00041  23365487.19946  23365486.29148
 -26950515.54348 -21000384.66047         0.00041  20322519.13547  20322517.85448
  10823003.56848   8433512.59445         0.00041  24800581.91845  24800580.87048
 94 02 05 00 55 30.0000000  0  7 02 07 16 19 26 27 31
 -23977000.43448 -18683357.14747         0.00041  20931254.48147  20931252.47648
 -20336003.89848 -15846217.67747         0.00041  21473234.48447  21473232.06148
  -1839156.89247  -1433108.55544         0.00041  25025506.94944  25025503.15447
 -14319283.89748 -11157870.75146         0.00041  21969794.46046  21969792.12448
 -11335269.61748  -8832668.18246         0.00041  23352339.49546  23352339.58048
 -26928684.12348 -20983373.16147         0.00041  20326673.48447  20326672.00348
  10928786.35848   8515940.75844         0.00041  24820716.00544  24820710.86448
 94 02 05 00 56 00.0000000  0  7 02 07 16 19 26 27 31
 -23987860.44348 -18691819.48347         0.00041  20929187.98447  20929186.02348
 -20410237.00548 -15904061.62447         0.00041  21459108.34947  21459105.83948
  -1777519.20147  -1385079.61144         0.00041  25037234.93544  25037231.84647
 -14257557.56748 -11109772.33046         0.00041  21981540.17646  21981538.42448
 -11404088.05948  -8886292.91046         0.00041  23339245.56546  23339243.59648
 -26906606.91248 -20966170.14147         0.00041  20330874.41847  20330873.13648
  11034571.09548   8598370.47344         0.00041  24840841.51744  24840841.81648
 94 02 05 00 56 30.0000000  0  7 02 07 16 19 26 27 31
 -23998482.10849 -18700096.09647         0.00041  20927166.92747  20927165.12149
 -20484019.12148 -15961554.15447         0.00041  21445068.23647  21445065.18548
  -1715683.74347  -1336896.27345         0.00041  25049002.49745  25048998.21547
 -14195505.28248 -11061419.90346         0.00041  21993348.75046  21993346.75048
 -11472464.29648  -8939573.06946         0.00041  23326234.41346  23326231.98348
 -26884079.23348 -20948616.10847         0.00041  20335161.26847  20335160.01748
  11140551.34548   8680952.47445         0.00041  24861012.18345  24861008.12848
 94 02 05 00 57 00.0000000  0  8 02 07 15 16 19 26 27 31
 -24008769.72449 -18708112.40747         0.00041  20925209.11147  20925207.23649
 -20557271.32548 -16018633.76747         0.00041  21431128.40747  21431125.96148
        -0.00357         0.57754         0.00051  24195715.41854  24195709.61957
  -1653562.69947  -1288490.34244         0.00041  25060821.61644  25060818.75847
 -14133019.80248 -11012729.93746         0.00041  22005238.76646  22005236.94948
 -11540329.45348  -8992454.95846         0.00041  23313318.62346  23313317.12148
 -26860997.27248 -20930630.15747         0.00041  20339553.78047  20339552.52048
  11246809.88748   8763751.35944         0.00041  24881231.64944  24881229.06748
 94 02 05 00 57 30.0000000  0  8 02 07 15 16 19 26 27 31
 -24018999.41049 -18716083.57847         0.00041  20923262.14447  20923260.51849
 -20630281.23048 -16075524.57747         0.00041  21417235.36947  21417232.98148
    -45860.37247    -35735.16044         0.00041  24186987.05744  24186982.77247
  -1591440.80847  -1240083.77245         0.00041  25072647.34845  25072640.53547
 -14070380.13548 -10963919.82946         0.00041  22017159.19746  22017156.87848
 -11607980.80748  -9045170.26846         0.00041  23300445.10346  23300443.78848
 -26837646.58348 -20912434.81047         0.00041  20343997.12847  20343995.94048
  11353065.27148   8846547.81744         0.00041  24901454.92344  24901448.42748
 94 02 05 00 58 00.0000000  0  8 02 07 15 16 19 26 27 31
 -24029075.61149 -18723935.14847         0.00041  20921344.61147  20921342.72349
 -20702966.40248 -16132162.34847         0.00041  21403403.34447  21403401.07548
    -91409.12747    -71227.48244         0.00041  24178315.40444  24178315.72247
  -1529232.47347  -1191609.93644         0.00041  25084480.51044  25084478.93347
 -14007503.78548 -10914925.29146         0.00041  22029124.72946  22029122.14148
 -11675346.20648  -9097662.72846         0.00041  23287626.30246  23287623.95048
 -26813936.99948 -20893959.80047         0.00041  20348509.28447  20348507.64048
  11459397.92748   8929404.44645         0.00041  24921683.68545  24921682.95748
 94 02 05 00 58 30.0000000  0  7 02 07 16 19 26 27 31
 -24039002.76049 -18731670.57247         0.00041  20919456.14747  20919454.32049
 -20775340.50348 -16188557.72647         0.00041  21389631.43147  21389628.82048
  -1466954.95047  -1143082.02044         0.00041  25096333.18744  25096331.25647
 -13944396.69848 -10865750.96846         0.00041  22041133.16046  22041130.77948
 -11742424.79948  -9149931.72746         0.00041  23274861.39546  23274858.33348
 -26789879.61348 -20875213.77947         0.00041  20353087.07647  20353085.62748
  11565781.73348   9012300.92145         0.00041  24941930.29945  24941927.70348
 94 02 05 00 59 00.0000000  0  7 02 07 16 19 26 27 31
 -24048827.20248 -18739325.95647         0.00041  20917586.02547  20917584.23448
 -20847429.80948 -16244731.18547         0.00041  21375913.07347  21375910.81748
  -1404654.46247  -1094536.34644         0.00041  25108191.93244  25108186.69947
 -13881099.05348 -10816428.15146         0.00041  22053178.86846  22053176.02748
 -11809242.86148  -9201997.70145         0.00041  23262147.41445  23262144.28448
 -26765526.60248 -20856237.39147         0.00041  20357721.65747  20357719.96248
  11672162.82348   9095195.32745         0.00041  24962170.09645  24962170.79948
 94 02 05 00 59 30.0000000  0  7 02 07 16 19 26 27 31
 -24058559.42448 -18746909.48347         0.00041  20915734.49947  20915732.42248
 -20919216.93448 -16300669.17547         0.00041  21362252.21147  21362249.84748
  -1342331.92447  -1045973.43444         0.00041  25120050.41044  25120046.14447
 -13817625.35548 -10766968.13446         0.00041  22065256.86946  22065254.58948
 -11875783.36748  -9253847.40945         0.00041  23249484.58045  23249482.55348
 -26740893.82648 -20837043.01447         0.00041  20362408.55847  20362407.25948
  11778541.47448   9178087.76944         0.00041  24982418.84844  24982414.35348
 94 02 05 01 00 00.0000000  0  7 02 07 16 19 26 27 31
 -24067996.67948 -18754263.16547         0.00041  20913938.47847  20913936.34548
 -20990489.18948 -16356205.97747         0.00041  21348689.56747  21348687.25548
  -1279797.50547   -997245.38344         0.00041  25131957.00044  25131947.04747
 -13753768.14448 -10717209.27846         0.00041  22077408.12046  22077406.29148
 -11941817.43648  -9305302.47545         0.00041  23236919.02945  23236916.01648
 -26715767.74448 -20817464.24647         0.00041  20367189.86147  20367188.61848
  11885118.62147   9261134.98844         0.00041  25002695.85144  25002694.82847
 94 02 05 01 00 30.0000000  0  7 02 07 16 19 26 27 31
 -24077050.99348 -18761318.45747         0.00041  20912215.33247  20912213.33748
 -21061153.05148 -16411268.70447         0.00041  21335242.51047  21335240.58848
  -1216970.32147   -948289.23744         0.00041  25143902.54744  25143900.97547
 -13689442.98048 -10667085.78346         0.00041  22089649.65546  22089647.26248
 -12007235.28448  -9356277.39046         0.00041  23224470.05646  23224467.65248
 -26690062.02048 -20797433.79947         0.00041  20372081.74547  20372080.35448
  11991992.20048   9344413.13744         0.00041  25023039.32344  25023032.68048
 94 02 05 01 01 00.0000000  0  7 02 07 16 19 26 27 31
 -24085627.25949 -18768001.25047         0.00041  20910583.72547  20910581.79149
 -21131109.92248 -16465780.52947         0.00041  21321930.50447  21321928.32548
  -1153765.13047   -899038.57344         0.00041  25155934.98244  25155928.87947
 -13624560.91848 -10616528.35346         0.00041  22101996.56146  22101993.74948
 -12071933.93048  -9406691.87246         0.00041  23212157.82046  23212155.46248
 -26663681.47948 -20776877.53347         0.00041  20377101.56647  20377100.24648
  12099279.40048   9428013.61345         0.00041  25043450.13945  25043448.07948
 94 02 05 01 01 30.0000000  0  7 02 07 16 19 26 27 31
 -24094106.86949 -18774608.72047         0.00041  20908969.62347  20908967.79649
 -21200751.30148 -16520046.50947         0.00041  21308677.79747  21308675.76448
  -1090574.54447   -849799.17544         0.00041  25167962.44344  25167954.39247
 -13559510.52448 -10565839.74646         0.00041  22114374.36646  22114372.21148
 -12136298.48548  -9456846.02946         0.00041  23199908.78446  23199907.53948
 -26637001.37948 -20756087.83647         0.00041  20382178.84447  20382177.36348
  12206597.70348   9511638.23544         0.00041  25063870.22244  25063869.97348
 94 02 05 01 02 00.0000000  0  7 02 07 16 19 26 27 31
 -24102461.56549 -18781118.85947         0.00041  20907379.81447  20907378.25249
 -21270062.02748 -16574054.83147         0.00041  21295488.75147  21295485.92348
  -1027369.78947   -800548.74544         0.00041  25179988.05444  25179982.55647
 -13494252.80948 -10514989.59946         0.00041  22126792.95046  22126790.24648
 -12200303.13248  -9506719.73146         0.00041  23187730.47546  23187729.08948
 -26609977.74548 -20735030.45547         0.00041  20387321.48647  20387319.88148
  12313971.32648   9595306.03544         0.00041  25084307.74744  25084302.59048
 94 02 05 01 02 30.0000000  0  7 02 07 16 19 26 27 31
 -24110670.26749 -18787515.23147         0.00041  20905817.87547  20905815.91949
 -21339029.19948 -16627795.44747         0.00041  21282364.58147  21282361.97348
   -964116.91747   -751260.89044         0.00041  25192028.70044  25192020.34147
 -13428769.78048 -10463963.88346         0.00041  22139254.39446  22139251.40148
 -12263930.46448  -9556299.42946         0.00041  23175622.97746  23175621.97548
 -26582581.70848 -20713682.88947         0.00041  20392534.42547  20392533.11648
  12421417.62948   9679030.49544         0.00041  25104749.98144  25104749.71148
 94 02 05 01 03 00.0000000  0  7 02 07 16 19 26 27 31
 -24118721.31349 -18793788.76447         0.00041  20904285.82947  20904284.20449
 -21407639.02748 -16681257.61247         0.00041  21269308.87847  21269305.87248
   -900803.60347   -701925.85144         0.00041  25204074.76444  25204068.91047
 -13363047.08548 -10412751.41146         0.00041  22151760.31046  22151758.12448
 -12327187.58948  -9605590.64146         0.00041  23163585.08846  23163583.43548
 -26554795.91148 -20692031.61347         0.00041  20397822.05747  20397820.73048
  12528930.08847   9762806.45744         0.00041  25125208.25744  25125208.40547
 94 02 05 01 03 30.0000000  0  7 02 07 16 19 26 27 31
 -24126575.69148 -18799909.04447         0.00041  20902790.81247  20902788.92148
 -21475847.18048 -16734406.77447         0.00041  21256329.40847  21256326.42348
   -837381.33647   -652505.99744         0.00041  25216144.87744  25216137.81247
 -13297047.18048 -10361322.91546         0.00041  22164320.12846  22164317.62348
 -12390046.29348  -9654571.39346         0.00041  23151623.31446  23151621.75448
 -26526584.17048 -20670048.42547         0.00041  20403190.28947  20403188.83048
  12636518.46047   9846641.59744         0.00041  25145678.44244  25145681.92547
 94 02 05 01 04 00.0000000  0  7 02 07 16 19 26 27 31
 -24134476.86348 -18806065.79047         0.00041  20901287.39947  20901285.40448
 -21543899.17348 -16787434.25347         0.00041  21243378.96147  21243376.66848
   -774097.07047   -603193.53944         0.00041  25228186.05844  25228179.30047
 -13231022.86248 -10309875.39146         0.00041  22176883.16146  22176881.71348
 -12452741.14748  -9703424.48945         0.00041  23139692.17145  23139691.45748
 -26498197.12248 -20647928.64147         0.00041  20408592.35447  20408590.86148
  12743937.79647   9930345.03644         0.00041  25166121.74244  25166122.79547
 94 02 05 01 04 30.0000000  0  7 02 07 16 19 26 27 31
 -24142049.88648 -18811966.84247         0.00041  20899846.02147  20899844.25648
 -21611417.43748 -16840045.84847         0.00041  21230530.47747  21230528.34348
   -710592.15247   -553709.20744         0.00041  25240262.98444  25240262.76147
 -13164627.65148 -10258138.85746         0.00041  22189518.39346  22189516.38448
 -12514901.37748  -9751860.99346         0.00041  23127863.97646  23127862.50248
 -26469282.31048 -20625397.61847         0.00041  20414094.73747  20414093.31248
  12851557.13147  10014204.17344         0.00041  25186607.82544  25186602.50947
 94 02 05 01 05 00.0000000  0  7 02 07 16 19 26 27 31
 -24149147.78948 -18817497.67147         0.00041  20898495.50147  20898493.82248
 -21678230.18348 -16892107.68647         0.00041  21217816.61547  21217814.12048
   -646719.70447   -503938.43944         0.00041  25252417.74044  25252416.27647
 -13097699.55748 -10205987.10146         0.00041  22202254.98846  22202252.17148
 -12576375.86548  -9799763.12146         0.00041  23116165.86346  23116163.87748
 -26439708.70148 -20602353.24547         0.00041  20419722.42147  20419720.85248
  12959534.21547  10098342.22844         0.00041  25207149.98844  25207150.88247
 94 02 05 01 05 30.0000000  0  7 02 07 16 19 26 27 31
 -24155799.06249 -18822680.48347         0.00041  20897230.38047  20897228.52749
 -21744359.13148 -16943636.69847         0.00041  21205232.58547  21205230.00348
   -582511.24847   -453906.00444         0.00041  25264631.67944  25264634.47347
 -13030263.32048 -10153439.41046         0.00041  22215086.94846  22215084.95548
 -12637172.98148  -9847137.44646         0.00041  23104595.86046  23104594.76248
 -26409508.36548 -20578820.52147         0.00041  20425469.24447  20425467.90948
  13067853.34447  10182746.77644         0.00041  25227763.85344  25227763.18747
 94 02 05 01 06 00.0000000  0  7 02 07 16 19 26 27 31
 -24162227.73549 -18827689.83547         0.00041  20896006.48747  20896004.81749
 -21810029.25348 -16994808.17947         0.00041  21192735.85847  21192733.51048
   -518196.71247   -403790.63444         0.00041  25276882.24744  25276874.94647
 -12962541.35148 -10100669.06146         0.00041  22227974.29346  22227971.81548
 -12697509.88448  -9894153.17446         0.00041  23093114.29346  23093112.75548
 -26378905.80848 -20554974.37147         0.00041  20431292.71747  20431291.54648
  13176315.84347  10267263.05644         0.00041  25248406.08244  25248403.19447
 94 02 05 01 06 30.0000000  0  8 02 07 13 16 19 26 27 31
 -24168715.82649 -18832745.48647         0.00041  20894771.79547  20894770.21649
 -21875510.80048 -17045832.71747         0.00041  21180275.59647  21180273.23748
        -0.77316        -0.48216  25315628.77416  25315635.32816         0.00011
   -454044.58347   -353802.05244         0.00041  25289086.46744  25289082.81347
 -12894785.07648 -10047871.96746         0.00041  22240867.29646  22240865.57548
 -12757671.04348  -9941031.93946         0.00041  23081666.14646  23081663.98748
 -26348175.99548 -20531029.05247         0.00041  20437140.26447  20437139.08548
  13284642.62647  10351673.61344         0.00041  25269025.49644  25269017.95447
 94 02 05 01 07 00.0000000  0  8 02 07 13 16 19 26 27 31
 -24175262.28048 -18837846.61147         0.00041  20893525.88447  20893524.14848
 -21940803.94948 -17096710.45547         0.00041  21167850.60647  21167848.20348
   -120435.29806    -93845.38506  25292710.91006  25292717.06906         0.00001
   -390046.43047   -303933.28344         0.00041  25301267.06944  25301262.77547
 -12826960.11248  -9995021.35046         0.00041  22253775.46446  22253772.29748
 -12817647.04848  -9987766.43146         0.00041  23070252.98546  23070250.70148
 -26317284.14848 -20506957.46747         0.00041  20443018.52747  20443017.34348
  13392839.28547  10435982.68044         0.00041  25289609.39144  25289606.24247
 94 02 05 01 07 30.0000000  0  8 02 07 13 16 19 26 27 31
 -24181620.21048 -18842800.84247         0.00041  20892316.12247  20892314.43348
 -22005691.94248 -17147272.49847         0.00041  21155502.54547  21155500.19648
   -240901.08606   -187714.62006  25269787.27506  25269793.48306         0.00001
   -325971.81547   -254005.06344         0.00041  25313457.70744  25313455.92947
 -12758835.88948  -9941937.56346         0.00041  22266738.20346  22266735.94048
 -12877188.80748 -10034162.56046         0.00041  23058922.13046  23058920.40048
 -26285969.47648 -20482556.42547         0.00041  20448978.22747  20448976.24548
  13501140.28947  10520373.11244         0.00041  25310217.02744  25310214.69447
 94 02 05 01 08 00.0000000  0  8 02 07 13 16 19 26 27 31
 -24187702.83948 -18847540.54847         0.00041  20891158.89547  20891156.97648
 -22070069.80948 -17197437.03947         0.00041  21143251.73247  21143249.45948
   -361299.91606   -281531.70106  25246875.57606  25246882.35306         0.00001
   -261734.07247   -203949.50944         0.00041  25325681.62144  25325678.93847
 -12690300.21248  -9888533.15246         0.00041  22279780.29346  22279777.91648
 -12936192.22548 -10080139.20746         0.00041  23047695.97146  23047692.59848
 -26254121.59748 -20457739.90547         0.00041  20455038.47547  20455036.78048
  13609631.63847  10604911.89444         0.00041  25330859.78044  25330860.02747
 94 02 05 01 08 30.0000000  0  8 02 07 13 16 19 26 27 31
 -24193383.50149 -18851967.03947         0.00041  20890077.99547  20890076.10449
 -22133803.05948 -17247099.28347         0.00041  21131123.76347  21131121.54948
   -481509.57207   -375201.40106  25224000.50307  25224006.71106         0.00001
   -197220.53047   -153679.37144         0.00041  25337962.32444  25337954.28647
 -12621227.62048  -9834710.38446         0.00041  22292924.53346  22292921.49248
 -12994519.79048 -10125589.22146         0.00041  23036594.92446  23036593.34048
 -26221600.20248 -20432398.56947         0.00041  20461226.50847  20461225.40248
  13718418.09047  10689680.61844         0.00041  25351567.54244  25351560.40047
 94 02 05 01 09 00.0000000  0  8 02 07 13 16 19 26 27 31
 -24198844.27049 -18856222.17147         0.00041  20889038.64947  20889037.02949
 -22197068.00148 -17296396.60847         0.00041  21119084.46247  21119082.22948
   -601726.88607   -468877.11006  25201123.83507  25201130.17406         0.00001
   -132641.40847   -103358.05944         0.00041  25350252.06944  25350242.21047
 -12551830.32748  -9780634.58946         0.00041  22306130.51246  22306127.60448
 -13052352.26048 -10170653.44246         0.00041  23025590.16846  23025588.52348
 -26188597.32748 -20406682.03847         0.00041  20467507.25347  20467506.02748
  13827301.14647  10774524.59944         0.00041  25372282.59644  25372280.26847
 94 02 05 01 09 30.0000000  0  8 02 07 13 16 19 26 27 31
 -24204352.54948 -18860514.32647         0.00041  20887990.30547  20887988.47648
 -22260108.13348 -17345518.75347         0.00041  21107088.83247  21107086.25648
   -722222.41507   -562769.62906  25178194.52907  25178200.24806         0.00001
    -68255.22747    -53187.04944         0.00041  25362496.15644  25362493.53847
 -12482396.17848  -9726530.08146         0.00041  22319344.08646  22319340.47048
 -13109954.72648 -10215538.43846         0.00041  23014628.46046  23014627.04948
 -26155402.97948 -20380816.30947         0.00041  20473823.62647  20473822.76048
  13936003.02047  10859227.39344         0.00041  25392970.52144  25392966.45147
 94 02 05 01 10 00.0000000  0  8 02 07 13 16 19 26 27 31
 -24209710.31049 -18864689.19547         0.00041  20886970.93247  20886969.15549
 -22322708.02148 -17394297.84847         0.00041  21095176.39747  21095174.33048
   -842787.22707   -656716.15706  25155251.65107  25155257.49706         0.00001
     -3848.94247     -3000.25244         0.00041  25374752.86144  25374750.01747
 -12412725.57548  -9672241.32946         0.00041  22332601.27546  22332598.55648
 -13167138.36448 -10260097.06346         0.00041  23003746.24846  23003745.38748
 -26121825.16848 -20354651.78447         0.00041  20480213.54747  20480212.07248
  14044724.02047  10943945.39044         0.00041  25413652.55744  25413654.04747
 94 02 05 01 10 30.0000000  0  8 02 07 13 16 19 26 27 31
 -24214821.98648 -18868672.30547         0.00041  20885997.88747  20885996.06448
 -22384802.09048 -17442682.81247         0.00041  21083360.25347  21083357.96048
   -963336.29607   -750650.35206  25132311.72907  25132317.55406         0.00001
     60675.62247     47278.53544         0.00041  25387028.93744  25387028.41547
 -12342756.96248  -9617720.34946         0.00041  22345915.67246  22345913.42948
 -13223832.69548 -10304274.42846         0.00041  22992959.49346  22992957.27548
 -26087789.87048 -20328130.77147         0.00041  20486690.22147  20486688.80048
  14153553.20447  11028747.02744         0.00041  25434374.91144  25434362.51847
 94 02 05 01 11 00.0000000  0  8 02 07 13 16 19 26 27 31
 -24219752.91249 -18872514.57147         0.00041  20885059.80847  20885057.91549
 -22446454.95148 -17490723.97247         0.00041  21071628.12547  21071625.43548
  -1083922.67207   -844613.52606  25109364.73007  25109370.50406         0.00001
    125281.02047     97620.56944         0.00041  25399321.26944  25399321.92547
 -12272545.61348  -9563010.23446         0.00041  22359276.77946  22359273.96348
 -13280110.35448 -10348127.10646         0.00041  22982247.94146  22982247.53448
 -26053355.73448 -20301298.97747         0.00041  20493242.73947  20493241.47248
  14262441.99847  11113595.57844         0.00041  25455081.29644  25455084.51747
 94 02 05 01 11 30.0000000  0  7 02 07 13 16 19 26 27
 -24224626.70448 -18876312.30747         0.00041  20884131.87347  20884130.18148
 -22507789.67448 -17538517.23547         0.00041  21059955.97647  21059953.86548
  -1204654.16807   -938689.67806  25086389.67307  25086395.88306         0.00001
    189862.34747    147943.50844         0.00041  25411619.36644  25411612.27247
 -12202201.23348  -9508196.44446         0.00041  22372662.67946  22372660.22748
 -13336085.24148 -10391743.85846         0.00041  22971596.33746  22971595.46548
 -26018628.16248 -20274238.52747         0.00041  20499851.43747  20499849.84148
 94 02 05 01 12 00.0000000  0  7 02 07 13 16 19 26 27
 -24229426.49748 -18880052.38547         0.00041  20883219.08247  20883216.98448
 -22568810.42848 -17586065.84947         0.00041  21048344.24547  21048342.10848
  -1325515.32107  -1032866.79606  25063390.18607  25063396.25506         0.00001
    254405.35547    198236.87644         0.00041  25423896.65744  25423895.41347
 -12131697.07748  -9453258.16146         0.00041  22386079.15346  22386076.75248
 -13391744.90448 -10435114.98946         0.00041  22961005.33946  22961004.18148
 -25983586.42948 -20246933.27947         0.00041  20506519.34247  20506518.00248
 94 02 05 01 12 30.0000000  0  7 02 07 13 16 19 26 27
 -24233793.49748 -18883455.21847         0.00041  20882387.90047  20882386.12248
 -22629154.58248 -17633087.23947         0.00041  21036861.01247  21036859.05348
  -1446150.01707  -1126867.44907  25040434.16007  25040439.98607         0.00001
    319246.87447    248762.53244         0.00041  25436233.26544  25436236.69947
 -12060680.09448  -9397920.26046         0.00041  22399593.32346  22399590.81848
 -13446726.08548 -10477957.42946         0.00041  22950543.40546  22950541.65848
 -25947877.86548 -20219108.42447         0.00041  20513314.36447  20513313.12248
 94 02 05 01 13 00.0000000  0  7 02 07 13 16 19 26 27
 -24237933.58348 -18886681.23547         0.00041  20881600.40547  20881598.32648
 -22689015.37548 -17679731.98647         0.00041  21025469.91447  21025467.99448
  -1566755.82007  -1220845.56807  25017483.28907  25017488.85407         0.00001
    384172.37447    299353.79044         0.00041  25448595.35744  25448592.62147
 -11989352.60148  -9342340.41646         0.00041  22413166.16546  22413163.91348
 -13501225.75248 -10520424.66546         0.00041  22940171.56746  22940170.04048
 -25911710.17748 -20190925.80547         0.00041  20520197.02847  20520195.54248
 94 02 05 01 13 30.0000000  0  7 02 07 13 16 19 26 27
 -24241956.13448 -18889815.66547         0.00041  20880834.88147  20880832.98748
 -22748514.07248 -17726094.58247         0.00041  21014147.70947  21014145.68848
  -1687448.53007  -1314891.43806  24994516.10907  24994521.34706         0.00001
    449046.01848    349904.71644         0.00041  25460939.57944  25460937.72148
 -11917839.89848  -9286616.26346         0.00041  22426775.06446  22426772.10648
 -13555352.33148 -10562601.19646         0.00041  22929873.49946  22929870.39448
 -25875219.46648 -20162491.48047         0.00041  20527141.32747  20527139.38348
 94 02 05 01 14 00.0000000  0  7 02 07 13 16 19 26 27
 -24245700.41048 -18892733.25747         0.00041  20880122.16147  20880120.39648
 -22807505.84948 -17772062.18147         0.00041  21002921.78447  21002919.66248
  -1808076.54307  -1408886.92807  24971561.10407  24971566.13307         0.00001
    514007.87047    400524.36444         0.00041  25473301.88244  25473299.60847
 -11845991.51948  -9230630.53746         0.00041  22440447.60846  22440444.35948
 -13608951.80348 -10604366.99546         0.00041  22919671.69946  22919670.75448
 -25838260.56548 -20133692.33347         0.00041  20534174.16047  20534172.63248
 94 02 05 01 14 30.0000000  0  7 02 07 13 16 19 26 27
 -24249214.29548 -18895471.32947         0.00041  20879453.59847  20879451.69948
 -22866030.30648 -17817665.62847         0.00041  20991784.86747  20991782.74648
  -1928681.21707  -1502864.25607  24948610.26207  24948615.38707         0.00001
    579026.47448    451188.02044         0.00041  25485673.81444  25485673.05348
 -11773857.03048  -9174421.86746         0.00041  22454173.78246  22454171.12748
 -13662061.48748 -10645751.14146         0.00041  22909565.00346  22909564.31248
 -25800872.82148 -20104559.02347         0.00041  20541288.83447  20541287.24348
 94 02 05 01 15 00.0000000  0  7 02 07 13 16 19 26 27
 -24252463.52048 -18898003.16847         0.00041  20878835.07947  20878833.19548
 -22924048.46848 -17862874.56247         0.00041  20980744.63147  20980742.55448
  -2049218.24207  -1596788.89107  24925672.52907  24925677.94207         0.00001
    644144.16848    501929.13244         0.00041  25498062.02044  25498063.58448
 -11701389.25348  -9117953.49346         0.00041  22467964.50846  22467961.73948
 -13714629.18148 -10686712.95946         0.00041  22899562.58646  22899560.85548
 -25763001.99848 -20075049.29247         0.00041  20548495.36147  20548493.83048
 94 02 05 01 15 30.0000000  0  7 02 07 13 16 19 26 27
 -24255422.96248 -18900309.20647         0.00041  20878272.08747  20878270.14048
 -22981521.39748 -17907658.63847         0.00041  20969807.89847  20969805.90548
  -2169650.37707  -1690631.81107  24902754.95407  24902760.52807         0.00001
    709391.65147    552771.27244         0.00041  25510484.60644  25510479.72947
 -11628544.96148  -9061191.70446         0.00041  22481826.04546  22481823.52048
 -13766612.55248 -10727219.45746         0.00041  22889669.47846  22889668.60948
 -25724602.07548 -20045127.27847         0.00041  20555802.32947  20555800.98348
 94 02 05 01 16 00.0000000  0  7 02 07 13 16 19 26 27
 -24258251.33648 -18902513.11047         0.00041  20877733.30147  20877731.57648
 -23038597.80548 -17952133.73647         0.00041  20958946.60747  20958944.49348
  -2290128.78907  -1784510.82207  24879828.43507  24879833.75407         0.00001
    774610.60947    603591.27144         0.00041  25522895.31044  25522890.34347
 -11555467.73248  -9004248.41746         0.00041  22495732.65046  22495729.35848
 -13818172.02348 -10767395.63346         0.00041  22879858.36046  22879856.87248
 -25685810.09848 -20014899.77247         0.00041  20563184.62447  20563182.83548
 94 02 05 01 16 30.0000000  0  8 02 07 13 15 16 19 26 27
 -24260970.57748 -18904631.98047         0.00041  20877215.99947  20877214.33248
 -23095284.31448 -17996305.01947         0.00041  20948159.31247  20948157.41348
  -2410657.93107  -1878429.41407  24856892.41607  24856897.78207         0.00001
        -0.55257        -0.05454         0.00051  23911924.11154  23911925.21357
    839784.15347    654375.63844         0.00041  25535300.35244  25535290.81747
 -11482163.95148  -8947128.58546         0.00041  22509681.98946  22509679.09048
 -13869323.74348 -10807254.10746         0.00041  22870124.37446  22870122.81848
 -25646633.58148 -19984372.62847         0.00041  20570639.79647  20570638.05248
 94 02 05 01 17 00.0000000  0  8 02 07 13 15 16 19 26 27
 -24263550.47748 -18906642.27547         0.00041  20876724.70447  20876722.90048
 -23151545.74248 -18040145.06647         0.00041  20937452.89447  20937451.10448
  -2531200.26207  -1972358.31107  24833954.15507  24833959.26007         0.00001
    -29510.01747    -22994.43944         0.00041  23906311.00044  23906310.30947
    904938.12847    705144.97544         0.00041  25547688.34344  25547688.81147
 -11408598.23648  -8889804.65845         0.00041  22523680.91045  22523677.86148
 -13920036.79348 -10846770.75146         0.00041  22860473.15146  22860472.53348
 -25607043.30548 -19953523.07347         0.00041  20578173.25447  20578171.80348
 94 02 05 01 17 30.0000000  0  8 02 07 13 15 16 19 26 27
 -24266023.03748 -18908568.93347         0.00041  20876254.71947  20876252.92448
 -23207419.90048 -18083683.34547         0.00041  20926820.57347  20926818.79448
  -2651790.36807  -2066324.47707  24811006.44907  24811011.68107         0.00001
    -58620.00547    -45677.50444         0.00041  23900772.69044  23900770.53347
    970024.75447    755861.65444         0.00041  25560077.62144  25560074.08447
 -11334811.31948  -8832308.35345         0.00041  22537722.49345  22537719.16648
 -13970351.94348 -10885977.33746         0.00041  22850899.16046  22850898.38348
 -25567084.74548 -19922386.55147         0.00041  20585777.17447  20585775.90548
 94 02 05 01 18 00.0000000  0  7 02 07 13 15 19 26 27
 -24268306.95948 -18910348.59047         0.00041  20875819.79147  20875817.96748
 -23262828.21148 -18126858.62847         0.00041  20916276.50047  20916274.81848
  -2772359.77607  -2160274.53307  24788062.68107  24788067.69407         0.00001
    -87263.22348    -67996.89844         0.00041  23895321.62244  23895319.90748
 -11260739.28248  -8774589.86645         0.00041  22551817.23045  22551815.05048
 -14020195.22948 -10924816.22346         0.00041  22841415.71246  22841413.90748
 -25526693.41748 -19890912.79947         0.00041  20593463.32347  20593461.99448
 94 02 05 01 18 30.0000000  0  7 02 07 13 15 19 26 27
 -24270632.23748 -18912160.47947         0.00041  20875377.55247  20875375.90448
 -23317992.17748 -18169843.51547         0.00041  20905779.18547  20905777.58948
  -2893132.27707  -2254382.87107  24765080.42207  24765085.20107         0.00001
   -115664.34948    -90127.61744         0.00041  23889922.25544  23889915.11248
 -11186622.82048  -8716836.78545         0.00041  22565921.41645  22565917.95148
 -14069781.29348 -10963454.69846         0.00041  22831980.37146  22831977.44148
 -25486108.89848 -19859288.50247         0.00041  20601185.94947  20601185.14448
 94 02 05 01 19 00.0000000  0  7 02 07 13 15 19 26 27
 -24272875.83048 -18913908.71747         0.00041  20874950.68447  20874948.91148
 -23372782.20548 -18212537.01247         0.00041  20895352.81147  20895351.33048
  -3013988.64407  -2348556.57507  24742082.11907  24742086.89607         0.00001
   -143705.03148   -111977.43044         0.00041  23884585.13244  23884579.37648
 -11112361.69548  -8658970.99645         0.00041  22580050.93145  22580049.62048
 -14118976.79648 -11001788.83146         0.00041  22822616.93046  22822615.43248
 -25445221.70148 -19827428.34047         0.00041  20608966.91647  20608965.51048
 94 02 05 01 19 30.0000000  0  7 02 07 13 15 19 26 27
 -24274610.45048 -18915260.35647         0.00041  20874620.64747  20874618.87848
 -23426773.91948 -18254608.45547         0.00041  20885078.88947  20885076.77748
  -3134507.91407  -2442467.61807  24719147.61807  24719152.70607         0.00001
   -170965.64948   -133219.40344         0.00041  23879390.15644  23879391.52048
 -11037530.97348  -8600661.34744         0.00041  22594296.18144  22594289.91348
 -14167354.67648 -11039485.88046         0.00041  22813410.88846  22813409.35348
 -25403619.84748 -19795011.30047         0.00041  20616883.06647  20616881.98648
 94 02 05 01 20 00.0000000  0  7 02 07 13 15 19 26 27
 -24275856.62849 -18916231.39947         0.00041  20874384.04747  20874382.26349
 -23479982.39348 -18296069.58547         0.00041  20874953.37647  20874951.51448
  -3254707.18607  -2536129.34007  24696274.51707  24696279.29607         0.00001
   -197464.19748   -153867.61445         0.00041  23874348.56745  23874348.71448
 -10962147.60248  -8541921.06045         0.00041  22608634.80645  22608634.62848
 -14214943.47448 -11076568.04046         0.00041  22804354.65746  22804353.40048
 -25361335.92248 -19762062.78747         0.00041  20624929.84647  20624928.34848
 94 02 05 01 20 30.0000000  0  7 02 07 13 15 19 26 27
 -24276759.02549 -18916934.54947         0.00041  20874212.03347  20874210.31949
 -23532542.33148 -18337025.34947         0.00041  20864951.65647  20864949.81948
  -3374708.71007  -2629636.97507  24673439.20407  24673443.94307         0.00001
   -223324.10348   -174018.10045         0.00041  23869427.43045  23869428.64548
 -10886336.51448  -8482847.49344         0.00041  22623061.56044  22623061.28048
 -14261889.96548 -11113149.71246         0.00041  22795422.23946  22795419.78548
 -25318501.43748 -19728685.26647         0.00041  20633081.29147  20633079.49948
 94 02 05 01 21 00.0000000  0  7 02 07 13 15 19 26 27
 -24277853.12349 -18917787.08247         0.00041  20874003.77747  20874002.07449
 -23584986.45648 -18377890.87847         0.00041  20854972.11947  20854969.93348
  -3495047.40607  -2723407.32207  24650539.40907  24650543.97407         0.00001
   -249081.30748   -194088.59344         0.00041  23864526.75644  23864526.81248
 -10810629.44148  -8423854.97544         0.00041  22637472.62644  22637467.83048
 -14308738.96048 -11149655.38746         0.00041  22786506.30646  22786504.66648
 -25275645.10448 -19695290.72847         0.00041  20641236.55747  20641234.74748
 94 02 05 01 21 30.0000000  0  7 02 07 13 15 19 26 27
 -24279059.53149 -18918727.12548         0.00041  20873773.99948  20873772.31549
 -23637248.70648 -18418614.68747         0.00041  20845026.97047  20845024.87248
  -3615642.26207  -2817377.27007  24627590.76207  24627595.79507         0.00001
   -274656.26148   -214017.08945         0.00041  23859660.22445  23859660.29048
 -10734938.67947  -8364875.09744         0.00041  22651872.85044  22651871.13247
 -14355434.29248 -11186041.35746         0.00041  22777620.94546  22777619.09848
 -25232682.46148 -19661813.34647         0.00041  20649411.88547  20649410.29448
 94 02 05 01 22 00.0000000  0  7 02 07 13 15 19 26 27
 -24279958.37449 -18919427.50747         0.00041  20873603.19647  20873601.39049
 -23688895.92048 -18458859.24347         0.00041  20835198.57747  20835196.53848
  -3736054.76907  -2911205.10807  24604677.04207  24604681.81907         0.00001
   -299611.49248   -233462.71945         0.00041  23854913.08745  23854910.73048
 -10658854.27647  -8305588.60544         0.00041  22666348.72544  22666349.91447
 -14401551.64748 -11221976.93346         0.00041  22768844.58546  22768843.51048
 -25189160.60348 -19627900.20047         0.00041  20657693.67147  20657692.34448
 94 02 05 01 22 30.0000000  0  7 02 07 13 15 19 26 27
 -24280619.34148 -18919942.52747         0.00041  20873477.13647  20873475.27148
 -23739996.79348 -18498678.07447         0.00041  20825474.24647  20825472.47848
  -3856351.12607  -3004942.41107  24581785.19607  24581790.11507         0.00001
   -324014.21248   -252477.74645         0.00041  23850269.41745  23850267.53248
 -10582451.00347  -8246053.55644         0.00041  22680893.11644  22680888.49747
 -14447150.12448 -11257508.20146         0.00041  22760167.77546  22760166.51648
 -25145123.22848 -19593585.35447         0.00041  20666073.63847  20666072.31148
 94 02 05 01 23 00.0000000  0  6 02 07 13 15 26 27
 -24281122.86748 -18920334.86547         0.00041  20873381.53047  20873379.88448
 -23790661.40848 -18538156.95847         0.00041  20815833.05047  20815831.17548
  -3976631.98507  -3098667.62407  24558896.43907  24558901.07707         0.00001
   -347966.28848   -271141.68445         0.00041  23845711.39045  23845709.83848
 -14492317.34948 -11292703.42846         0.00041  22751572.65846  22751571.11248
 -25100666.43348 -19558943.67847         0.00041  20674533.02447  20674532.11048
 94 02 05 01 23 30.0000000  0  6 02 07 13 15 26 27
 -24281526.48148 -18920649.35947         0.00041  20873304.75147  20873302.91448
 -23840955.34148 -18577347.00247         0.00041  20806262.63447  20806260.62448
  -4096948.85107  -3192420.89807  24536000.83307  24536005.65507         0.00001
   -371520.72948   -289495.76445         0.00041  23841227.56045  23841227.10848
 -14537096.75848 -11327596.46246         0.00041  22743051.63246  22743049.74648
 -25055837.64448 -19524012.13747         0.00041  20683063.82547  20683062.80548
 94 02 05 01 24 00.0000000  0  6 02 07 13 15 26 27
 -24281611.91248 -18920715.90547         0.00041  20873288.12147  20873286.71148
 -23890645.63148 -18616066.67147         0.00041  20796806.98747  20796805.03248
  -4217080.82007  -3286030.07107  24513140.51307  24513145.16107         0.00001
   -394457.61048   -307368.62244         0.00041  23836863.21444  23836861.98348
 -14581250.19448 -11362001.73146         0.00041  22734649.43346  22734647.37248
 -25010419.68148 -19488621.51647         0.00041  20691707.13047  20691705.74448
 94 02 05 01 24 30.0000000  0  6 02 07 13 15 26 27
 -24281390.77548 -18920543.56347         0.00041  20873329.98947  20873328.06348
 -23939761.77448 -18654338.95047         0.00041  20787460.18947  20787458.22748
  -4337056.52507  -3379517.49907  24490309.74507  24490314.52107         0.00001
   -416806.78648   -324783.54345         0.00041  23832609.12845  23832609.19548
 -14624803.54748 -11395939.38246         0.00041  22726360.56446  22726359.31348
 -24964461.91548 -19452810.26247         0.00041  20700452.62047  20700451.03648
 94 02 05 01 25 00.0000000  0  7 02 07 13 15 19 26 27
 -24280514.88148 -18919861.02947         0.00041  20873496.27047  20873494.81548
 -23987961.05948 -18691896.80447         0.00041  20778288.12647  20778286.10748
  -4456520.88207  -3472606.46507  24467576.42307  24467580.99707         0.00001
   -438214.32048   -341464.71145         0.00041  23828539.25845  23828535.64748
        -0.35157         0.56454         0.00051  22754398.57954  22754391.32857
 -14667401.57848 -11429132.65046         0.00041  22718255.60846  22718253.57848
 -24917632.30948 -19416319.66347         0.00041  20709363.86247  20709362.30748
 94 02 05 01 25 30.0000000  0  6 02 07 13 15 26 27
 -24279765.64948 -18919277.18047         0.00041  20873638.69847  20873637.15548
 -24035983.22848 -18729316.63547         0.00041  20769149.91747  20769148.25248
  -4576224.17507  -3565881.62007  24444797.41607  24444802.03407         0.00001
   -459431.98048   -357997.91245         0.00041  23824498.49245  23824497.06048
 -14709795.39648 -11462166.79046         0.00041  22710187.96546  22710186.88848
 -24870698.74848 -19379748.05047         0.00041  20718294.83747  20718293.15548
 94 02 05 01 26 00.0000000  0  6 02 07 13 15 26 27
 -24279049.57449 -18918719.17247         0.00041  20873775.62147  20873773.85949
 -24083725.37248 -18766518.26847         0.00041  20760064.93447  20760063.25848
  -4696064.34407  -3659263.44507  24421992.55307  24421996.87507         0.00001
   -480358.93348   -374304.58245         0.00041  23820516.22545  23820515.37548
 -14751897.09248 -11494973.29546         0.00041  22702177.56746  22702175.41148
 -24823573.48348 -19343027.05547         0.00041  20727262.57547  20727261.00248
 94 02 05 01 26 30.0000000  0  7 02 07 13 15 19 26 27
 -24278127.95049 -18918000.99647         0.00041  20873951.35147  20873949.62849
 -24130958.89848 -18803323.57047         0.00041  20751076.40247  20751074.58248
  -4815787.05007  -3752553.76807  24399210.05607  24399214.21907         0.00001
   -500742.35748   -390187.70745         0.00041  23816637.99945  23816636.56948
        -0.30157         0.48654         0.00051  22799105.18354  22799103.59057
 -14793457.71448 -11527358.17946         0.00041  22694267.39446  22694265.59148
 -24776002.88848 -19305959.04647         0.00041  20736314.75047  20736313.56648
 94 02 05 01 27 00.0000000  0  7 02 07 13 15 19 26 27
 -24277065.74449 -18917173.28047         0.00041  20874153.67147  20874151.88849
 -24177739.12948 -18839775.65447         0.00041  20742174.57847  20742172.65848
  -4935433.03307  -3845784.30707  24376442.05407  24376446.15207         0.00001
   -520624.50348   -405680.27545         0.00041  23812853.51245  23812853.54348
     78839.66547     61434.20444         0.00041  22814105.59044  22814107.08647
 -14834516.35448 -11559351.91846         0.00041  22686453.66846  22686452.59848
 -24728026.67048 -19268574.96547         0.00041  20745444.51647  20745442.99048
 94 02 05 01 27 30.0000000  0  7 02 07 13 15 19 26 27
 -24275839.28549 -18916217.57447         0.00041  20874386.51247  20874385.06349
 -24224039.15448 -18875853.54947         0.00041  20733363.81147  20733362.27148
  -5054976.69207  -3938935.14907  24353693.72607  24353697.94507         0.00001
   -539980.91848   -420763.07245         0.00041  23809171.86345  23809169.84548
    157989.68648    123109.47644         0.00041  22829168.46444  22829169.09148
 -14875047.82448 -11590934.87546         0.00041  22678741.89346  22678741.02248
 -24679612.37048 -19230849.53647         0.00041  20754657.41347  20754656.10048
 94 02 05 01 28 00.0000000  0  7 02 07 13 15 19 26 27
 -24274438.00348 -18915125.64547         0.00041  20874652.80647  20874651.19648
 -24269878.31448 -18911572.33147         0.00041  20724641.03347  20724639.19548
  -5174426.66007  -4032012.97007  24330963.26407  24330967.30107         0.00001
   -558821.80448   -435444.31044         0.00041  23805590.03344  23805584.39848
    237415.72948    184999.86444         0.00041  22844286.69944  22844282.87048
 -14915061.16548 -11622114.09046         0.00041  22671128.27846  22671126.94248
 -24630757.56948 -19192780.84247         0.00041  20763953.94347  20763952.86548
 94 02 05 01 28 30.0000000  0  7 02 07 13 15 19 26 27
 -24273150.55349 -18914122.41747         0.00041  20874897.83447  20874896.13649
 -24315546.01248 -18947157.51047         0.00041  20715950.64247  20715948.61748
  -5294078.14007  -4125247.84707  24308194.13207  24308198.30907         0.00001
   -577443.75748   -449954.87144         0.00041  23802038.31444  23802041.23648
    316817.44648    246871.38245         0.00041  22859394.10845  22859392.97348
 -14954843.97548 -11653113.67246         0.00041  22663556.92246  22663555.96148
 -24581765.00948 -19154604.81547         0.00041  20773277.21347  20773275.82248
 94 02 05 01 29 00.0000000  0  7 02 07 13 15 19 26 27
 -24271928.24149 -18913169.94647         0.00041  20875130.40347  20875129.02949
 -24360976.74248 -18982558.04047         0.00041  20707305.36147  20707303.49248
  -5413889.11307  -4218606.99707  24285394.42407  24285398.95207         0.00001
   -595806.18947   -464263.27844         0.00041  23798545.74344  23798546.49247
    396225.90048    308748.10044         0.00041  22874509.40544  22874503.03948
 -14994351.83648 -11683899.01646         0.00041  22656039.10146  22656037.54048
 -24532594.95448 -19116290.48947         0.00041  20782633.90847  20782632.61148
 94 02 05 01 29 30.0000000  0  7 02 07 13 15 19 26 27
 -24270056.46249 -18911711.40347         0.00041  20875486.44747  20875484.88549
 -24405450.90948 -19017213.20047         0.00041  20698842.00447  20698840.29548
  -5533158.82207  -4311544.40407  24262698.26007  24262702.61807         0.00001
   -613210.10147   -477824.68044         0.00041  23795235.62244  23795234.08047
    476315.76748    371155.76745         0.00041  22889746.43145  22889743.68148
 -15032881.87448 -11713922.40646         0.00041  22648707.80246  22648705.40148
 -24482544.70548 -19077290.29347         0.00041  20792157.97047  20792156.67048
 94 02 05 01 30 00.0000000  0  7 02 07 13 15 19 26 27
 -24267822.63649 -18909970.74347         0.00041  20875911.65747  20875910.10649
 -24449241.19648 -19051335.46247         0.00041  20690509.07247  20690507.07548
  -5652173.43807  -4404283.04407  24240051.01407  24240054.77107         0.00001
   -629943.02347   -490863.23344         0.00041  23792053.19044  23792050.30847
    556812.85447    433880.82844         0.00041  22905065.17244  22905061.20747
 -15070734.96248 -11743418.32346         0.00041  22641503.78446  22641502.53648
 -24431913.66048 -19037837.52347         0.00041  20801792.77647  20801791.32148
 94 02 05 01 30 30.0000000  0  6 07 13 15 19 26 27
 -24492580.58448 -19085106.37947         0.00041  20682262.00347  20682260.26448
  -5771165.60307  -4497004.21007  24217407.42907  24217411.22907         0.00001
   -646239.26847   -503561.59344         0.00041  23788948.48444  23788949.24247
    637505.98947    496758.60844         0.00041  22920412.27544  22920415.72547
 -15108158.11248 -11772579.22546         0.00041  22634383.03946  22634381.36748
 -24380933.58848 -18998112.79347         0.00041  20811493.82147  20811492.70048
 94 02 05 01 31 00.0000000  0  6 07 13 15 19 26 27
 -24535424.20048 -19118490.98147         0.00041  20674109.18747  20674107.28948
  -5890073.11707  -4589659.40707  24194779.91807  24194784.08207         0.00001
   -662038.11348   -515872.37644         0.00041  23785944.16244  23785943.17748
    718445.39347    559828.27744         0.00041  22935821.89444  22935819.61247
 -15145093.69148 -11801360.19046         0.00041  22627353.91446  22627352.90848
 -24329528.88648 -18958057.18147         0.00041  20821275.57147  20821274.56948
 94 02 05 01 31 30.0000000  0  6 07 13 15 19 26 27
 -24577857.42148 -19151555.78647         0.00041  20666034.16347  20666032.27348
  -6008963.47207  -4682301.21107  24172155.89907  24172160.14707         0.00001
   -677408.48348   -527849.18044         0.00041  23783024.17044  23783017.97948
    799567.10647    623039.97444         0.00041  22951255.44444  22951256.27947
 -15181623.23048 -11829824.73746         0.00041  22620402.59746  22620401.12048
 -24277774.49748 -18917729.07847         0.00041  20831124.46347  20831123.16948
 94 02 05 01 32 00.0000000  0  6 07 13 15 19 26 27
 -24619796.17948 -19184235.31147         0.00041  20658053.30647  20658051.26248
  -6127726.95407  -4774844.14607  24149555.68807  24149559.96407         0.00001
   -692242.48548   -539408.18845         0.00041  23780197.02245  23780195.68048
    880985.06848    686482.50344         0.00041  22966749.32144  22966750.50448
 -15217652.02548 -11857899.12946         0.00041  22613545.76346  22613544.40448
 -24225567.89848 -18877048.61747         0.00041  20841059.25747  20841058.11848
 94 02 05 01 32 30.0000000  0  6 07 13 15 19 26 27
 -24661039.33848 -19216372.80647         0.00041  20650204.79247  20650203.02748
  -6246135.39107  -4867110.38007  24127023.23407  24127027.41207         0.00001
   -706313.72248   -550372.78845         0.00041  23777517.38645  23777517.85848
    962904.69048    750316.02444         0.00041  22982340.81544  22982338.64148
 -15252939.50548 -11885395.87246         0.00041  22606831.16946  22606829.88748
 -24172676.72948 -18835834.71147         0.00041  20851123.86547  20851122.76948
 94 02 05 01 33 00.0000000  0  6 07 13 15 19 26 27
 -24702001.85748 -19248291.61647         0.00041  20642410.12847  20642408.49248
  -6364613.04107  -4959430.52707  24104477.97507  24104481.83607         0.00001
   -720047.89548   -561074.69645         0.00041  23774906.23445  23774904.05648
   1044884.88748    814196.59744         0.00041  22997942.93544  22997939.06748
 -15287899.39648 -11912637.34546         0.00041  22600179.42646  22600177.69348
 -24119549.11748 -18794436.56447         0.00041  20861233.92147  20861232.39748
 94 02 05 01 33 30.0000000  0  7 02 07 13 15 19 26 27
        -0.36459         0.54657         0.00051  20879770.28757  20879768.76659
 -24742477.41449 -19279830.97948         0.00041  20634707.93048  20634706.21749
  -6482969.90707  -5051656.52707  24081955.12007  24081958.99007         0.00001
   -733256.65548   -571367.16344         0.00041  23772391.33444  23772390.79948
   1127112.41248    878270.02444         0.00041  23013589.28944  23013586.29348
 -15322344.02748 -11939477.31846         0.00041  22593624.18346  22593622.91548
 -24066021.49448 -18752726.72247         0.00041  20871419.93647  20871418.59548
 94 02 05 01 34 00.0000000  0  7 02 07 13 15 19 26 27
      3555.40448      2771.27647         0.00041  20880446.47847  20880444.83948
 -24782478.12249 -19311000.32648         0.00041  20627096.13948  20627094.29949
  -6601227.76007  -5143805.34007  24059451.08407  24059455.22007         0.00001
   -745963.50848   -581268.59544         0.00041  23769969.09344  23769972.99148
   1209551.80548    942508.45844         0.00041  23029280.76444  23029273.59248
 -15356281.96948 -11965922.47146         0.00041  22587165.51646  22587163.95748
 -24012123.17348 -18710728.01847         0.00041  20881675.79747  20881674.76148
 94 02 05 01 34 30.0000000  0  7 02 07 13 15 19 26 27
      7281.64649      5674.84047         0.00041  20881156.46547  20881154.99249
 -24821945.40548 -19341754.01948         0.00041  20619585.81448  20619583.76748
  -6719353.71307  -5235851.35907  24036972.53107  24036976.42207         0.00001
   -758137.54748   -590754.86545         0.00041  23767660.69545  23767656.20548
   1292231.33348   1006934.09145         0.00041  23045013.61245  23045006.65448
 -15389664.99648 -11991935.22846         0.00041  22580812.13246  22580810.68048
 -23957821.84248 -18668415.27547         0.00041  20892009.35647  20892008.06748
 94 02 05 01 35 00.0000000  0  7 02 07 13 15 19 26 27
     11176.59349      8709.86547         0.00041  20881897.66547  20881896.01749
 -24860875.88648 -19372089.42048         0.00041  20612177.31448  20612175.53448
  -6837355.57207  -5327800.70207  24014517.52907  24014521.27507         0.00001
   -769787.89648   -599833.02745         0.00041  23765439.90945  23765439.18448
   1375136.91748   1071535.82745         0.00041  23060784.80045  23060783.56748
 -15422508.14648 -12017527.28946         0.00041  22574562.38946  22574561.00948
 -23903134.46548 -18625801.71747         0.00041  20902416.09347  20902414.66248
 94 02 05 01 35 30.0000000  0  6 07 13 15 19 26 27
 -24899337.33649 -19402059.34748         0.00041  20604858.21048  20604856.67449
  -6955281.71208  -5419691.03407  23992076.72308  23992080.64607         0.00001
   -780964.95648   -608542.41445         0.00041  23763312.80745  23763312.53448
   1458214.68248   1136271.78445         0.00041  23076596.09145  23076592.73848
 -15454862.87048 -12042738.76246         0.00041  22568406.61946  22568405.11948
 -23848099.31948 -18582917.17447         0.00041  20912888.85147  20912887.69648
 94 02 05 01 36 00.0000000  0  6 07 13 15 19 26 27
 -24937300.34249 -19431640.87348         0.00041  20597633.95148  20597632.26149
  -7073087.69507  -5511487.75507  23969658.66107  23969662.72707         0.00001
   -791626.18048   -616849.80345         0.00041  23761285.67145  23761283.20848
   1541515.15948   1201181.20545         0.00041  23092448.96945  23092444.56748
 -15486693.41848 -12067541.79246         0.00041  22562348.74346  22562348.09848
 -23792651.86148 -18539711.33647         0.00041  20923440.45147  20923438.65548
 94 02 05 01 36 30.0000000  0  7 02 07 13 15 19 26 27
         0.11159         0.82557         0.00051  20884284.44057  20884282.98859
 -24974755.61349 -19460826.76248         0.00041  20590506.67948  20590504.99349
  -7190751.17307  -5603173.43407  23947268.22607  23947271.57707         0.00001
   -801751.19048   -624739.42445         0.00041  23759356.95545  23759356.88648
   1625059.97848   1266281.06145         0.00041  23108345.63545  23108342.39248
 -15517990.88648 -12091929.43446         0.00041  22556393.92446  22556392.38048
 -23736768.42048 -18496165.78647         0.00041  20934074.02647  20934072.99648
 94 02 05 01 37 00.0000000  0  7 02 07 13 15 19 26 27
      4496.98649      3504.90147         0.00041  20885140.33047  20885138.63649
 -25011770.00749 -19489669.11248         0.00041  20583463.01148  20583461.23949
  -7308322.78708  -5694787.55507  23924894.89408  23924898.46707         0.00001
   -811391.93048   -632251.70345         0.00041  23757525.81945  23757521.67148
   1708793.86748   1331528.23745         0.00041  23124275.82845  23124276.78248
 -15548826.77048 -12115957.39146         0.00041  22550526.88646  22550525.27648
 -23680499.27348 -18452319.68447         0.00041  20944781.64847  20944780.76248
 94 02 05 01 37 30.0000000  0  7 02 07 13 15 19 26 27
      9144.52049      7126.37347         0.00041  20886024.66247  20886023.12749
 -25048316.78949 -19518147.09048         0.00041  20576508.33248  20576506.52849
  -7425772.31508  -5786306.54307  23902544.93008  23902548.24107         0.00001
   -820520.53248   -639364.84145         0.00041  23755783.46045  23755785.01148
   1792762.25448   1396958.12545         0.00041  23140255.98645  23140255.53748
 -15579174.14448 -12139604.68746         0.00041  22544751.66146  22544750.05948
 -23623809.77248 -18408146.04047         0.00041  20955569.41647  20955568.29048
 94 02 05 01 38 00.0000000  0  7 02 07 13 15 19 26 27
     13987.47849     10900.13047         0.00041  20886946.12947  20886944.47949
 -25084348.78749 -19546223.93748         0.00041  20569651.43048  20569649.67149
  -7543059.42708  -5877698.97807  23880226.00108  23880229.42207         0.00001
   -829098.58448   -646048.99045         0.00041  23754151.88845  23754152.20548
   1877011.79748   1462607.11745         0.00041  23156289.52745  23156286.88548
 -15609000.03948 -12162845.63346         0.00041  22539075.69246  22539074.05248
 -23566651.50648 -18363607.13147         0.00041  20966446.93247  20966445.07648
 94 02 05 01 38 30.0000000  0  7 02 07 13 15 19 26 27
     18873.41448     14707.37947         0.00041  20887876.01847  20887874.16948
 -25120008.99548 -19574011.07847         0.00041  20562865.58847  20562863.97948
  -7660325.70607  -5969075.17207  23857910.79707  23857914.37807         0.00001
   -837269.15248   -652415.65445         0.00041  23752600.10345  23752597.81148
   1961396.28048   1528361.24445         0.00041  23172346.36945  23172344.73648
 -15638435.26348 -12185782.14946         0.00041  22533472.96846  22533472.68948
 -23509177.68048 -18318822.33246         0.00041  20977383.61546  20977381.85448
 94 02 05 01 39 00.0000000  0  7 02 07 13 15 19 26 27
     24004.34048     18705.52747         0.00041  20888852.55847  20888851.07548
 -25155087.94948 -19601345.29847         0.00041  20556190.41147  20556188.93348
  -7777359.45107  -6060270.18307  23835639.46607  23835643.14207         0.00001
   -844822.57748   -658301.40544         0.00041  23751158.39144  23751159.51948
   2046134.49748   1594391.02045         0.00041  23188472.60545  23188470.33548
 -15667261.58748 -12208244.21146         0.00041  22527988.52146  22527987.28848
 -23451177.03548 -18273627.02746         0.00041  20988421.33046  20988419.11548
 94 02 05 01 39 30.0000000  0  7 02 07 13 15 19 26 27
     29442.45448     22943.03947         0.00041  20889886.67647  20889885.28348
 -25189548.08848 -19628197.32847         0.00041  20549632.92147  20549631.35548
  -7894115.10507  -6151248.51207  23813421.60307  23813425.15207         0.00001
   -851715.49948   -663672.49745         0.00041  23749852.52545  23749848.45348
   2131270.52448   1660730.77045         0.00041  23204672.54545  23204671.18748
 -15695421.59048 -12230187.06546         0.00041  22522630.31446  22522628.42148
 -23392614.65648 -18227993.99947         0.00041  20999564.33247  20999563.08748
 94 02 05 01 40 00.0000000  0  7 02 07 13 15 19 26 27
     38941.97248     30345.28447         0.00041  20891694.69047  20891693.11048
 -25219635.91948 -19651642.36748         0.00041  20543907.24848  20543905.30348
  -8006836.90408  -6239083.57907  23791971.39608  23791975.02307         0.00001
   -854194.33248   -665604.00845         0.00041  23749380.41845  23749376.77248
   2220543.97148   1730294.47246         0.00041  23221661.42146  23221659.62948
 -15719165.19548 -12248688.55946         0.00041  22518111.86246  22518110.25948
 -23329747.03848 -18179006.23447         0.00041  21011528.08947  21011526.65348
 94 02 05 01 40 30.0000000  0  7 02 07 13 15 19 26 27
     49477.95748     38555.16347         0.00041  20893700.33947  20893698.67248
 -25248375.61448 -19674036.90748         0.00041  20538438.08748  20538436.36648
  -8118548.92208  -6326131.78907  23770713.20408  23770716.85407         0.00001
   -855284.95548   -666453.84145         0.00041  23749170.37445  23749169.75548
   2310911.78248   1800710.96246         0.00041  23238858.74046  23238855.71048
 -15741518.67248 -12266106.83046         0.00041  22513859.00546  22513856.57648
 -23265627.65048 -18129043.07247         0.00041  21023729.34647  21023728.22248
 94 02 05 01 41 00.0000000  0  7 02 07 13 15 19 26 27
     53408.33348     41617.81147         0.00041  20894447.35547  20894445.69248
 -25283414.01249 -19701339.53348         0.00041  20531770.33548  20531768.94349
  -8236899.84708  -6418353.17307  23748191.62508  23748195.26207         0.00001
   -862638.26748   -672183.65145         0.00041  23747770.77945  23747769.69148
   2394709.58448   1866007.96446         0.00041  23254804.18546  23254802.07748
 -15770140.92848 -12288409.86546         0.00041  22508410.43746  22508409.86448
 -23207913.51648 -18084071.02347         0.00041  21034711.62547  21034710.91848
 94 02 05 01 41 30.0000000  0  7 02 07 13 15 19 26 27
     57967.44648     45170.38147         0.00041  20895315.34347  20895313.43148
 -25317505.63149 -19727904.40048         0.00041  20525282.99348  20525281.56349
  -8354647.13708  -6510104.19507  23725784.89308  23725788.68507         0.00001
   -869013.32748   -677151.23945         0.00041  23746559.39645  23746556.34348
   2479160.43048   1931813.79846         0.00041  23270874.98446  23270872.68848
 -15797799.37348 -12309961.88546         0.00041  22503148.24946  22503146.70848
 -23149365.97148 -18038449.55147         0.00041  21045853.19947  21045851.98948
 94 02 05 01 42 00.0000000  0  7 02 07 13 15 19 26 27
     63821.39849     49731.91847         0.00041  20896429.39947  20896427.87249
 -25349968.62148 -19753200.20948         0.00041  20519105.58048  20519103.84148
  -8471107.87808  -6600852.70107  23703623.07208  23703626.85607         0.00001
   -873729.43648   -680826.09145         0.00041  23745662.34045  23745659.39248
   2564943.65548   1998657.89945         0.00041  23287198.79445  23287196.50048
 -15823821.29148 -12330238.68346         0.00041  22498196.66746  22498195.23448
 -23089305.09748 -17991648.86946         0.00041  21057282.34846  21057281.21948
 94 02 05 01 42 30.0000000  0  7 02 07 13 15 19 26 27
     69636.67948     54263.31647         0.00041  20897535.18447  20897533.64448
 -25382147.59049 -19778274.70548         0.00041  20512982.10448  20512980.33649
  -8587612.28908  -6691635.24307  23681453.03308  23681456.78607         0.00001
   -878119.16948   -684246.67744         0.00041  23744825.76344  23744823.55648
   2650727.66748   2065502.60745         0.00041  23303520.51745  23303520.32748
 -15849528.77648 -12350270.47046         0.00041  22493304.33446  22493302.81748
 -23029061.07348 -17944705.47147         0.00041  21068746.44747  21068745.23948
 94 02 05 01 43 00.0000000  0  7 02 07 13 15 19 26 27
     74580.47249     58115.63647         0.00041  20898476.73147  20898475.21849
 -25414867.28249 -19803770.54048         0.00041  20506755.79848  20506754.11749
  -8704976.18008  -6783087.50307  23659119.27508  23659122.70507         0.00001
   -883000.43148   -688050.14445         0.00041  23743898.37445  23743895.44048
   2735705.74648   2131719.27445         0.00041  23319691.68845  23319691.89748
 -15875734.72048 -12370690.66346         0.00041  22488317.11146  22488315.48048
 -22969436.38348 -17898244.67547         0.00041  21080092.95947  21080091.37448
 94 02 05 01 43 30.0000000  0  7 02 07 13 15 19 26 27
     79655.10148     62069.90147         0.00041  20899442.14747  20899440.39348
 -25447112.30348 -19828896.50048         0.00041  20500619.59048  20500617.96748
  -8822181.77808  -6874416.40307  23636815.60908  23636819.36207         0.00001
   -887357.54048   -691445.27345         0.00041  23743067.27945  23743065.27948
   2820901.89048   2198105.88145         0.00041  23335904.82445  23335903.66948
 -15901421.66748 -12390706.44146         0.00041  22483428.07546  22483427.20448
 -22909421.91748 -17851480.16447         0.00041  21091513.24947  21091511.62548
 94 02 05 01 44 00.0000000  0  7 02 07 13 15 19 26 27
     86106.38148     67096.87247         0.00041  20900669.81947  20900668.02248
 -25477637.12449 -19852682.04948         0.00041  20494810.83948  20494809.26149
  -8937981.74308  -6964650.01507  23614779.47708  23614783.03307         0.00001
   -889945.66848   -693462.01944         0.00041  23742574.65744  23742573.64648
   2907570.36348   2265639.76945         0.00041  23352393.94845  23352395.94848
 -15925340.80948 -12409344.71046         0.00041  22478877.54946  22478875.90848
 -22847776.04148 -17803444.42547         0.00041  21103243.87747  21103242.73348
 94 02 05 01 44 30.0000000  0  7 02 07 13 15 19 26 27
     91927.15948     71632.55247         0.00041  20901777.26447  20901775.80148
 -25508441.47348 -19876685.40748         0.00041  20488948.91348  20488947.34548
  -9054378.48508  -7055348.65007  23592629.87908  23592633.54507         0.00001
   -892769.04648   -695662.05145         0.00041  23742040.83445  23742036.00448
   2993701.32648   2332754.78744         0.00041  23368787.65444  23368786.30948
 -15949483.42948 -12428157.11546         0.00041  22474283.26646  22474282.36248
 -22786504.99148 -17755700.74047         0.00041  21114903.38947  21114902.30448
 94 02 05 01 45 00.0000000  0  7 02 07 13 15 19 26 27
     94978.15248     74009.95347         0.00041  20902358.04847  20902356.48348
 -25541644.61848 -19902557.96248         0.00041  20482630.66448  20482628.96948
  -9173504.51108  -7148173.98707  23569960.84808  23569964.35607         0.00001
   -897962.21048   -699708.61744         0.00041  23741052.88944  23741048.48348
   3077160.53948   2397787.97044         0.00041  23384672.11644  23384668.32248
 -15975998.32648 -12448818.05246         0.00041  22469237.94446  22469236.44048
 -22727746.85548 -17709915.17647         0.00041  21126084.44347  21126083.42448
 94 02 05 01 45 30.0000000  0  7 02 07 13 15 19 26 27
    103169.87848     80393.12047         0.00041  20903916.32747  20903915.11848
 -25569356.71348 -19924151.77648         0.00041  20477356.87448  20477355.51648
  -9287464.53608  -7236973.87107  23548275.04408  23548278.60807         0.00001
   -897632.43048   -699451.65544         0.00041  23741113.41844  23741110.04648
   3165830.43948   2466881.45045         0.00041  23401540.95445  23401541.88448
 -15996996.96948 -12465180.60946         0.00041  22465241.08246  22465240.27648
 -22663603.37648 -17659933.24347         0.00041  21138290.85547  21138289.39348
 94 02 05 01 46 00.0000000  0  7 02 07 13 15 19 26 27
    112097.65648     87349.84047         0.00041  20905615.95847  20905614.22348
 -25595997.60348 -19944910.87847         0.00041  20472287.36547  20472285.99048
  -9400676.54408  -7325190.87907  23526731.20708  23526735.16507         0.00001
   -896199.65247   -698335.14044         0.00041  23741387.75944  23741382.72247
   3255285.58048   2536586.68244         0.00041  23418566.60944  23418564.90648
 -16016896.15548 -12480686.43446         0.00041  22461455.23946  22461452.77548
 -22598481.93248 -17609189.26146         0.00041  21150683.55246  21150681.79948
 94 02 05 01 46 30.0000000  0  7 02 07 13 15 19 26 27
    120754.07648     94095.10747         0.00041  20907262.83747  20907261.48148
 -25622594.13448 -19965635.42248         0.00041  20467226.39048  20467224.80948
  -9514160.45708  -7413619.76807  23505135.99208  23505139.52707         0.00001
   -894686.16147   -697155.75844         0.00041  23741674.33444  23741670.26647
   3344496.61848   2606101.72945         0.00041  23435544.01345  23435540.14648
 -16036719.88048 -12496133.45446         0.00041  22457681.87846  22457680.40148
 -22533406.36248 -17558481.02147         0.00041  21163067.11347  21163065.24848
 94 02 05 01 47 00.0000000  0  7 02 07 13 15 19 26 27
    129500.43248    100910.45647         0.00041  20908927.16247  20908925.48648
 -25648798.43748 -19986054.33548         0.00041  20462239.99248  20462238.25148
  -9627562.94708  -7501985.23807  23483556.06408  23483559.40707         0.00001
   -892740.84848   -695639.91144         0.00041  23742044.68144  23742040.59348
   3433811.63348   2675697.88144         0.00041  23452538.23444  23452535.72648
 -16056136.10948 -12511262.97346         0.00041  22453987.24246  22453986.01548
 -22468015.91848 -17507527.42447         0.00041  21175509.85847  21175508.63948
 94 02 05 01 47 30.0000000  0  7 02 07 13 15 19 26 27
    138081.47848    107596.98847         0.00041  20910560.58747  20910559.12748
 -25674871.24248 -20006370.78148         0.00041  20457278.27848  20457276.55748
  -9741131.36008  -7590480.00007  23461944.59608  23461947.89207         0.00001
   -890613.85348   -693982.49544         0.00041  23742450.16744  23742446.65648
   3522972.80448   2745174.05744         0.00041  23469507.13044  23469503.31548
 -16075382.63948 -12526260.23546         0.00041  22450325.23246  22450323.74248
 -22402562.55048 -17456524.79747         0.00041  21187965.57447  21187964.13748
 94 02 05 01 48 00.0000000  0  7 02 07 13 15 19 26 27
    146495.51148    114153.39547         0.00041  20912160.83547  20912159.55448
 -25700792.60048 -20026569.21448         0.00041  20452345.46948  20452343.95848
  -9854843.33408  -7679086.62007  23440305.86108  23440309.04307         0.00001
   -888284.85448   -692167.68544         0.00041  23742890.33544  23742888.97048
   3612008.78048   2814552.72845         0.00041  23486449.44245  23486446.71148
 -16094444.46848 -12541113.58746         0.00041  22446697.38446  22446696.21348
 -22337050.30648 -17405476.28947         0.00041  21200431.47447  21200430.56948
 94 02 05 01 48 30.0000000  0  7 02 07 13 15 19 26 27
    154930.62448    120726.22347         0.00041  20913766.66747  20913765.19448
 -25726358.74848 -20046490.86148         0.00041  20447480.33248  20447478.81248
  -9968487.51308  -7767640.42107  23418679.92708  23418683.50207         0.00001
   -885544.82548   -690032.64244         0.00041  23743417.77644  23743410.62348
   3701132.78848   2884000.01344         0.00041  23503408.72744  23503406.81948
 -16113121.53348 -12555667.12546         0.00041  22443143.66046  22443141.99148
 -22271278.29448 -17354225.35547         0.00041  21212948.01847  21212946.61548
 94 02 05 01 49 00.0000000  0  7 02 07 13 15 19 26 27
    163591.94448    127475.32547         0.00041  20915414.36347  20915412.99448
 -25751346.34648 -20065961.68448         0.00041  20442725.52948  20442723.86948
 -10081832.85608  -7855961.35707  23397111.21008  23397114.59007         0.00001
   -882165.29747   -687399.18344         0.00041  23744056.56744  23744053.42947
   3790574.04148   2953694.47445         0.00041  23520430.97645  23520426.32848
 -16131194.02948 -12569749.55946         0.00041  22439703.50146  22439703.21248
 -22205015.61548 -17302592.09347         0.00041  21225557.14347  21225556.20848
 94 02 05 01 49 30.0000000  0  7 02 07 13 15 19 26 27
    172390.12448    134331.07447         0.00041  20917089.20047  20917087.66448
 -25775834.35448 -20085043.21448         0.00041  20438065.30848  20438063.97848
 -10194960.93808  -7944112.99107  23375583.48408  23375586.81307         0.00001
   -878230.17948   -684332.82044         0.00041  23744805.92144  23744801.99148
   3880251.85448   3023573.31745         0.00041  23537489.12845  23537490.92348
 -16148734.65748 -12583417.57046         0.00041  22436365.98546  22436365.51548
 -22138359.85848 -17250652.52246         0.00041  21238241.39746  21238240.11548
 94 02 05 01 50 00.0000000  0  7 02 07 13 15 19 26 27
    181299.27448    141273.29247         0.00041  20918783.83047  20918782.53548
 -25799850.58748 -20103757.13047         0.00041  20433495.29247  20433493.72548
 -10307906.99108  -8032122.79107  23354090.18308  23354093.43907         0.00001
   -873777.26048   -680862.99145         0.00041  23745651.32845  23745650.18648
   3970131.01148   3093609.02545         0.00041  23554598.59445  23554595.07148
 -16165788.78348 -12596706.46446         0.00041  22433121.92646  22433120.28248
 -22071339.14048 -17198428.57846         0.00041  21250995.09846  21250993.83948
 94 02 05 01 50 30.0000000  0  7 02 07 13 15 19 26 27
    190351.12948    148326.70747         0.00041  20920506.66247  20920505.20548
 -25823366.56548 -20122081.24347         0.00041  20429020.36147  20429018.88448
 -10420650.31908  -8119974.63108  23332635.69808  23332639.07108         0.00001
   -868788.27348   -676975.49444         0.00041  23746595.55544  23746599.18248
   4060207.83648   3163798.75744         0.00041  23571737.52344  23571736.23648
 -16182331.93748 -12609597.21246         0.00041  22429973.48246  22429972.29448
 -22003917.90148 -17145892.53446         0.00041  21263824.70346  21263823.62148
 94 02 05 01 51 00.0000000  0  7 02 07 13 15 19 26 27
    199577.64448    155516.22147         0.00041  20922262.84247  20922261.06548
 -25846358.91548 -20139997.33747         0.00041  20424644.94147  20424643.44848
 -10533175.59008  -8207656.56608  23311222.81408  23311226.38808         0.00001
   -863250.28748   -672660.14645         0.00041  23747656.40445  23747653.01148
   4150486.13948   3234145.48345         0.00041  23588918.53245  23588915.25148
 -16198337.12748 -12622068.77246         0.00041  22426928.28946  22426926.51048
 -21936082.19848 -17093033.53746         0.00041  21276733.27446  21276732.07548
 94 02 05 01 51 30.0000000  0  7 02 07 13 15 19 26 27
    208998.44848    162857.12947         0.00041  20924054.96847  20924053.59048
 -25868799.13348 -20157483.19747         0.00041  20420374.79147  20420373.44848
 -10645467.33108  -8295156.52508  23289854.77408  23289858.02008         0.00001
   -857150.54548   -667907.11144         0.00041  23748810.68044  23748813.54448
   4240968.63848   3304651.28645         0.00041  23606135.39245  23606133.46548
 -16213781.02048 -12634102.95646         0.00041  22423988.09546  22423987.40148
 -21867829.72248 -17039849.78646         0.00041  21289720.86746  21289720.11648
 94 02 05 01 52 00.0000000  0  7 02 07 13 15 19 26 27
    218633.04248    170364.62647         0.00041  20925888.58847  20925887.20548
 -25890670.38148 -20174525.70647         0.00041  20416212.67747  20416211.41248
 -10757497.12108  -8382452.37708  23268536.01608  23268539.22408         0.00001
   -850462.94448   -662695.90744         0.00041  23750093.43544  23750086.56548
   4331672.79248   3375329.86545         0.00041  23623396.31445  23623393.46548
 -16228649.98448 -12645689.15446         0.00041  22421158.70846  22421157.70848
 -21799134.99348 -16986321.42146         0.00041  21302793.81746  21302792.47948
 94 02 05 01 52 30.0000000  0  7 02 07 13 15 19 26 27
    228402.49348    177977.20547         0.00041  20927747.28047  20927745.83248
 -25912061.19348 -20191193.84847         0.00041  20412142.21247  20412140.74148
 -10869336.75208  -8469600.06308  23247253.48708  23247256.87408         0.00001
   -843261.85348   -657084.68445         0.00041  23751460.68845  23751457.06748
   4422534.55948   3446131.24545         0.00041  23640685.65945  23640684.10948
 -16243017.83348 -12656884.87046         0.00041  22418424.77946  22418423.26148
 -21730081.58048 -16932513.55246         0.00041  21315934.36646  21315932.96848
 94 02 05 01 53 00.0000000  0  7 02 07 13 15 19 26 27
    238291.06348    185682.60247         0.00041  20929629.76247  20929627.97048
 -25933001.18948 -20207510.70747         0.00041  20408157.22147  20408155.82148
 -10980990.98308  -8556603.28708  23226006.27808  23226009.78608         0.00001
   -835554.27948   -651078.79745         0.00041  23752924.87245  23752923.26348
   4513570.27348   3517068.14545         0.00041  23658010.09045  23658007.99048
 -16256888.90848 -12667693.48046         0.00041  22415785.48746  22415783.90348
 -21660688.43548 -16878440.96346         0.00041  21329139.32046  21329138.14648
 94 02 05 01 53 30.0000000  0  7 02 07 13 15 19 26 27
    248379.81448    193543.97647         0.00041  20931548.92947  20931547.44348
 -25953415.19148 -20223417.70247         0.00041  20404272.80347  20404271.33248
 -11092354.77308  -8643380.20708  23204814.56708  23204817.89208         0.00001
   -827237.85348   -644598.45645         0.00041  23754508.13345  23754506.24548
   4604883.48447   3588221.30145         0.00041  23675382.42545  23675384.33447
 -16270167.17148 -12678040.17046         0.00041  22413257.86146  22413257.54348
 -21590866.13048 -16824033.96246         0.00041  21342426.68446  21342424.72648
 94 02 05 01 54 00.0000000  0  7 02 07 13 15 19 26 27
    258651.30548    201547.74747         0.00041  20933503.88447  20933502.61448
 -25973343.54448 -20238946.26847         0.00041  20400480.75047  20400479.10548
 -11203444.56508  -8729943.63208  23183674.96408  23183678.04608         0.00001
   -818331.88748   -637658.72745         0.00041  23756202.79045  23756200.40348
   4696467.08647   3659585.12944         0.00041  23692811.98844  23692812.05847
 -16282867.31648 -12687936.36946         0.00041  22410842.44446  22410841.03748
 -21520625.26648 -16769300.81946         0.00041  21355792.24046  21355791.21448
 94 02 05 01 54 30.0000000  0  7 02 07 13 15 19 26 27
    268820.57848    209471.86847         0.00041  20935438.24947  20935436.87848
 -25993075.61048 -20254321.88547         0.00041  20396725.53847  20396724.10448
 -11314547.50608  -8816517.31408  23162532.59608  23162535.62108         0.00001
   -809126.08048   -630485.31845         0.00041  23757955.02445  23757952.33948
   4788035.71847   3730937.35244         0.00041  23710240.65144  23710237.61947
 -16295267.50548 -12697598.83146         0.00041  22408482.49246  22408481.12848
 -21450252.02248 -16714464.51846         0.00041  21369183.62546  21369182.64648
 94 02 05 01 55 00.0000000  0  7 02 07 13 15 19 26 27
    278762.31848    217218.68647         0.00041  20937330.94947  20937329.45448
 -26012713.97948 -20269624.49648         0.00041  20392988.56148  20392987.25448
 -11425779.98108  -8903191.93508  23141365.52008  23141368.90808         0.00001
   -799739.70848   -623171.27445         0.00041  23759736.59545  23759738.46848
   4879443.74148   3802164.38844         0.00041  23727626.86844  23727631.50048
 -16307490.18948 -12707122.98746         0.00041  22406155.91346  22406155.06448
 -21379870.20548 -16659621.53846         0.00041  21382576.95446  21382575.41048
 94 02 05 01 55 30.0000000  0  7 02 07 13 15 19 26 27
    289385.03848    225496.13547         0.00041  20939351.85247  20939350.62748
 -26031340.10648 -20284138.33447         0.00041  20389444.06047  20389442.69048
 -11536244.91508  -8989268.46308  23120344.81408  23120348.23408         0.00001
   -789278.14448   -615019.38146         0.00041  23761730.86846  23761729.21648
   4971568.38448   3873949.81745         0.00041  23745163.78545  23745161.69248
 -16318660.72948 -12715827.28846         0.00041  22404030.36646  22404029.15248
 -21308577.13648 -16604068.49546         0.00041  21396143.42646  21396142.37448
 94 02 05 01 56 00.0000000  0  7 02 07 13 15 19 26 27
    300315.64548    234013.49647         0.00041  20941431.95047  20941430.62948
 -26049310.11848 -20298140.92447         0.00041  20386024.50047  20386022.91648
 -11646327.15308  -9075046.81008  23099397.02108  23099400.17008         0.00001
   -778128.67548   -606331.48345         0.00041  23763851.93245  23763851.22048
   5064018.16948   3945988.62045         0.00041  23762759.90245  23762754.96948
 -16329177.59148 -12724022.23046         0.00041  22402029.22846  22402027.78148
 -21236744.80648 -16548095.24846         0.00041  21409813.02546  21409811.60548
 94 02 05 01 56 30.0000000  0  7 02 07 13 15 19 26 27
    311283.60548    242559.97647         0.00041  20943519.56547  20943517.80448
 -26066872.29648 -20311825.70347         0.00041  20382682.99847  20382680.91948
 -11756294.86008  -9160735.90808  23078470.54308  23078473.97308         0.00001
   -766562.38848   -597318.72744         0.00041  23766051.91744  23766051.79248
   5156517.08947   4018065.60744         0.00041  23780365.42044  23780356.43347
 -16339322.00648 -12731926.93946         0.00041  22400099.20546  22400097.44248
 -21164654.63248 -16491921.08046         0.00041  21423530.75846  21423529.87048
 94 02 05 01 57 00.0000000  0  7 02 07 13 15 19 26 27
    322429.32648    251244.95347         0.00041  20945640.04447  20945638.71248
 -26083881.21348 -20325079.38547         0.00041  20379445.94747  20379444.34248
 -11866003.57008  -9246223.18608  23057593.65608  23057596.98408         0.00001
   -754437.63848   -587870.88145         0.00041  23768360.38545  23768359.03348
   5249205.61247   4090290.50844         0.00041  23798002.40744  23797994.55647
 -16348953.74148 -12739432.17046         0.00041  22398267.16246  22398264.83548
 -21092171.37048 -16435440.63046         0.00041  21437324.56046  21437323.21048
 94 02 05 01 57 30.0000000  0  6 02 07 13 15 26 27
    333806.63948    260110.39447         0.00041  20947805.44547  20947803.87248
 -26100302.48948 -20337875.16047         0.00041  20376320.89547  20376319.43848
 -11975400.77408  -9331467.74808  23036776.28508  23036779.28808         0.00001
   -741704.56848   -577948.95545         0.00041  23770780.81345  23770782.24248
 -16358016.00048 -12746493.64546         0.00041  22396542.17746  22396540.50548
 -21019239.07048 -16378610.27146         0.00041  21451202.96946  21451201.84848
 94 02 05 01 58 00.0000000  0  7 02 07 09 13 15 26 27
    345548.38048    269259.80647         0.00041  20950039.85647  20950038.02148
 -26116009.40448 -20350114.29347         0.00041  20373331.94647  20373330.60048
        -0.94757        -0.71554         0.00051  25351092.00754  25351091.17757
 -12084342.74708  -9416357.56908  23016045.20908  23016048.39308         0.00001
   -728222.27448   -567443.32345         0.00041  23773348.54345  23773347.89248
 -16366342.77548 -12752982.03346         0.00041  22394956.71946  22394956.00348
 -20945725.81148 -16321327.21546         0.00041  21465191.99546  21465190.65448
 94 02 05 01 58 30.0000000  0  7 02 07 09 13 15 26 27
    357562.55048    278621.50447         0.00041  20952325.96047  20952324.12548
 -26131126.81848 -20361894.06647         0.00041  20370455.19947  20370453.52148
    -98790.16447    -76979.26744         0.00041  25332293.65444  25332292.08847
 -12192930.57208  -9500971.43508  22995381.76508  22995384.77508         0.00001
   -714094.85248   -556434.90045         0.00041  23776035.76345  23776036.08748
 -16374022.02848 -12758965.84946         0.00041  22393495.29946  22393494.57348
 -20871742.12948 -16263677.59546         0.00041  21479270.58146  21479269.42748
 94 02 05 01 59 00.0000000  0  7 02 07 09 13 15 26 27
    369598.24048    287999.97347         0.00041  20954616.17947  20954614.66348
 -26145935.99848 -20373433.66047         0.00041  20367636.83847  20367635.45948
   -197773.24847   -154108.89444         0.00041  25313454.20444  25313455.19647
 -12301421.98608  -9585510.17708  22974736.30008  22974739.49708         0.00001
   -699582.78348   -545126.79845         0.00041  23778800.29745  23778797.15848
 -16381313.98048 -12764647.86546         0.00041  22392107.96046  22392106.50948
 -20797540.89548 -16205858.44946         0.00041  21493390.68746  21493389.60448
 94 02 05 01 59 30.0000000  0  7 02 07 09 13 15 26 27
    381756.39348    297473.86347         0.00041  20956929.81747  20956928.17448
 -26160350.08048 -20384665.38647         0.00041  20364894.21247  20364892.82448
   -296857.14047   -231317.04244         0.00041  25294603.92844  25294599.45847
 -12409725.33808  -9669902.35908  22954126.60508  22954129.99508         0.00001
   -684597.32348   -533449.81244         0.00041  23781653.76644  23781649.80848
 -16388126.71948 -12769956.47846         0.00041  22390810.84146  22390810.01848
 -20723033.97348 -16147801.11546         0.00041  21507568.72846  21507567.70848
 94 02 05 02 00 00.0000000  0  7 02 07 09 13 15 26 27
    394065.57248    307065.44947         0.00041  20959272.18747  20959270.43448
 -26174333.49848 -20395561.52447         0.00041  20362233.24447  20362231.95748
   -396011.84047   -308580.35244         0.00041  25275730.01044  25275731.59547
 -12517804.35308  -9754119.73108  22933559.92508  22933563.21108         0.00001
   -669104.88648   -521377.73445         0.00041  23784599.05845  23784597.96648
 -16394426.25648 -12774865.19746         0.00041  22389612.24346  22389611.12648
 -20648192.69048 -16089483.23346         0.00041  21521809.99746  21521809.23048
 94 02 05 02 00 30.0000000  0  7 02 07 09 13 15 26 27
    406546.08448    316790.53447         0.00041  20961647.45747  20961645.61148
 -26187861.58548 -20406102.86647         0.00041  20359658.94347  20359657.52048
   -495221.61947   -385886.57844         0.00041  25256855.45344  25256853.14147
 -12625629.60708  -9838139.37908  22913041.50108  22913044.81408         0.00001
   -653078.86748   -508889.84344         0.00041  23787653.20844  23787646.73648
 -16400190.36748 -12779356.69946         0.00041  22388515.94646  22388514.20948
 -20572991.03648 -16030884.56346         0.00041  21536120.35646  21536119.68248
 94 02 05 02 01 00.0000000  0  7 02 07 09 13 15 26 27
    419141.87048    326605.44847         0.00041  20964043.86547  20964042.38848
 -26200959.70848 -20416309.16847         0.00041  20357166.19647  20357164.87148
   -594535.39648   -463273.91144         0.00041  25237953.78344  25237955.03448
 -12733217.26908  -9921973.87908  22892568.16208  22892571.49508         0.00001
   -636538.38547   -496001.17444         0.00041  23790794.83544  23790794.22747
 -16405453.42948 -12783457.75746         0.00041  22387513.92746  22387513.28648
 -20497454.58748 -15972025.00346         0.00041  21550495.22646  21550494.00448
 94 02 05 02 01 30.0000000  0  7 02 07 09 13 15 26 27
    431910.83048    336555.30147         0.00041  20966473.89047  20966472.28748
 -26213544.95948 -20426115.83047         0.00041  20354771.26047  20354769.97348
   -693860.69148   -540670.18444         0.00041  25219051.86344  25219054.47148
 -12840483.79308 -10005558.14808  22872155.98108  22872159.14008         0.00001
   -619402.74147   -482648.71944         0.00041  23794053.26144  23794055.05447
 -16410122.00348 -12787095.59046         0.00041  22386627.06946  22386625.19448
 -20421509.35548 -15912846.90846         0.00041  21564947.15746  21564945.96348
 94 02 05 02 02 00.0000000  0  7 02 07 09 13 15 26 27
    444790.66948    346591.55347         0.00041  20968924.82647  20968923.35248
 -26225664.14448 -20435559.32147         0.00041  20352465.22947  20352463.82948
   -793247.34048   -618114.23844         0.00041  25200148.34744  25200142.10748
 -12947475.30708 -10088928.10808  22851796.09408  22851799.29508         0.00001
   -601720.80848   -468870.56444         0.00041  23797421.58644  23797420.45548
 -16414257.39248 -12790317.95946         0.00041  22385839.75446  22385838.30248
 -20345204.17948 -15853388.33646         0.00041  21579467.50046  21579466.40848
 94 02 05 02 02 30.0000000  0  7 02 07 09 13 15 26 27
    457848.69748    356766.65947         0.00041  20971409.26247  20971407.94148
 -26237252.06848 -20444588.84647         0.00041  20350260.07547  20350258.59648
   -892623.95648   -695550.49144         0.00041  25181233.22044  25181230.60448
 -13054127.62408 -10172033.75808  22831500.83008  22831503.92108         0.00001
   -583431.84947   -454619.39644         0.00041  23800903.06944  23800899.91647
 -16417805.39348 -12793082.62546         0.00041  22385163.61146  22385162.41248
 -20268481.93748 -15793604.78146         0.00041  21594067.71946  21594066.10148
 94 02 05 02 03 00.0000000  0  7 02 07 09 13 15 26 27
    471066.79148    367066.48647         0.00041  20973924.85047  20973923.32748
 -26248321.28148 -20453214.18147         0.00041  20348153.81547  20348151.94048
   -991991.51348   -772979.68944         0.00041  25162322.92844  25162321.62148
 -13160462.77008 -10254892.23808  22811265.97808  22811269.05808         0.00001
   -564560.52547   -439914.50244         0.00041  23804497.89644  23804490.99947
 -16420801.76848 -12795417.45146         0.00041  22384593.91146  22384591.69348
 -20191364.54748 -15733513.31046         0.00041  21608742.06246  21608740.74548
 94 02 05 02 03 30.0000000  0  7 02 07 09 13 15 26 27
    484424.03548    377474.74847         0.00041  20976466.69047  20976465.43248
 -26258892.18548 -20461451.21947         0.00041  20346141.83447  20346140.57748
  -1091375.45148   -850421.63844         0.00041  25143412.74044  25143410.75348
 -13266528.85408 -10337541.05508  22791082.19908  22791085.30008         0.00001
   -545157.98147   -424795.52544         0.00041  23808185.89744  23808182.95547
 -16423288.53448 -12797355.17146         0.00041  22384119.20746  22384118.02148
 -20113900.76948 -15673151.93246         0.00041  21623483.42846  21623481.64848
 94 02 05 02 04 00.0000000  0  7 02 07 09 13 15 26 27
    497964.10948    388025.47447         0.00041  20979043.11847  20979041.58548
 -26268920.84548 -20469265.73447         0.00041  20344233.62147  20344232.34248
  -1190768.29848   -927870.48145         0.00041  25124500.16945  25124496.85748
 -13372291.06208 -10419953.07508  22770956.19408  22770959.31308         0.00001
   -525192.14647   -409237.73245         0.00041  23811983.92645  23811981.86347
 -16425251.45248 -12798884.71646         0.00041  22383746.35146  22383745.10948
 -20036058.87048 -15612495.91146         0.00041  21638295.65746  21638294.71248
 94 02 05 02 04 30.0000000  0  7 02 07 09 13 15 26 27
    511868.30548    398859.92447         0.00041  20981689.20647  20981687.74548
 -26278226.64448 -20476516.98248         0.00041  20342462.64848  20342461.40948
  -1289989.81848  -1005185.77544         0.00041  25105619.30044  25105615.35248
 -13477563.58408 -10501983.53408  22750923.49008  22750926.52308         0.00001
   -504480.77547   -393098.90444         0.00041  23815933.46944  23815923.47947
 -16426499.36348 -12799857.10046         0.00041  22383510.24646  22383508.53548
 -19957659.60148 -15551405.58046         0.00041  21653214.77246  21653213.78448
 94 02 05 02 05 00.0000000  0  7 02 07 09 13 15 26 27
    525864.14848    409765.78947         0.00041  20984352.71447  20984351.12248
 -26287069.41948 -20483407.43548         0.00041  20340779.72848  20340778.35648
  -1389302.91348  -1082572.51845         0.00041  25086716.70045  25086714.69948
 -13582608.57808 -10583836.68508  22730934.08708  22730937.11008         0.00001
   -483288.76147   -376585.70744         0.00041  23819962.69144  23819956.93647
 -16427301.51748 -12800482.15346         0.00041  22383357.20946  22383356.02448
 -19878966.02148 -15490085.91446         0.00041  21668189.49446  21668188.47248
 94 02 05 02 05 30.0000000  0  7 02 07 09 13 15 26 27
    539905.94348    420707.46547         0.00041  20987024.24047  20987022.88448
 -26295499.43848 -20489976.26148         0.00041  20339175.62048  20339174.29548
  -1488756.77848  -1160068.89745         0.00041  25067792.54045  25067790.04248
 -13687460.92108 -10665539.71908  22710981.39008  22710984.18708         0.00001
   -461653.98748   -359727.42445         0.00041  23824075.19645  23824073.61048
 -16427690.41048 -12800785.17846         0.00041  22383282.91846  22383282.09948
 -19800017.84448 -15428567.85846         0.00041  21683212.87446  21683211.63848
 94 02 05 02 06 00.0000000  0  7 02 07 09 13 15 26 27
    554047.71048    431727.03547         0.00041  20989715.50247  20989714.17248
 -26303484.11849 -20496198.06948         0.00041  20337656.30848  20337655.21349
  -1588286.90748  -1237624.68045         0.00041  25048855.16245  25048850.45448
 -13792051.35808 -10747038.67108  22691078.23608  22691081.13008         0.00001
   -439510.20548   -342472.49645         0.00041  23828290.51745  23828287.93448
 -16427598.00248 -12800713.15946         0.00041  22383300.03546  22383298.83848
 -19720741.07848 -15366793.76546         0.00041  21698298.73946  21698297.54748
 94 02 05 02 06 30.0000000  0  7 02 07 09 13 15 26 27
    568306.28948    442837.62247         0.00041  20992428.87547  20992427.47148
 -26311018.75748 -20502069.19648         0.00041  20336222.41748  20336221.30548
  -1687854.66748  -1315209.84044         0.00041  25029905.88944  25029902.68048
 -13896358.36208 -10828316.76408  22671229.24308  22671232.10308         0.00001
   -416839.27547   -324806.84844         0.00041  23832605.19044  23832600.55247
 -16427000.59748 -12800247.64346         0.00041  22383413.36946  22383412.38948
 -19641102.32448 -15304737.58946         0.00041  21713453.40146  21713452.46648
 94 02 05 02 07 00.0000000  0  7 02 07 09 13 15 26 27
    582727.63048    454075.04547         0.00041  20995172.70247  20995171.41548
 -26318069.04848 -20507562.91148         0.00041  20334880.87748  20334879.48648
  -1787419.54748  -1392792.75345         0.00041  25010959.51845  25010957.10748
 -14000336.85208 -10909338.87408  22651442.81608  22651445.49608         0.00001
   -393598.91647   -306697.43645         0.00041  23837023.56345  23837023.05947
 -16425856.63248 -12799356.23746         0.00041  22383631.77946  22383629.94048
 -19561059.37148 -15242366.45846         0.00041  21728685.53546  21728684.01548
 94 02 05 02 07 30.0000000  0  7 02 07 09 13 15 26 27
    597301.60848    465431.39747         0.00041  20997946.59447  20997945.17148
 -26324673.98848 -20512709.60048         0.00041  20333624.04048  20333622.70848
  -1887021.40248  -1470404.43245         0.00041  24992005.59945  24992003.16348
 -14104011.33708 -10990124.10608  22631714.10608  22631716.94808         0.00001
   -369817.15848   -288166.16244         0.00041  23841553.02244  23841550.27748
 -16424183.63848 -12798052.59746         0.00041  22383950.57846  22383948.20748
 -19480651.76648 -15179711.17446         0.00041  21743986.19346  21743985.34548
 94 02 05 02 08 00.0000000  0  7 02 07 09 13 15 26 27
    612164.12348    477012.58647         0.00041  21000774.72847  21000772.97048
 -26330710.01148 -20517412.97648         0.00041  20332475.25348  20332474.11348
  -1986536.49148  -1547948.62745         0.00041  24973070.31245  24973065.14148
 -14207259.33508 -11070577.01308  22612066.65308  22612069.37808         0.00001
   -345374.15048   -269119.64745         0.00041  23846199.80445  23846201.27948
 -16421861.75448 -12796243.32746         0.00041  22384392.71546  22384390.65048
 -19399759.61148 -15116678.32046         0.00041  21759380.16646  21759378.71448
 94 02 05 02 08 30.0000000  0  8 02 04 07 09 13 15 26 27
    627221.16948    488745.35447         0.00041  21003639.83547  21003638.36548
        -0.23957         0.58554         0.00051  24629401.30954  24629399.62557
 -26336263.95249 -20521740.70648         0.00041  20331418.22348  20331417.26449
  -2086067.58248  -1625505.25845         0.00041  24954127.67745  24954123.93748
 -14310178.28508 -11150773.52508  22592481.74108  22592484.49808         0.00001
   -320370.63448   -249636.42044         0.00041  23850961.65544  23850959.40948
 -16418999.36548 -12794012.87646         0.00041  22384936.41146  22384935.59948
 -19318504.23248 -15053362.44046         0.00041  21774841.74946  21774840.83148
 94 02 05 02 09 00.0000000  0  8 02 04 07 09 13 15 26 27
    642411.52848    500582.00347         0.00041  21006530.54147  21006529.14448
    -99496.57047    -77528.85344         0.00041  24610464.19244  24610467.95947
 -26341394.42248 -20525738.45748         0.00041  20330441.99248  20330440.67648
  -2185683.05148  -1703127.68045         0.00041  24935169.35245  24935168.48048
 -14412833.84608 -11230764.79308  22572946.96808  22572949.76108         0.00001
   -294875.68648   -229770.17644         0.00041  23855810.59244  23855810.97148
 -16415659.62948 -12791410.49046         0.00041  22385573.13046  22385571.36648
 -19236971.25848 -14989830.24646         0.00041  21790357.44746  21790355.87148
 94 02 05 02 09 30.0000000  0  8 02 04 07 09 13 15 26 27
    657775.44548    512553.89547         0.00041  21009453.98247  21009452.69648
   -199092.90947   -155136.34444         0.00041  24591515.77944  24591513.48447
 -26346056.37148 -20529371.13148         0.00041  20329555.06748  20329553.45548
  -2285334.16848  -1780777.89045         0.00041  24916208.53145  24916206.44248
 -14515184.62808 -11310518.57408  22553470.27208  22553472.92408         0.00001
   -268850.68248   -209490.87845         0.00041  23860768.03445  23860762.72548
 -16411804.13448 -12788406.19746         0.00041  22386306.52646  22386304.66548
 -19155106.59848 -14926039.60346         0.00041  21805935.81546  21805934.28948
 94 02 05 02 10 00.0000000  0  8 02 04 07 09 13 15 26 27
    673290.68748    524643.69947         0.00041  21012406.70047  21012405.12248
   -298806.35948   -232835.00244         0.00041  24572535.77144  24572539.72648
 -26350241.88048 -20532632.55148         0.00041  20328758.41948  20328757.20848
  -2385003.22448  -1858442.09845         0.00041  24897245.34145  24897240.61948
 -14617228.08108 -11390032.86908  22534051.89208  22534054.53408         0.00001
   -242296.66048   -188799.45844         0.00041  23865815.24244  23865816.89248
 -16407429.86548 -12784997.66946         0.00041  22387137.93746  22387136.29048
 -19072897.58748 -14861980.63146         0.00041  21821579.62146  21821578.13048
 94 02 05 02 10 30.0000000  0  8 02 04 07 09 13 15 26 27
    688961.56648    536854.78147         0.00041  21015388.81847  21015387.14548
   -398629.88648   -310619.48644         0.00041  24553543.57644  24553542.77648
 -26353931.64448 -20535507.67148         0.00041  20328056.29648  20328055.24748
  -2484673.33848  -1936107.14545         0.00041  24878279.30645  24878274.70848
 -14718945.15008 -11469292.87008  22514695.70108  22514698.15908         0.00001
   -215197.66448   -167683.38744         0.00041  23870973.91744  23870973.13048
 -16402531.75048 -12781180.95246         0.00041  22388069.14146  22388067.75848
 -18990332.06948 -14797643.85746         0.00041  21837291.33546  21837290.05248
 94 02 05 02 11 00.0000000  0  8 02 04 07 09 13 15 26 27
    704665.03748    549091.25547         0.00041  21018376.96947  21018375.56748
   -498673.54048   -388575.44145         0.00041  24534507.61145  24534506.24648
 -26357241.68848 -20538086.90948         0.00041  20327426.42948  20327425.06248
  -2584458.07248  -2013861.55445         0.00041  24859285.38345  24859285.41048
 -14820454.44008 -11548390.95508  22495379.04508  22495381.71608         0.00001
   -187676.06548   -146237.98044         0.00041  23876212.98244  23876209.71048
 -16397228.72948 -12777048.72146         0.00041  22389078.52846  22389077.24548
 -18907518.84748 -14733114.06646         0.00041  21853050.01546  21853048.64348
 94 02 05 02 11 30.0000000  0  8 02 04 07 09 13 15 26 27
    720699.74448    561585.83747         0.00041  21021428.21947  21021426.74748
   -598629.52948   -466463.15445         0.00041  24515485.50645  24515484.63548
 -26359865.38248 -20540131.32948         0.00041  20326927.00848  20326925.62248
  -2684047.29647  -2091463.54145         0.00041  24840338.76445  24840332.45247
 -14921448.56208 -11627087.62208  22476160.59508  22476163.29108         0.00001
   -159427.00548   -124225.70544         0.00041  23881588.24744  23881585.84148
 -16391221.11448 -12772367.46346         0.00041  22390222.70146  22390221.04748
 -18824159.35048 -14668158.61046         0.00041  21868912.82746  21868911.35248
 94 02 05 02 12 00.0000000  0  8 02 04 07 09 13 15 26 27
    736863.92648    574181.31547         0.00041  21024503.91847  21024502.76648
   -698691.16648   -544433.19145         0.00041  24496445.68545  24496443.23148
 -26362003.42148 -20541797.31548         0.00041  20326520.04248  20326519.11148
  -2783636.20347  -2169065.26944         0.00041  24821383.64344  24821382.38847
 -15022121.56408 -11705534.07208  22457003.02208  22457005.85408         0.00001
   -130647.95048   -101800.47844         0.00041  23887063.92544  23887062.00948
 -16384714.57248 -12767297.43446         0.00041  22391460.56146  22391459.46148
 -18740474.36748 -14602949.53646         0.00041  21884836.98746  21884836.01748
 94 02 05 02 12 30.0000000  0  8 02 04 07 09 13 15 26 27
    753199.07448    586910.00347         0.00041  21027612.77147  21027611.15048
   -798806.83748   -622445.24445         0.00041  24477393.69945  24477392.43848
 -26363639.73448 -20543072.34148         0.00041  20326208.64948  20326207.67948
  -2883206.23847  -2246652.24344         0.00041  24802433.07344  24802434.10247
 -15122440.64708 -11783704.73808  22437913.07508  22437915.79808         0.00001
   -101309.49948    -78939.34445         0.00041  23892645.54945  23892644.89348
 -16377692.07348 -12761825.34846         0.00041  22392796.76746  22392796.12648
 -18656440.34248 -14537468.47546         0.00041  21900828.18246  21900827.19848
 94 02 05 02 13 00.0000000  0  8 02 04 07 09 13 15 26 27
    769562.12048    599660.43647         0.00041  21030726.24847  21030724.90148
   -899119.44748   -700610.89345         0.00041  24458306.05245  24458302.68048
 -26364926.47848 -20544074.97147         0.00041  20325964.14747  20325962.75148
  -2982903.55347  -2324338.36444         0.00041  24783463.17044  24783462.87547
 -15222548.07508 -11861710.46908  22418863.08308  22418865.76408         0.00001
    -71556.90048    -55755.41544         0.00041  23898304.70844  23898307.03248
 -16370281.33948 -12756050.74146         0.00041  22394206.33446  22394205.57648
 -18572206.36748 -14471831.60046         0.00041  21916857.91646  21916856.14548
 94 02 05 02 13 30.0000000  0  8 02 04 07 09 13 15 26 27
    785910.03048    612399.07447         0.00041  21033837.19647  21033835.88148
   -999679.18648   -778969.06945         0.00041  24439169.41645  24439167.54348
 -26365925.67948 -20544853.55147         0.00041  20325773.86347  20325772.29048
  -3082772.17147  -2402157.92845         0.00041  24764456.57945  24764457.93747
 -15322476.73708 -11939576.90808  22399847.28608  22399849.87108         0.00001
    -41426.48548    -32277.25044         0.00041  23904040.36444  23904040.63948
 -16362521.65048 -12750004.23546         0.00041  22395682.85946  22395682.18248
 -18487818.54648 -14406074.85246         0.00041  21932916.20746  21932915.22848
 94 02 05 02 14 00.0000000  0  8 02 04 07 09 13 15 26 27
    802604.09248    625407.43747         0.00041  21037014.14747  21037012.66648
  -1100122.29448   -857236.32645         0.00041  24420056.62845  24420053.07248
 -26366300.86548 -20545145.88948         0.00041  20325702.50048  20325701.10948
  -3182466.61047  -2479841.76345         0.00041  24745487.82345  24745486.54647
 -15421867.84908 -12017024.48508  22380933.75608  22380936.40908         0.00001
    -10563.06448     -8227.81245         0.00041  23909918.86945  23909913.89648
 -16354056.02448 -12743407.65346         0.00041  22397294.46846  22397293.08748
 -18402908.36448 -14339911.09046         0.00041  21949074.31146  21949072.99148
 94 02 05 02 14 30.0000000  0  8 02 04 07 09 13 15 26 27
    819867.66948    638859.57947         0.00041  21040299.49347  21040297.94548
  -1200227.19648   -935240.07145         0.00041  24401004.99845  24401003.98048
 -26365835.70948 -20544783.41148         0.00041  20325790.96448  20325789.56848
  -3281781.58747  -2557229.94644         0.00041  24726588.60844  24726587.39447
 -15520507.21808 -12093886.27208  22362163.23708  22362165.78008         0.00001
     21244.40448     16557.27344         0.00041  23915971.19244  23915966.13548
 -16344666.52148 -12736091.16046         0.00041  22399081.29746  22399080.55348
 -18317250.88648 -14273165.01846         0.00041  21965373.85646  21965372.71948
 94 02 05 02 15 00.0000000  0  8 02 04 07 09 13 15 26 27
    837358.53348    652488.82847         0.00041  21043627.47247  21043626.16348
  -1300348.28448  -1013256.40745         0.00041  24381954.76245  24381952.03348
 -26364868.23448 -20544029.51348         0.00041  20325974.89248  20325973.59948
  -3381054.30847  -2634585.18544         0.00041  24707696.89344  24707698.17147
 -15618736.40108 -12170428.43608  22343470.81008  22343473.48308         0.00001
     53650.80348     41808.96144         0.00041  23922134.32044  23922132.51848
 -16334698.37748 -12728323.77246         0.00041  22400978.24746  22400976.97748
 -18231185.98748 -14206101.46746         0.00041  21981752.02146  21981750.32448
 94 02 05 02 15 30.0000000  0  8 02 04 07 09 13 15 26 27
    854777.78348    666062.27847         0.00041  21046942.32647  21046940.98148
  -1400778.29048  -1091513.43645         0.00041  24362843.36445  24362840.56448
 -26363693.21248 -20543113.89848         0.00041  20326198.44848  20326197.16348
  -3480581.75047  -2712138.89644         0.00041  24688757.37444  24688757.15147
 -15716854.15908 -12246883.77808  22324799.58608  22324802.26208         0.00001
     86354.11448     67292.12345         0.00041  23928358.66745  23928355.88148
 -16324453.42648 -12720340.70146         0.00041  22402927.21946  22402926.07948
 -18145007.15648 -14138949.13746         0.00041  21998151.91046  21998149.90648
 94 02 05 02 16 00.0000000  0  8 02 04 07 09 13 15 26 27
    872351.32248    679755.95247         0.00041  21050286.79347  21050285.09048
  -1501275.85448  -1169823.12045         0.00041  24343718.60145  24343715.46248
 -26362058.28048 -20541839.91048         0.00041  20326509.67748  20326508.32048
  -3580132.65947  -2789710.85544         0.00041  24669819.24044  24669813.87947
 -15814636.37908 -12323077.65808  22306192.24008  22306194.83208         0.00001
    119575.01148     93178.51945         0.00041  23934677.71845  23934677.27748
 -16313704.60648 -12711964.99346         0.00041  22404972.88846  22404971.72948
 -18058479.41148 -14071524.91946         0.00041  22014616.63846  22014615.64048
 94 02 05 02 16 30.0000000  0  8 02 04 07 09 13 15 26 27
    889955.85248    693473.77547         0.00041  21053636.60747  21053635.11848
  -1601949.70948  -1248270.18245         0.00041  24324560.68245  24324558.69148
 -26360051.43948 -20540276.12148         0.00041  20326891.35648  20326890.16248
  -3679812.55447  -2867383.38044         0.00041  24650852.82544  24650845.99147
 -15912189.81908 -12399093.25908  22287628.43108  22287630.96808         0.00001
    153203.32748    119382.40544         0.00041  23941076.39444  23941076.72048
 -16302568.59748 -12703287.58946         0.00041  22407092.93946  22407090.99948
 -17971722.20848 -14003921.91646         0.00041  22031126.41346  22031125.15148
 94 02 05 02 17 00.0000000  0  8 02 04 07 09 13 15 26 27
    907816.68148    707391.30847         0.00041  21057034.88447  21057033.79648
  -1702547.87748  -1326658.28045         0.00041  24305418.52745  24305416.63448
 -26357424.43448 -20538229.08948         0.00041  20327391.37448  20327390.14748
  -3779357.63247  -2944950.84044         0.00041  24631903.75344  24631901.65547
 -16009267.63308 -12474738.25508  22269154.92108  22269157.46808         0.00001
    187482.86848    146093.74844         0.00041  23947602.48044  23947600.18148
 -16290801.40748 -12694118.35346         0.00041  22409332.22146  22409330.56748
 -17884500.21648 -13935956.74746         0.00041  22047724.19246  22047722.70048
 94 02 05 02 17 30.0000000  0  8 02 04 07 09 13 15 26 27
    925828.60348    721426.57747         0.00041  21060462.70047  21060461.27148
  -1803155.40748  -1405053.64045         0.00041  24286273.30245  24286269.98148
 -26354269.39848 -20535770.60548         0.00041  20327991.70948  20327990.55148
  -3878859.86247  -3022484.98944         0.00041  24612972.36344  24612967.46847
 -16105965.05008 -12550086.83108  22250754.04908  22250756.57508         0.00001
    222315.36948    173235.93944         0.00041  23954224.94444  23954228.59848
 -16278504.48848 -12684536.34346         0.00041  22411671.53846  22411670.65748
 -17796925.58948 -13867716.78546         0.00041  22064389.58246  22064387.25548
 94 02 05 02 18 00.0000000  0  8 02 04 07 09 13 15 26 27
    943896.78548    735505.68747         0.00041  21063901.35747  21063899.77148
  -1903873.30748  -1483535.01945         0.00041  24267108.39345  24267104.34248
 -26350684.41448 -20532977.09848         0.00041  20328673.79648  20328672.66848
  -3978398.01047  -3100047.12045         0.00041  24594028.59445  24594027.39447
 -16202368.76608 -12625206.55808  22232409.03608  22232411.35408         0.00001
    257610.21047    200738.42844         0.00041  23960947.65944  23960944.29647
 -16265787.04848 -12674626.65746         0.00041  22414091.82946  22414091.14348
 -17709101.65148 -13799282.55046         0.00041  22081101.25446  22081099.93548
 94 02 05 02 18 30.0000000  0  8 02 04 07 09 13 15 26 27
    962138.86748    749720.30047         0.00041  21067371.97947  21067370.86548
  -2004611.19648  -1562031.95345         0.00041  24247934.43745  24247935.08448
 -26346590.22648 -20529786.80948         0.00041  20329452.98348  20329451.74348
  -4077867.40647  -3177555.62144         0.00041  24575103.22544  24575096.23647
 -16298373.55508 -12700015.43208  22214139.93308  22214142.19108         0.00001
    293468.99447    228680.39145         0.00041  23967769.01645  23967768.26547
 -16252550.76548 -12664312.65846         0.00041  22416610.99046  22416609.67648
 -17620947.33348 -13730590.88046         0.00041  22097876.15446  22097875.31748
 94 02 05 02 19 00.0000000  0  8 02 04 07 09 13 15 26 27
    980584.35848    764093.41647         0.00041  21070882.33447  21070881.04448
  -2105354.44348  -1640533.04045         0.00041  24228764.26045  24228763.12248
 -26341995.70548 -20526206.65248         0.00041  20330327.55548  20330326.00848
  -4177251.31447  -3254997.53944         0.00041  24556188.47044  24556184.84447
 -16393967.19908 -12774503.94008  22195948.99908  22195951.33908         0.00001
    329900.44647    257068.54344         0.00041  23974702.33144  23974700.82747
 -16238774.04248 -12653577.56246         0.00041  22419232.00546  22419230.89948
 -17532456.36748 -13661636.89246         0.00041  22114715.14946  22114714.59548
 94 02 05 02 19 30.0000000  0  8 02 04 07 09 13 15 26 27
    999197.97948    778597.54447         0.00041  21074424.09047  21074423.00648
  -2206159.54248  -1719082.33245         0.00041  24209578.72545  24209580.17948
 -26336970.26148 -20522290.70748         0.00041  20331283.53648  20331282.12948
  -4276611.48547  -3332420.95144         0.00041  24537277.81244  24537277.27047
 -16489195.14108 -12848707.47708  22177827.71908  22177830.03708         0.00001
    366855.90647    285864.96444         0.00041  23981736.80444  23981732.52347
 -16224491.91848 -12642448.62046         0.00041  22421949.67546  22421948.52448
 -17443677.89548 -13592458.87246         0.00041  22131609.25546  22131608.46448
 94 02 05 02 20 00.0000000  0  8 02 04 07 09 13 15 26 27
   1017870.12948    793147.29147         0.00041  21077977.89047  21077976.38148
  -2307139.83348  -1797768.11244         0.00041  24190362.95444  24190365.23948
 -26331643.06748 -20518139.63147         0.00041  20332297.14247  20332295.76948
  -4376071.69647  -3409922.37844         0.00041  24518357.48644  24518350.43147
 -16584171.36308 -12922714.88208  22159754.26108  22159756.66408         0.00001
    404217.98447    314978.29044         0.00041  23988844.07544  23988843.02947
 -16209803.64948 -12631003.20846         0.00041  22424745.47446  22424743.43648
 -17354714.33948 -13523136.62746         0.00041  22148538.67746  22148537.50948
 94 02 05 02 20 30.0000000  0  8 02 04 07 09 13 15 26 27
   1036807.68848    807903.83047         0.00041  21081581.62947  21081580.05248
  -2408061.16048  -1876407.92645         0.00041  24171164.99545  24171160.07748
 -26325807.88448 -20513592.72748         0.00041  20333407.60448  20333406.44548
  -4475442.15447  -3487353.81344         0.00041  24499442.07544  24499439.85447
 -16678691.95208 -12996367.25408  22141767.36708  22141769.95808         0.00001
    442187.15047    344564.79644         0.00041  23996075.37844  23996068.55547
 -16194491.60848 -12619071.75146         0.00041  22427659.24646  22427657.99348
 -17265355.71448 -13453506.53146         0.00041  22165542.59146  22165542.16248
 94 02 05 02 21 00.0000000  0  8 02 04 07 09 13 15 26 27
   1056115.67448    822949.02547         0.00041  21085255.37347  21085254.34348
  -2508785.09048  -1954893.98145         0.00041  24151993.07445  24151991.96248
 -26319320.30248 -20508537.45248         0.00041  20334642.34448  20334641.17748
  -4574594.36647  -3564615.28844         0.00041  24480576.89644  24480571.91347
 -16772625.13308 -13069561.89408  22123892.47008  22123895.00708         0.00001
    480891.49547    374723.90744         0.00041  24003434.72444  24003433.84747
 -16178431.45348 -12606557.35546         0.00041  22430715.24946  22430714.10848
 -17175457.20548 -13383455.75946         0.00041  22182649.80746  22182649.20048
 94 02 05 02 21 30.0000000  0  8 02 04 07 09 13 15 26 27
   1075434.82148    838002.91647         0.00041  21088931.77147  21088930.49048
  -2609661.13348  -2033498.51445         0.00041  24132797.61345  24132797.40848
 -26312502.67148 -20503225.00148         0.00041  20335939.55848  20335938.40748
  -4673882.13247  -3641982.28544         0.00041  24461680.46444  24461679.10847
 -16866312.25708 -13142564.81208  22106064.39508  22106066.86508         0.00001
    519986.00147    405187.17244         0.00041  24010875.07944  24010872.96447
 -16161985.71348 -12593742.48946         0.00041  22433844.51846  22433843.60948
 -17085356.34648 -13313247.31446         0.00041  22199795.65646  22199794.89148
 94 02 05 02 22 00.0000000  0  8 02 04 07 09 13 15 26 27
   1094895.38648    853167.00647         0.00041  21092635.20847  21092633.68248
  -2710547.74748  -2112111.32545         0.00041  24113600.14045  24113599.08148
 -26305202.21348 -20497536.31547         0.00041  20337328.41547  20337327.33748
  -4773171.32847  -3719350.40144         0.00041  24442788.09644  24442785.07747
 -16959619.53208 -13215271.74308  22088308.77308  22088311.07308         0.00001
    559601.12147    436056.14044         0.00041  24018414.28744  24018411.03047
 -16145054.98148 -12580549.68446         0.00041  22437065.66846  22437064.56948
 -16994928.92448 -13242784.39346         0.00041  22217003.44846  22217002.28048
 94 02 05 02 22 30.0000000  0  8 02 04 07 09 13 15 26 27
   1114375.81848    868346.57347         0.00041  21096342.13447  21096340.95348
  -2811574.52848  -2190833.32845         0.00041  24094374.75945  24094373.40348
 -26297538.48848 -20491564.56948         0.00041  20338786.95248  20338785.94448
  -4872574.43347  -3796807.32544         0.00041  24423871.87644  24423868.85847
 -17052666.86108 -13287776.11108  22070602.48308  22070604.74308         0.00001
    599613.59447    467234.72744         0.00041  24026028.48944  24026025.11847
 -16127782.61848 -12567090.71446         0.00041  22440352.44846  22440351.06548
 -16904312.01348 -13172173.80846         0.00041  22234247.31046  22234246.14148
 94 02 05 02 23 00.0000000  0  8 02 04 07 09 13 15 26 27
   1134121.37848    883732.73747         0.00041  21100099.25147  21100097.81948
  -2912515.59648  -2269488.55645         0.00041  24075165.25945  24075164.62548
 -26289276.84648 -20485126.91048         0.00041  20340359.11748  20340358.19448
  -4971843.16947  -3874159.50444         0.00041  24404983.14644  24404978.65447
 -17145208.93808 -13359886.79408  22052992.23108  22052994.49708         0.00001
    640265.19447    498911.28944         0.00041  24033764.25444  24033761.70647
 -16109940.67848 -12553187.88646         0.00041  22443748.18346  22443746.38948
 -16813259.71748 -13101223.98746         0.00041  22251574.61946  22251572.95548
 94 02 05 02 23 30.0000000  0  8 02 04 07 09 13 15 26 27
   1154152.84548    899341.68647         0.00041  21103911.50147  21103910.30348
  -3013361.56748  -2348069.68045         0.00041  24055976.30245  24055974.95748
 -26280434.39448 -20478236.66948         0.00041  20342041.96848  20342040.67548
  -5070973.30148  -3951403.78644         0.00041  24386116.59744  24386116.80848
 -17237243.23908 -13431601.80508  22035478.55608  22035480.91908         0.00001
    681554.76747    531084.96744         0.00041  24041623.85644  24041619.24647
 -16091522.40348 -12538835.98146         0.00041  22447252.45446  22447251.86648
 -16721773.58548 -13029936.10346         0.00041  22268983.66946  22268982.36348
 94 02 05 02 24 00.0000000  0  8 02 04 07 09 13 15 26 27
   1174372.82148    915097.52547         0.00041  21107759.28247  21107757.83148
  -3114215.95448  -2426657.37345         0.00041  24036784.90445  24036781.99748
 -26271140.24548 -20470994.46348         0.00041  20343810.53248  20343809.14048
  -5170044.83747  -4028602.27544         0.00041  24367266.06244  24367262.29747
 -17328875.43708 -13503003.48308  22018041.51908  22018043.86808         0.00001
    723372.98147    563670.62244         0.00041  24049572.95044  24049577.09847
 -16072622.15948 -12524108.51746         0.00041  22450849.80346  22450848.84648
 -16629962.35448 -12958394.89946         0.00041  22286453.84346  22286453.37748
 94 02 05 02 24 30.0000000  0  8 02 04 07 09 13 15 26 27
   1194701.60748    930938.14347         0.00041  21111627.31747  21111626.26548
  -3215150.13548  -2505307.22845         0.00041  24017575.35245  24017574.69448
 -26261483.10648 -20463469.40348         0.00041  20345648.36848  20345647.12848
  -5269132.65048  -4105813.49744         0.00041  24348413.80544  24348407.85448
 -17420178.49808 -13574148.69708  22000667.11608  22000669.47408         0.00001
    765643.24447    596608.53344         0.00041  24057618.86544  24057620.80847
 -16053287.82848 -12509042.79046         0.00041  22454529.30746  22454528.24548
 -16537886.75948 -12886647.68446         0.00041  22303975.09846  22303974.65948
 94 02 05 02 25 00.0000000  0  7 02 04 07 09 13 26 27
   1215215.92548    946923.34647         0.00041  21115531.04547  21115530.05248
  -3316063.95548  -2583941.22645         0.00041  23998375.71945  23998372.54748
 -26251372.70748 -20455591.15848         0.00041  20347572.02948  20347570.98748
  -5368147.17547  -4182967.63044         0.00041  24329565.57544  24329563.58247
 -17511064.52408 -13644968.94308  21983372.00708  21983374.36708         0.00001
 -16033418.25648 -12493559.98746         0.00041  22458309.53046  22458308.99548
 -16445464.10448 -12814630.03546         0.00041  22321563.67846  22321562.35548
 94 02 05 02 25 30.0000000  0  8 02 04 07 09 12 13 26 27
   1235856.87648    963007.21847         0.00041  21119458.90647  21119457.44448
  -3417010.56148  -2662600.80245         0.00041  23979162.87845  23979162.64548
 -26240862.52048 -20447401.38848         0.00041  20349572.18448  20349570.95748
  -5467137.50447  -4260102.88244         0.00041  24310730.66844  24310726.03647
         0.41217         0.24017  25319764.38817  25319768.03217         0.00011
 -17601587.48108 -13715506.28508  21966145.97508  21966148.47908         0.00001
 -16013066.41748 -12477701.48146         0.00041  22462182.17046  22462180.62848
 -16352774.09748 -12742404.07946         0.00041  22339201.33446  22339200.74148
 94 02 05 02 26 00.0000000  0  8 02 04 07 09 12 13 26 27
   1256714.05848    979259.57147         0.00041  21123428.32047  21123426.92448
  -3517899.97948  -2741215.77045         0.00041  23959965.56445  23959963.79448
 -26229858.58248 -20438826.87847         0.00041  20351666.08547  20351665.12748
  -5566023.03847  -4337156.52144         0.00041  24291908.26844  24291909.22247
    -88393.40407    -68877.94407  25302943.53707  25302947.31307         0.00001
 -17691651.34108 -13785685.88608  21949007.47808  21949009.79508         0.00001
 -15992143.99548 -12461398.21546         0.00041  22466164.13246  22466162.36348
 -16259743.51048 -12669912.71546         0.00041  22356903.74846  22356903.70348
 94 02 05 02 26 30.0000000  0  8 02 04 07 09 12 13 26 27
   1277759.45548    995658.58947         0.00041  21127432.86647  21127431.61848
  -3618752.24648  -2819801.85045         0.00041  23940774.85545  23940772.63448
 -26218386.36548 -20429887.48548         0.00041  20353849.03648  20353848.16248
  -5664852.97547  -4414166.77644         0.00041  24273104.22444  24273102.73647
   -176847.35207   -137803.00207  25286111.34407  25286114.82107         0.00001
 -17781279.36308 -13855525.87608  21931951.77608  21931954.18508         0.00001
 -15970684.59248 -12444676.60146         0.00041  22470248.35746  22470246.81248
 -16166419.52748 -12597192.72846         0.00041  22374662.83746  22374661.79848
 94 02 05 02 27 00.0000000  0  8 02 04 07 09 12 13 26 27
   1299059.44948   1012255.99347         0.00041  21131486.04047  21131484.78948
  -3719524.77048  -2898325.77245         0.00041  23921595.82845  23921595.82748
 -26206387.86648 -20420537.99548         0.00041  20356132.20948  20356131.00648
  -5763567.00047  -4491086.78845         0.00041  24254318.61445  24254317.56047
   -265306.99107   -206732.50107  25269277.98207  25269281.28207         0.00001
 -17870415.84108 -13924982.83308  21914989.68908  21914992.07108         0.00001
 -15948662.06348 -12427516.18346         0.00041  22474438.91546  22474438.11848
 -16072762.52948 -12524213.26846         0.00041  22392486.39246  22392484.45948
 94 02 05 02 27 30.0000000  0  8 02 04 07 09 12 13 26 27
   1320408.58448   1028891.68747         0.00041  21135548.91147  21135547.49148
  -3820444.23748  -2976964.21145         0.00041  23902391.49545  23902391.28148
 -26194077.38648 -20410945.40648         0.00041  20358474.93448  20358473.62248
  -5862390.84648  -4568092.34944         0.00041  24235518.28544  24235512.82548
   -353980.49207   -275828.66907  25252403.73507  25252407.27407         0.00001
 -17959267.40708 -13994217.77908  21898081.78808  21898084.12608         0.00001
 -15926293.23848 -12410085.93146         0.00041  22478695.47346  22478694.22548
 -15978972.80048 -12451130.38546         0.00041  22410334.77946  22410332.56248
 94 02 05 02 28 00.0000000  0  8 02 04 07 09 12 13 26 27
   1341932.86748   1045663.86347         0.00041  21139644.61647  21139643.17848
  -3921372.98148  -3055609.88145         0.00041  23883188.83145  23883184.94948
 -26181315.42248 -20401001.01248         0.00041  20360903.73048  20360902.51248
  -5961187.89548  -4645076.96644         0.00041  24216709.37444  24216712.24448
   -442731.03407   -344984.87807  25235515.09007  25235518.68107         0.00001
 -18047696.10508 -14063123.22508  21881254.33208  21881256.67608         0.00001
 -15903443.73848 -12392281.12146         0.00041  22483043.26646  22483041.98348
 -15884895.81948 -12377823.64846         0.00041  22428236.01546  22428234.39248
 94 02 05 02 28 30.0000000  0  8 02 04 07 09 12 13 26 27
   1363663.48848   1062596.81647         0.00041  21143779.84747  21143778.52748
  -4022268.50048  -3134229.68145         0.00041  23863988.58645  23863985.19348
 -26168045.17248 -20390660.55148         0.00041  20363428.79548  20363427.60548
  -6059888.23748  -4721986.28044         0.00041  24197933.25744  24197929.50148
   -531515.65207   -414167.64307  25218619.99507  25218623.48507         0.00001
 -18135657.45308 -14131664.49508  21864515.84608  21864518.08308         0.00001
 -15880073.50148 -12374070.53746         0.00041  22487490.19046  22487488.96748
 -15790466.72448 -12304242.53946         0.00041  22446204.62546  22446203.81448
 94 02 05 02 29 00.0000000  0  8 02 04 07 09 12 13 26 27
   1385582.00448   1079676.18947         0.00041  21147950.94547  21147949.58948
  -4123139.01148  -3212829.99145         0.00041  23844790.38645  23844789.34648
 -26154276.48048 -20379931.69048         0.00041  20366048.94048  20366047.51548
  -6158493.85448  -4798821.75444         0.00041  24179167.95944  24179167.75948
   -620347.25307   -483387.01207  25201715.86807  25201719.41707         0.00001
 -18223163.03508 -14199850.62908  21847864.09108  21847866.29108         0.00001
 -15856193.58648 -12355462.80846         0.00041  22492034.19246  22492033.65748
 -15695676.92948 -12230380.36646         0.00041  22464242.09346  22464241.84248
 94 02 05 02 29 30.0000000  0  8 02 04 07 09 12 13 26 27
   1407649.26548   1096871.46447         0.00041  21152150.13247  21152148.69248
  -4223995.92248  -3291419.75245         0.00041  23825597.92645  23825596.65948
 -26140055.38248 -20368850.31048         0.00041  20368754.94048  20368753.69248
  -6257028.79948  -4875602.17644         0.00041  24160417.50144  24160416.09048
   -709260.17707   -552669.72207  25184796.13407  25184799.70207         0.00001
 -18310245.95908 -14267707.42008  21831292.76308  21831294.90108         0.00001
 -15831827.02848 -12336475.87346         0.00041  22496670.88846  22496670.33548
 -15600555.85048 -12156260.09946         0.00041  22482345.28046  22482343.07148
 94 02 05 02 30 00.0000000  0  8 02 04 07 09 12 13 26 27
   1429883.55648   1114196.89547         0.00041  21156380.78347  21156379.83748
  -4324796.04748  -3369965.21944         0.00041  23806420.74044  23806415.31748
 -26125365.43248 -20357403.58147         0.00041  20371550.54447  20371549.33348
  -6355448.70148  -4952292.93844         0.00041  24141684.49044  24141687.89548
   -798238.32707   -622003.23007  25167864.10107  25167867.53607         0.00001
 -18396888.52108 -14335221.05808  21814805.12108  21814807.33408         0.00001
 -15806964.03948 -12317102.11146         0.00041  22501402.59946  22501402.07648
 -15505094.01048 -12081874.24646         0.00041  22500508.92546  22500508.57848
 94 02 05 02 30 30.0000000  0  8 02 04 07 09 12 13 26 27
   1452138.58948   1131538.48747         0.00041  21160615.98947  21160614.64848
  -4425688.95448  -3448583.05845         0.00041  23787220.76945  23787215.47348
 -26110373.60948 -20345721.63247         0.00041  20374403.07947  20374402.01948
  -6453907.66347  -5029014.20544         0.00041  24122954.37744  24122949.45547
   -887438.40607   -691509.65507  25150889.73107  25150893.03307         0.00001
 -18483246.40508 -14402512.88408  21798371.68508  21798374.01508         0.00001
 -15781756.96148 -12297460.22246         0.00041  22506199.91146  22506198.38948
 -15409457.33448 -12007352.16746         0.00041  22518708.46846  22518707.77648
 94 02 05 02 31 00.0000000  0  8 02 04 07 09 12 13 26 27
   1474800.09548   1149196.80147         0.00041  21164928.85647  21164927.05648
  -4526279.02848  -3526964.87845         0.00041  23768074.39645  23768074.68148
 -26094714.41648 -20333519.65347         0.00041  20377383.07047  20377381.89748
  -6552048.23048  -5105487.21544         0.00041  24104274.65744  24104276.09748
   -976478.81307   -760891.64707  25133945.93207  25133949.25407         0.00001
 -18568936.97708 -14469284.73308  21782065.28608  21782067.65108         0.00001
 -15755822.96648 -12277251.91546         0.00041  22511133.72346  22511133.37248
 -15313286.38848 -11932413.79946         0.00041  22537010.79146  22537008.81348
 94 02 05 02 31 30.0000000  0  8 02 04 07 09 12 13 26 27
   1497567.13248   1166937.36047         0.00041  21169260.65447  21169259.61648
  -4626870.60048  -3605347.85845         0.00041  23748935.01645  23748933.02848
 -26078690.18448 -20321033.23047         0.00041  20380432.49547  20380431.08548
  -6650167.70848  -5181943.95144         0.00041  24085609.98444  24085603.91148
  -1065657.15707   -830381.11007  25116975.63707  25116979.19007         0.00001
 -18654256.42408 -14535767.39308  21765829.53708  21765831.81808         0.00001
 -15729464.06548 -12256712.50846         0.00041  22516149.83246  22516149.14548
 -15216895.35948 -11857303.89946         0.00041  22555353.72146  22555351.22248
 94 02 05 02 32 00.0000000  0  8 02 04 07 09 12 13 26 27
   1520466.22748   1184780.81547         0.00041  21173618.41447  21173616.82348
  -4727439.63048  -3683713.28645         0.00041  23729795.09945  23729794.50248
 -26062259.47048 -20308230.06747         0.00041  20383558.63747  20383557.74148
  -6748256.55348  -5258376.73244         0.00041  24066937.74844  24066937.96848
  -1154942.02707   -899953.57807  25099985.22307  25099988.58907         0.00001
 -18739172.01808 -14601935.37008  21749670.63508  21749672.88008         0.00001
 -15702654.46948 -12235821.91346         0.00041  22521251.51746  22521250.64548
 -15120257.43048 -11782001.63946         0.00041  22573743.45246  22573740.89248
 94 02 05 02 32 30.0000000  0  8 02 04 07 09 12 13 26 27
   1543464.73848   1202701.74347         0.00041  21177994.80247  21177993.29448
  -4828021.67647  -3762088.86844         0.00041  23710656.51944  23710653.33747
 -26045456.94948 -20295137.17847         0.00041  20386756.38547  20386755.30148
  -6846368.39848  -5334827.47144         0.00041  24048267.68644  24048268.46348
  -1244359.82707   -969629.63807  25082969.47007  25082972.77307         0.00001
 -18823709.01108 -14667808.32608  21733583.73008  21733586.01608         0.00001
 -15675421.64748 -12214601.53146         0.00041  22526434.32446  22526433.23148
 -15023405.38748 -11706532.51046         0.00041  22592173.12346  22592170.61348
 94 02 05 02 33 00.0000000  0  8 02 04 07 09 12 13 26 27
   1566613.70748   1220739.90347         0.00041  21182399.81047  21182398.62348
  -4928569.30148  -3840437.66344         0.00041  23691519.48744  23691521.12948
 -26028237.95248 -20281719.76747         0.00041  20390033.34847  20390031.80648
  -6944452.28548  -5411256.40044         0.00041  24029607.99544  24029604.95048
  -1333863.44307  -1039372.58807  25065937.43607  25065940.71007         0.00001
 -18907819.25708 -14733348.75908  21717578.01908  21717580.33208         0.00001
 -15647737.27848 -12193029.31046         0.00041  22531701.68546  22531701.01348
 -14926290.17148 -11630858.35946         0.00041  22610652.32446  22610651.12048
 94 02 05 02 33 30.0000000  0  8 02 04 07 09 12 13 26 27
   1590001.63848   1238964.26846         0.00041  21186850.46246  21186849.06048
  -5029007.76948  -3918701.31945         0.00041  23672408.20945  23672408.27248
 -26010517.91848 -20267911.93347         0.00041  20393405.08747  20393403.93048
  -7042403.07948  -5487581.68944         0.00041  24010969.44544  24010963.96448
  -1423368.10307  -1109116.37307  25048905.05707  25048908.25807         0.00001
 -18991416.89408 -14798489.76008  21701669.99708  21701672.17808         0.00001
 -15619526.61748 -12171046.98546         0.00041  22537069.95746  22537069.25748
 -14828813.07948 -11554902.19446         0.00041  22629202.29346  22629200.73048
 94 02 05 02 34 00.0000000  0  8 02 04 07 09 12 13 26 27
   1613563.41648   1257324.10047         0.00041  21191334.35247  21191332.87148
  -5129386.39948  -3996918.39344         0.00041  23653309.06444  23653307.12448
 -25992363.03448 -20253765.25947         0.00041  20396859.81847  20396858.75548
  -7140286.27748  -5563854.18944         0.00041  23992337.20344  23992337.14248
  -1512938.58307  -1178911.48007  25031860.26507  25031863.48807         0.00001
 -19074565.47008 -14863280.85108  21685847.39708  21685849.47908         0.00001
 -15590859.05648 -12148708.62346         0.00041  22542526.46246  22542524.50348
 -14731037.48448 -11478713.43246         0.00041  22647808.93046  22647807.02948
 94 02 05 02 34 30.0000000  0  8 02 04 07 09 12 13 26 27
   1637321.84248   1275837.16547         0.00041  21195855.31047  21195853.86348
  -5229699.64848  -4075084.52845         0.00041  23634217.00645  23634217.88748
 -25973771.38248 -20239278.24347         0.00041  20400397.77647  20400396.67648
  -7238065.03648  -5640045.35344         0.00041  23973735.22644  23973731.04548
  -1602563.10207  -1248748.73107  25014805.44307  25014808.63507         0.00001
 -19157252.21908 -14927712.07608  21670112.52008  21670114.70908         0.00001
 -15561724.65548 -12126006.50146         0.00041  22548069.79046  22548068.60548
 -14632954.47748 -11402285.15446         0.00041  22666472.83846  22666471.92648
 94 02 05 02 35 00.0000000  0  8 02 04 07 09 12 13 26 27
   1661303.50448   1294524.17147         0.00041  21200418.79747  21200417.32748
  -5329943.53048  -4153196.63445         0.00041  23615144.06845  23615141.94148
 -25954730.51948 -20224441.19047         0.00041  20404021.08647  20404019.76348
  -7335706.51448  -5716129.57444         0.00041  23955154.65644  23955150.33248
  -1692227.48207  -1318617.05607  24997742.83207  24997745.98907         0.00001
 -19239462.09908 -14991771.71908  21654468.44608  21654470.72208         0.00001
 -15532111.74448 -12102931.51546         0.00041  22553704.73846  22553704.21048
 -14534552.08848 -11325607.96746         0.00041  22685198.89646  22685197.52148
 94 02 05 02 35 30.0000000  0  8 02 04 07 09 12 13 26 27
   1685454.44648   1313343.08747         0.00041  21205014.64547  21205013.23148
  -5430161.41748  -4231288.43645         0.00041  23596074.04345  23596071.06148
 -25935274.71648 -20209280.81147         0.00041  20407723.74247  20407722.31948
  -7433267.82548  -5792151.32744         0.00041  23936585.90744  23936583.87248
  -1781971.74107  -1388547.63007  24980665.04907  24980668.39707         0.00001
 -19321233.82408 -15055489.94708  21638907.84808  21638910.08208         0.00001
 -15502053.12948 -12079509.21846         0.00041  22559425.60246  22559424.44748
 -14435888.30248 -11248727.11146         0.00041  22703974.96446  22703972.53148
 94 02 05 02 36 00.0000000  0  8 02 04 07 09 12 13 26 27
   1709774.58148   1332293.84047         0.00041  21209642.09747  21209640.98048
  -5530349.90048  -4309357.32744         0.00041  23577007.81944  23577005.54448
 -25915401.16448 -20193794.91147         0.00041  20411505.03647  20411504.18248
  -7530754.66248  -5868114.95145         0.00041  23918034.50645  23918034.05248
  -1871792.97407  -1458538.16307  24963572.51407  24963575.73407         0.00001
 -19402563.89408 -15118864.01708  21623431.29308  21623433.54808         0.00001
 -15471539.85548 -12055732.65046         0.00041  22565232.54746  22565230.67848
 -14336973.84148 -11171650.92146         0.00041  22722796.08446  22722795.04948
 94 02 05 02 36 30.0000000  0  8 02 04 07 09 12 13 26 27
   1734250.00848   1351365.60946         0.00041  21214300.15846  21214298.59248
  -5630533.31648  -4387422.25144         0.00041  23557942.49644  23557941.90548
 -25895129.72248 -20177998.96947         0.00041  20415362.78047  20415361.55848
  -7628163.62948  -5944018.00044         0.00041  23899496.38344  23899496.96848
  -1961700.46607  -1528595.87807  24946463.75307  24946466.90107         0.00001
 -19483460.62508 -15181900.42308  21608037.09108  21608039.42108         0.00001
 -15440576.90148 -12031605.67146         0.00041  22571123.74846  22571122.63848
 -14237829.66048 -11094395.73846         0.00041  22741662.68646  22741661.34048
 94 02 05 02 37 00.0000000  0  8 02 04 07 09 12 13 26 27
   1758803.95748   1370498.56147         0.00041  21218971.94647  21218970.95848
  -5730756.41948  -4465518.16945         0.00041  23538872.49245  23538869.46948
 -25874526.65248 -20161944.61647         0.00041  20419283.15547  20419281.92948
  -7725563.54948  -6019913.96145         0.00041  23880962.79445  23880961.61248
  -2051750.54507  -1598764.66507  24929327.61307  24929330.87707         0.00001
 -19563979.37608 -15244642.29908  21592714.78408  21592717.20008         0.00001
 -15409215.19748 -12007167.96946         0.00041  22577091.54646  22577090.70648
 -14138524.27148 -11017014.92046         0.00041  22760559.13546  22760558.81148
 94 02 05 02 37 30.0000000  0  8 02 04 07 09 12 13 26 27
   1783524.58848   1389761.39646         0.00041  21223676.93746  21223675.10148
  -5830895.09148  -4543548.22044         0.00041  23519817.80344  23519813.96948
 -25853492.89348 -20145554.65847         0.00041  20423286.11847  20423284.69848
  -7822848.97648  -6095720.68544         0.00041  23862445.92744  23862448.88348
  -2141841.17807  -1668965.03907  24912183.66007  24912187.10907         0.00001
 -19644017.38108 -15307009.55408  21577484.12108  21577486.34808         0.00001
 -15377345.07848 -11982334.11246         0.00041  22583156.61246  22583155.69048
 -14038960.89048 -10939433.07346         0.00041  22779506.33746  22779504.66748
 94 02 05 02 38 00.0000000  0  8 02 04 07 09 12 13 26 27
   1808500.88548   1409223.44647         0.00041  21228429.12647  21228428.22348
  -5930870.91248  -4621451.41045         0.00041  23500790.65045  23500790.06148
 -25831960.89648 -20128776.47347         0.00041  20427383.30247  20427382.08448
  -7919918.79648  -6171359.45945         0.00041  23843977.21745  23843977.25748
  -2231891.87707  -1739134.29907  24895047.58707  24895050.87407         0.00001
 -19723492.87208 -15368938.49108  21562360.46408  21562362.65308         0.00001
 -15344881.55148 -11957037.86146         0.00041  22589334.85646  22589333.75748
 -13939053.57548 -10861583.25246         0.00041  22798517.56346  22798516.68948
 94 02 05 02 38 30.0000000  0  8 02 04 07 09 12 13 26 27
   1833703.68848   1428861.99947         0.00041  21233225.38347  21233224.00848
  -6030701.87248  -4699241.69345         0.00041  23481793.08245  23481792.31448
 -25809962.14948 -20111634.58547         0.00041  20431569.65647  20431568.20648
  -8016812.00348  -6246860.56945         0.00041  23825538.97945  23825538.54948
  -2321934.42907  -1809297.21207  24877913.16007  24877916.29307         0.00001
 -19802437.25508 -15430453.58508  21547337.82808  21547340.04308         0.00001
 -15311871.35748 -11931315.62046         0.00041  22595615.90146  22595614.52548
 -13838839.50648 -10783494.38446         0.00041  22817587.10146  22817587.04548
 94 02 05 02 39 00.0000000  0  8 02 04 07 09 12 13 26 27
   1859110.70648   1448659.68147         0.00041  21238060.21447  21238058.76148
  -6130396.57948  -4776925.83145         0.00041  23462821.51845  23462820.31748
 -25787513.38048 -20094142.02747         0.00041  20435841.13547  20435840.02848
  -8113580.08048  -6322264.20945         0.00041  23807126.98845  23807125.35548
  -2411998.34007  -1879476.77907  24860774.29107  24860777.57307         0.00001
 -19880878.99108 -15491577.01708  21532410.83308  21532413.07508         0.00001
 -15278356.00648 -11905199.75346         0.00041  22601994.02046  22601992.09548
 -13738334.79348 -10705179.03646         0.00041  22836713.85146  22836712.22948
 94 02 05 02 39 30.0000000  0  8 02 04 07 09 12 13 26 27
   1884609.58348   1468528.93247         0.00041  21242912.43747  21242910.90948
  -6230082.90048  -4854603.42545         0.00041  23443855.04145  23443851.00248
 -25764730.17948 -20076388.87548         0.00041  20440176.56048  20440175.55948
  -8210344.69248  -6397665.13545         0.00041  23788712.38945  23788710.09448
  -2502207.95007  -1949769.89407  24843607.83107  24843611.14507         0.00001
 -19958941.40208 -15552404.82908  21517556.08708  21517558.24508         0.00001
 -15244481.64748 -11878804.14346         0.00041  22608440.13746  22608438.64348
 -13637646.54448 -10626720.66046         0.00041  22855874.99646  22855872.48848
 94 02 05 02 40 00.0000000  0  8 02 04 07 09 12 13 26 27
   1910314.64248   1488558.85347         0.00041  21247804.01547  21247802.56148
  -6329656.01048  -4932192.87245         0.00041  23424905.44245  23424902.56648
 -25741496.01248 -20058284.32248         0.00041  20444598.37548  20444597.13348
  -8307008.41748  -6472987.46445         0.00041  23770321.31345  23770317.24548
  -2592452.73907  -2020090.42907  24826434.78407  24826438.08707         0.00001
 -20036513.65208 -15612850.69308  21502794.63208  21502796.69908         0.00001
 -15210165.51948 -11852064.29146         0.00041  22614969.95246  22614968.79448
 -13536651.75548 -10548023.42146         0.00041  22875092.37346  22875090.65048
 94 02 05 02 40 30.0000000  0  8 02 04 07 09 12 13 26 27
   1936231.17748   1508753.56147         0.00041  21252735.87047  21252734.46448
  -6429087.33148  -5009671.73845         0.00041  23405982.45945  23405981.34548
 -25717798.52748 -20039818.74148         0.00041  20449107.78548  20449106.46548
  -8403568.44448  -6548228.97445         0.00041  23751941.28145  23751941.25848
  -2682724.35307  -2090431.88807  24809256.55707  24809259.87907         0.00001
 -20113586.57408 -15672907.49608  21488128.07408  21488130.32508         0.00001
 -15175415.01948 -11824985.97946         0.00041  22621582.88046  22621581.72848
 -13435337.27548 -10469077.10346         0.00041  22894372.15746  22894370.68048
 94 02 05 02 41 00.0000000  0  8 02 04 07 09 12 13 26 27
   1962278.25348   1529049.98347         0.00041  21257692.53947  21257690.85948
  -6528473.13648  -5087115.14645         0.00041  23387071.30145  23387069.98648
 -25693731.29648 -20021065.04747         0.00041  20453687.31147  20453686.17548
  -8500087.74148  -6623438.74645         0.00041  23733577.39645  23733575.44648
  -2773103.98707  -2160857.51307  24792057.71507  24792061.08407         0.00001
 -20190240.74108 -15732637.99208  21473541.14508  21473543.41408         0.00001
 -15140313.55348 -11797634.17846         0.00041  22628262.36646  22628261.14148
 -13333775.72048 -10389938.23046         0.00041  22913697.30946  22913697.56448
 94 02 05 02 41 30.0000000  0  8 02 04 07 09 12 13 26 27
   1988565.81248   1549533.79747         0.00041  21262694.98047  21262693.46248
  -6627717.21548  -5164448.15645         0.00041  23368184.47545  23368183.39148
 -25669185.98048 -20001938.82047         0.00041  20458358.29847  20458357.07048
  -8596436.92448  -6698515.95145         0.00041  23715240.28545  23715239.81848
  -2863481.89907  -2231281.80507  24774859.20707  24774862.89007         0.00001
 -20266365.72208 -15791956.13308  21459055.06508  21459057.26608         0.00001
 -15104744.80248 -11769918.26546         0.00041  22635030.21546  22635029.41848
 -13231882.55348 -10310540.97746         0.00041  22933088.10146  22933087.01048
 94 02 05 02 42 00.0000000  0  8 02 04 07 09 12 13 26 27
   2015060.11648   1570178.71547         0.00041  21267736.28947  21267734.83148
  -6726838.28448  -5241685.33145         0.00041  23349321.22945  23349320.99148
 -25644191.48448 -19982462.58947         0.00041  20463114.49947  20463113.50848
  -8692641.55948  -6773480.55845         0.00041  23696932.39845  23696931.59348
  -2953888.70407  -2301728.59107  24757655.45307  24757658.79007         0.00001
 -20341991.42908 -15850885.22108  21444663.97108  21444666.17508         0.00001
 -15068721.05448 -11741847.81446         0.00041  22641885.71946  22641884.33948
 -13129713.52948 -10230928.77045         0.00041  22952529.29145  22952528.33048
 94 02 05 02 42 30.0000000  0  8 02 04 07 09 12 13 26 27
   2041727.02548   1590958.12847         0.00041  21272810.96547  21272809.76148
  -6825873.35948  -5318855.43545         0.00041  23330477.41645  23330476.08448
 -25618792.36148 -19962671.06047         0.00041  20467947.93047  20467946.66948
  -8788719.65148  -6848346.52845         0.00041  23678651.08945  23678649.67648
  -3044354.90507  -2372221.64407  24740440.19507  24740443.70407         0.00001
 -20417147.98008 -15909448.72508  21430362.07408  21430364.27008         0.00001
 -15032253.81848 -11713431.76746         0.00041  22648824.13546  22648823.88448
 -13027318.82048 -10151140.65745         0.00041  22972015.92545  22972013.66548
 94 02 05 02 43 00.0000000  0  8 02 04 07 09 12 13 26 27
   2068588.81948   1611889.39847         0.00041  21277922.54547  21277921.05048
  -6924815.65648  -5395953.29045         0.00041  23311647.00045  23311647.49748
 -25592972.22248 -19942551.47047         0.00041  20472861.45147  20472860.07348
  -8884649.46248  -6923096.99745         0.00041  23660394.18645  23660394.53048
  -3134856.65107  -2442742.39907  24723218.13507  24723221.67607         0.00001
 -20491810.85008 -15967627.55508  21416154.19708  21416156.44808         0.00001
 -14995312.36748 -11684646.21646         0.00041  22655854.00746  22655854.08848
 -12924690.36448 -10071170.45345         0.00041  22991545.88345  22991543.68448
 94 02 05 02 43 30.0000000  0  8 02 04 07 09 12 13 26 27
   2095628.47248   1632959.26347         0.00041  21283067.97747  21283066.48148
  -7023654.43448  -5472970.48145         0.00041  23292839.39945  23292838.82648
 -25566743.34048 -19922113.37347         0.00041  20477852.51247  20477851.38348
  -8980442.12648  -6997740.56045         0.00041  23642164.99245  23642165.81048
  -3225402.24607  -2513297.33307  24705987.87307  24705991.24007         0.00001
 -20565987.81008 -16025427.74608  21402038.81008  21402040.97408         0.00001
 -14957897.64748 -11655491.87946         0.00041  22662975.02446  22662973.92148
 -12821844.56248  -9991030.87745         0.00041  23011116.23045  23011114.70548
 94 02 05 02 44 00.0000000  0  8 02 04 07 09 12 13 26 27
   2122748.08148   1654091.43147         0.00041  21288228.82947  21288227.44648
  -7122473.43148  -5549972.22845         0.00041  23274035.90945  23274034.83248
 -25540216.50348 -19901443.10647         0.00041  20482900.42147  20482899.27848
  -9076197.25748  -7072354.88945         0.00041  23623945.14745  23623944.33348
  -3316083.07707  -2583957.63307  24688731.84907  24688735.24707         0.00001
 -20639769.77808 -16082920.14508  21387998.56008  21388000.69008         0.00001
 -14920109.52848 -11626046.59046         0.00041  22670165.78046  22670164.11348
 -12718850.52148  -9910775.79946         0.00041  23030715.58646  23030714.25648
 94 02 05 02 44 30.0000000  0  8 02 04 07 09 12 13 26 27
   2150046.91848   1675363.26247         0.00041  21293423.40047  21293422.22148
  -7221182.30448  -5626888.16546         0.00041  23255251.99346  23255250.85648
 -25513304.20948 -19880472.47847         0.00041  20488021.46847  20488020.35948
  -9171819.04348  -7146865.33845         0.00041  23605749.64145  23605747.83748
  -3406797.12907  -2654643.81407  24671469.38707  24671472.83007         0.00001
 -20713054.34108 -16140024.97008  21374052.97508  21374054.96008         0.00001
 -14881864.59748 -11596245.33346         0.00041  22677443.21446  22677441.68248
 -12615594.65248  -9830316.72946         0.00041  23050363.86146  23050362.87648
 94 02 05 02 45 00.0000000  0  8 02 04 07 09 12 13 26 27
   2177524.69648   1696774.56047         0.00041  21298652.60447  21298651.08748
  -7319773.88248  -5703712.75446         0.00041  23236489.84946  23236488.96148
 -25485996.21048 -19859193.52847         0.00041  20493218.15647  20493217.06548
  -9267319.23448  -7221281.00045         0.00041  23587575.63645  23587575.12948
  -3497548.15907  -2725358.80507  24654199.96507  24654203.32707         0.00001
 -20785844.72608 -16196744.72108  21360201.27708  21360203.39108         0.00001
 -14843185.39648 -11566105.68246         0.00041  22684803.37146  22684802.22448
 -12512077.62048  -9749654.11145         0.00041  23070062.95645  23070060.87748
 94 02 05 02 45 30.0000000  0  8 02 04 07 09 12 13 26 27
   2205208.08048   1718345.97247         0.00041  21303920.50747  21303918.83948
  -7418208.24448  -5780414.81646         0.00041  23217758.66046  23217757.98548
 -25458255.83048 -19837577.62447         0.00041  20498496.93047  20498495.87848
  -9362668.59148  -7295579.14845         0.00041  23569432.02845  23569431.26048
  -3588308.95407  -2796081.41907  24636928.40307  24636932.02007         0.00001
 -20858113.56408 -16253058.07408  21346449.03008  21346451.02808         0.00001
 -14804041.74448 -11535604.13646         0.00041  22692252.31646  22692251.08948
 -12408272.39548  -9668766.90845         0.00041  23089814.59845  23089813.96448
 94 02 05 02 46 00.0000000  0  8 02 04 07 09 12 13 26 27
   2233073.83948   1740059.55047         0.00041  21309222.64647  21309221.73448
  -7516525.69948  -5857025.71746         0.00041  23199050.96746  23199049.11148
 -25430105.66148 -19815642.41947         0.00041  20503853.96547  20503852.45648
  -9457906.46748  -7369790.41845         0.00041  23551306.10345  23551307.73348
  -3679108.17507  -2866833.97307  24619650.13807  24619653.47407         0.00001
 -20929888.96208 -16308986.93908  21332790.64108  21332792.60308         0.00001
 -14764476.85348 -11504774.33346         0.00041  22699781.93746  22699780.50448
 -12304215.53848  -9587683.65745         0.00041  23109618.68345  23109616.20748
 94 02 05 02 46 30.0000000  0  8 02 04 07 09 12 13 26 27
   2261144.33948   1761932.66847         0.00041  21314564.59347  21314563.31648
  -7614708.63248  -5933531.86846         0.00041  23180367.16446  23180364.15448
 -25401528.77248 -19793374.70547         0.00041  20509291.30947  20509290.31848
  -9553012.14748  -7443898.71645         0.00041  23533210.35845  23533208.52248
  -3769930.03407  -2937604.16807  24602367.39407  24602370.46907         0.00001
 -21001154.60908 -16364518.59608  21319229.17108  21319231.18008         0.00001
 -14724485.18748 -11473611.98446         0.00041  22707390.78146  22707390.47448
 -12199918.37848  -9506413.14845         0.00041  23129463.48645  23129463.01648
 94 02 05 02 47 00.0000000  0  8 02 04 07 09 12 13 26 27
   2289397.82348   1783948.37047         0.00041  21319941.10947  21319939.89448
  -7712762.70548  -6009937.58946         0.00041  23161705.37646  23161705.51348
 -25372547.18648 -19770791.63447         0.00041  20514807.01747  20514805.59748
  -9647994.17848  -7517910.63646         0.00041  23515135.90246  23515135.88848
  -3860792.47507  -3008405.97807  24585076.48407  24585080.06507         0.00001
 -21071928.29208 -16419666.87508  21305761.38008  21305763.34308         0.00001
 -14684080.80448 -11442128.04546         0.00041  22715080.45546  22715079.37048
 -12095413.16148  -9424980.54645         0.00041  23149350.54445  23149349.88448
 94 02 05 02 47 30.0000000  0  8 02 04 07 09 12 13 26 27
   2317697.95748   1806000.41247         0.00041  21325327.05447  21325325.48048
  -7810813.07348  -6086340.41446         0.00041  23143049.73046  23143047.28948
 -25343320.85848 -19748017.86247         0.00041  20520368.36547  20520367.03548
  -9742977.52748  -7591923.59945         0.00041  23497060.13145  23497060.06848
  -3951826.08207  -3079341.17107  24567753.10507  24567756.67707         0.00001
 -21142340.36108 -16474533.39308  21292362.38008  21292364.32708         0.00001
 -14643390.33548 -11410421.18246         0.00041  22722823.26046  22722822.43848
 -11990836.82448  -9343492.50545         0.00041  23169250.25545  23169250.58548
 94 02 05 02 48 00.0000000  0  8 02 04 07 09 12 13 26 27
   2346359.66448   1828334.20947         0.00041  21330780.78547  21330779.45948
  -7908542.46148  -6162493.15446         0.00041  23124451.01346  23124449.74848
 -25313551.60048 -19724821.03247         0.00041  20526033.33547  20526031.88048
  -9837638.85848  -7665685.63946         0.00041  23479046.19546  23479046.64848
  -4042715.20407  -3150163.78607  24550457.60807  24550460.90507         0.00001
 -21212075.00308 -16528872.05208  21279092.28808  21279094.26608         0.00001
 -14602122.55048 -11378264.44846         0.00041  22730676.29846  22730675.01248
 -11885870.21148  -9261700.36245         0.00041  23189224.02145  23189223.94748
 94 02 05 02 48 30.0000000  0  8 02 04 07 09 12 13 26 27
   2375204.85748   1850810.97747         0.00041  21336270.03647  21336268.12448
  -8006107.89348  -6238518.12646         0.00041  23105885.12746  23105884.07448
 -25283413.67848 -19701336.92347         0.00041  20531768.46647  20531767.20148
  -9932139.57448  -7739322.53446         0.00041  23461065.53246  23461064.29548
  -4133631.58407  -3221007.64207  24533156.97607  24533159.96507         0.00001
 -21281303.64008 -16582816.42908  21265918.51608  21265920.47708         0.00001
 -14560435.32648 -11345780.89846         0.00041  22738608.47646  22738607.86648
 -11780689.13048  -9179741.09545         0.00041  23209241.57445  23209240.17948
 94 02 05 02 49 00.0000000  0  8 02 04 07 09 12 13 26 27
   2404210.05748   1873412.43347         0.00041  21341789.04247  21341787.97448
  -8103524.46348  -6314427.10646         0.00041  23087346.80146  23087346.47748
 -25252911.06848 -19677568.64347         0.00041  20537572.67147  20537571.75348
 -10026490.18548  -7812842.43646         0.00041  23443109.87546  23443109.01448
  -4224586.36807  -3291881.42307  24515848.46807  24515851.85407         0.00001
 -21350037.14408 -16636374.97208  21252838.92808  21252840.87208         0.00001
 -14518326.07848 -11312968.49046         0.00041  22746622.89946  22746621.33848
 -11675282.62748  -9097606.17145         0.00041  23229299.85245  23229298.25148
 94 02 05 02 49 30.0000000  0  8 02 04 07 09 12 13 26 27
   2433444.14748   1896192.24147         0.00041  21347352.22347  21347351.08348
  -8200729.87748  -6390171.54246         0.00041  23068849.75446  23068848.40948
 -25221971.59048 -19653459.95347         0.00041  20543460.17547  20543459.02048
 -10120624.62248  -7886193.91846         0.00041  23425194.88746  23425195.72848
  -4315513.00107  -3362733.28707  24498545.98307  24498548.97407         0.00001
 -21418208.91008 -16689495.80308  21239866.28008  21239868.28908         0.00001
 -14475728.30248 -11279775.41346         0.00041  22754728.32846  22754727.62348
 -11569579.76948  -9015240.32245         0.00041  23249415.67845  23249411.54348
 94 02 05 02 50 00.0000000  0  8 02 04 07 09 12 13 26 27
   2462946.21948   1919180.86347         0.00041  21352966.32547  21352964.86748
  -8297704.08648  -6465735.81346         0.00041  23050396.37646  23050394.45148
 -25190552.52148 -19628977.55047         0.00041  20549439.27647  20549437.82248
 -10214514.26848  -7959354.63046         0.00041  23407331.91246  23407329.93548
  -4406379.62807  -3433538.38607  24481254.48307  24481257.29307         0.00001
 -21485787.09808 -16742154.10108  21227006.46608  21227008.54908         0.00001
 -14432620.22948 -11246184.69546         0.00041  22762932.69446  22762930.98748
 -11463547.13248  -8932617.48245         0.00041  23269593.78645  23269590.22948
 94 02 05 02 50 30.0000000  0  7 04 07 09 12 13 26 27
  -8394665.69348  -6541290.30046         0.00041  23031944.55146  23031943.64848
 -25158866.16548 -19604286.87847         0.00041  20555468.70347  20555467.50748
 -10308373.89248  -8032491.94946         0.00041  23389469.36646  23389468.60848
  -4497399.07307  -3504462.58507  24463934.34507  24463936.98807         0.00001
 -21552984.25608 -16794515.50408  21214219.28508  21214221.32508         0.00001
 -14389205.38648 -11212354.94346         0.00041  22771193.59546  22771192.34348
 -11357397.53648  -8849903.53045         0.00041  23289791.65145  23289790.43948
 94 02 05 02 51 00.0000000  0  7 04 07 09 12 13 26 27
  -8491539.26148  -6616776.19746         0.00041  23013510.62546  23013509.02748
 -25126833.78548 -19579326.57547         0.00041  20561564.44347  20561563.26848
 -10402116.44848  -8105538.05946         0.00041  23371633.46346  23371630.92348
  -4588483.82007  -3575437.64107  24446601.05007  24446604.06207         0.00001
 -21619713.02508 -16846511.91708  21201521.19708  21201523.20208         0.00001
 -14345428.21748 -11178242.86346         0.00041  22779523.92346  22779522.39348
 -11251045.87248  -8767032.12045         0.00041  23310025.91445  23310027.88248
 94 02 05 02 51 30.0000000  0  8 04 07 09 12 13 24 26 27
  -8588278.14748  -6692157.08446         0.00041  22995100.94246  22995100.24748
 -25094425.86548 -19554073.64247         0.00041  20567731.17147  20567730.12448
 -10495706.80048  -8178465.57446         0.00041  23353821.69446  23353820.81648
  -4679594.46607  -3646432.87707  24429263.28907  24429266.15807         0.00001
 -21685933.72208 -16898112.43208  21188919.77808  21188921.78708         0.00001
        -0.48057        -0.05354         0.00051  25249998.49654  25250009.50457
 -14301273.15148 -11143836.30346         0.00041  22787925.99546  22787924.93448
 -11144483.43248  -8683996.48845         0.00041  23330307.40245  23330305.85948
 94 02 05 02 52 00.0000000  0  8 04 07 09 12 13 24 26 27
  -8684953.15348  -6767488.24446         0.00041  22976705.20746  22976703.36148
 -25061727.92648 -19528594.72847         0.00041  20573953.68747  20573952.39748
 -10589227.74748  -8251338.97046         0.00041  23336024.54146  23336023.97248
  -4770811.51907  -3717511.03407  24411905.52507  24411907.97407         0.00001
 -21751727.08408 -16949379.97008  21176399.69608  21176401.76308         0.00001
   -104850.41347    -81701.18644         0.00041  25230052.70944  25230056.77547
 -14256830.27748 -11109205.49146         0.00041  22796384.79146  22796382.38148
 -11037800.88748  -8600867.22745         0.00041  23350608.24845  23350606.82648
 94 02 05 02 52 30.0000000  0  8 04 07 09 12 13 24 26 27
  -8781359.97848  -6842610.42846         0.00041  22958360.77846  22958357.93748
 -25028557.61648 -19502747.72847         0.00041  20580265.75547  20580264.43148
 -10682495.12848  -8324014.81446         0.00041  23318276.64546  23318275.39748
  -4861949.04407  -3788527.20507  24394562.66807  24394565.01807         0.00001
 -21816907.11908 -17000169.57708  21163996.35608  21163998.33408         0.00001
   -209709.33947   -163409.40944         0.00041  25210100.29744  25210102.51847
 -14211911.24748 -11074203.65146         0.00041  22804931.56846  22804930.39248
 -10930827.22348  -8517511.15245         0.00041  23370966.45245  23370963.77948
 94 02 05 02 53 00.0000000  0  8 04 07 09 12 13 24 26 27
  -8877539.92048  -6917555.81046         0.00041  22940055.91546  22940055.84648
 -24994979.29448 -19476582.80047         0.00041  20586655.46547  20586654.27548
 -10775573.39248  -8396543.29746         0.00041  23300563.50846  23300563.66648
  -4953063.04007  -3859525.04307  24377224.05407  24377226.47507         0.00001
 -21881530.12008 -17050525.13208  21151698.98408  21151700.90408         0.00001
   -314629.92747   -245165.52144         0.00041  25190139.50344  25190136.46947
 -14166578.50348 -11038879.43546         0.00041  22813557.81746  22813556.68348
 -10823642.20648  -8433990.37045         0.00041  23391362.70545  23391360.21348
 94 02 05 02 53 30.0000000  0  8 04 07 09 12 13 24 26 27
  -8973490.39848  -6992322.38446         0.00041  22921798.25446  22921796.90048
 -24961012.44248 -19450115.11647         0.00041  20593119.02247  20593117.92648
 -10868477.71748  -8468936.24646         0.00041  23282883.99446  23282884.58848
  -5044171.49807  -3930518.56607  24359886.57007  24359889.19807         0.00001
 -21945613.80308 -17100460.42808  21139504.22508  21139506.13708         0.00001
   -419632.33747   -326985.60544         0.00041  25170153.61644  25170155.86947
 -14120824.50148 -11003226.96346         0.00041  22822264.53946  22822262.54948
 -10716263.36448  -8350318.59045         0.00041  23411793.76645  23411794.04148
 94 02 05 02 54 00.0000000  0  8 04 07 09 12 13 24 26 27
  -9069219.20248  -7066916.25846         0.00041  22903581.25046  22903579.69148
 -24926671.82948 -19423356.19547         0.00041  20599653.90347  20599652.74248
 -10961206.00948  -8541192.00846         0.00041  23265239.68846  23265239.42148
  -5135280.11907  -4001512.21907  24342549.33907  24342551.43907         0.00001
 -22009164.15308 -17149980.15808  21127410.99008  21127412.97908         0.00001
   -524730.20447   -408879.97744         0.00041  25150156.38444  25150156.82047
 -14074647.61648 -10967244.98346         0.00041  22831051.36446  22831050.02048
 -10608681.59748  -8266488.67745         0.00041  23432266.29645  23432265.87348
 94 02 05 02 54 30.0000000  0  8 04 07 09 12 13 24 26 27
  -9164756.43448  -7141360.81446         0.00041  22885400.68646  22885399.78548
 -24891976.75148 -19396321.06947         0.00041  20606256.24947  20606254.89948
 -11053770.39648  -8613320.06746         0.00041  23247624.11946  23247624.23848
  -5226407.88607  -4072520.78807  24325208.15107  24325210.21607         0.00001
 -22072200.49608 -17199099.37808  21115415.60208  21115417.47008         0.00001
   -629944.82547   -490865.37844         0.00041  25130137.51544  25130134.08847
 -14028072.51648 -10930952.70546         0.00041  22839913.75346  22839913.08248
 -10500909.02348  -8182510.08245         0.00041  23452776.74745  23452774.26548
 94 02 05 02 55 00.0000000  0  8 04 07 09 12 13 24 26 27
  -9260200.45948  -7215732.75146         0.00041  22867238.25546  22867237.60248
 -24857019.19048 -19369081.40647         0.00041  20612908.55147  20612907.16448
 -11146249.76548  -8685381.88046         0.00041  23230027.42446  23230025.45448
  -5317643.88307  -4143613.68607  24307846.52707  24307848.66807         0.00001
 -22134811.94908 -17247887.50608  21103500.98408  21103502.91008         0.00001
   -735365.11247   -573010.81644         0.00041  25110075.05144  25110073.90947
 -13981194.82448 -10894424.64046         0.00041  22848834.16646  22848834.03848
 -10393013.25048  -8098435.45045         0.00041  23473307.01945  23473306.19148
 94 02 05 02 55 30.0000000  0  8 04 07 09 12 13 24 26 27
  -9355518.61648  -7290006.61246         0.00041  22849100.04046  22849099.56848
 -24821747.45748 -19341596.93647         0.00041  20619620.01247  20619618.97748
 -11238585.45148  -8757331.72846         0.00041  23212456.08246  23212454.95148
  -5408943.07907  -4214755.84507  24290472.85107  24290474.96907         0.00001
 -22196953.83608 -17296309.73208  21091675.70508  21091677.68808         0.00001
   -840951.99348   -655286.24544         0.00041  25089982.15944  25089980.60948
 -13933977.59948 -10857632.00246         0.00041  22857821.62446  22857819.56848
 -10284929.33448  -8014214.22645         0.00041  23493876.61745  23493873.37248
 94 02 05 02 56 00.0000000  0  8 04 07 09 12 13 24 26 27
  -9450697.50848  -7364171.97146         0.00041  22830987.63146  22830987.26548
 -24786122.74048 -19313837.41247         0.00041  20626399.06647  20626398.11848
 -11330748.12848  -8829146.77346         0.00041  23194917.94246  23194917.75548
  -5500267.25007  -4285917.46607  24273094.41107  24273096.37407         0.00001
 -22258588.22108 -17344336.49608  21079947.05108  21079949.04308         0.00001
   -946664.92448   -737659.80845         0.00041  25069864.38945  25069864.76048
 -13886405.15648 -10820562.57946         0.00041  22866873.84146  22866871.91948
 -10176616.67648  -7929814.79745         0.00041  23514485.45745  23514485.45748
 94 02 05 02 56 30.0000000  0  8 04 07 09 12 13 24 26 27
  -9545609.73848  -7438129.51146         0.00041  22812928.38246  22812926.13448
 -24750008.46148 -19285696.41447         0.00041  20633271.78247  20633270.55248
 -11422613.06248  -8900729.81046         0.00041  23177438.01646  23177435.90948
  -5591485.61307  -4356996.64707  24255736.03807  24255738.13707         0.00001
 -22319584.57108 -17391866.10608  21068339.83208  21068341.74608         0.00001
  -1052370.59648   -820027.80345         0.00041  25049753.98845  25049749.89948
 -13838350.75648 -10783117.60046         0.00041  22876017.55046  22876016.12548
 -10067951.81348  -7845140.89345         0.00041  23535166.87845  23535163.39048
 94 02 05 02 57 00.0000000  0  8 04 07 09 12 13 24 26 27
  -9640353.15648  -7511955.54146         0.00041  22794898.34546  22794896.77048
 -24713519.22048 -19257263.23547         0.00041  20640215.34147  20640213.95748
 -11514294.12348  -8972169.57646         0.00041  23159991.68446  23159989.98448
  -5682703.28507  -4428075.26707  24238377.75007  24238379.87307         0.00001
 -22380048.39608 -17438980.74908  21056833.89908  21056835.92008         0.00001
  -1158164.87248   -902464.79845         0.00041  25029620.70145  25029617.12148
 -13789921.40948 -10745380.44646         0.00041  22885232.32246  22885231.32748
  -9959051.84048  -7760283.82945         0.00041  23555882.21145  23555885.87348
 94 02 05 02 57 30.0000000  0  8 04 07 09 12 13 24 26 27
  -9735010.33548  -7585714.33646         0.00041  22776885.98346  22776883.65548
 -24676737.87348 -19228602.43847         0.00041  20647214.69647  20647213.33348
 -11605877.00948  -9043532.82046         0.00041  23142562.85446  23142561.95248
  -5773999.73407  -4499215.28307  24221004.47007  24221006.75907         0.00001
 -22440059.46208 -17485742.60708  21045414.15908  21045416.23808         0.00001
  -1264125.28148   -985031.31445         0.00041  25009456.47645  25009453.17448
 -13741198.21248 -10707414.32346         0.00041  22894503.45846  22894503.10048
  -9850022.79748  -7675326.16344         0.00041  23576633.34644  23576633.74148
 94 02 05 02 58 00.0000000  0  8 04 07 09 12 13 24 26 27
  -9829446.19848  -7659300.71246         0.00041  22758915.90146  22758914.01948
 -24639548.14048 -19199623.42447         0.00041  20654291.47647  20654290.39648
 -11697234.84848  -9114720.72146         0.00041  23125177.26246  23125176.31248
  -5865248.42707  -4570318.07907  24203640.51507  24203642.53707         0.00001
 -22499491.68208 -17532053.41208  21034104.67708  21034106.59708         0.00001
  -1370120.91548  -1067625.17545         0.00041  24989284.18745  24989283.04948
 -13692049.97448 -10669117.01446         0.00041  22903857.91946  22903856.27348
  -9740759.63948  -7590186.08445         0.00041  23597426.63945  23597425.21448
 94 02 05 02 58 30.0000000  0  8 04 07 09 12 13 24 26 27
  -9923646.54048  -7732703.55946         0.00041  22740988.80146  22740987.91848
 -24601975.34148 -19170345.91147         0.00041  20661441.23047  20661440.02148
 -11788366.51748  -9185732.38546         0.00041  23107836.29246  23107834.99348
  -5956463.69607  -4641394.82207  24186282.96007  24186284.84807         0.00001
 -22558359.73808 -17577924.60208  21022902.37508  21022904.31108         0.00001
  -1476162.96048  -1150255.21944         0.00041  24969105.90944  24969104.15048
 -13642484.93748 -10630494.91146         0.00041  22913290.39146  22913288.71048
  -9631301.07548  -7504893.70345         0.00041  23618257.06945  23618254.23148
 94 02 05 02 59 00.0000000  0  8 04 07 09 12 13 24 26 27
 -10017777.09248  -7806052.00646         0.00041  22723077.62246  22723075.72148
 -24564200.57648 -19140911.01747         0.00041  20668629.50947  20668628.33948
 -11879440.38148  -9256698.98246         0.00041  23090504.43146  23090504.47948
  -6047821.90707  -4712582.95707  24168897.85507  24168899.77307         0.00001
 -22616840.55408 -17623494.05408  21011773.75808  21011775.73908         0.00001
  -1582430.44148  -1233060.90844         0.00041  24948889.66044  24948881.92148
 -13592687.05148 -10591691.38146         0.00041  22922767.69246  22922765.20048
  -9521829.21048  -7419590.92545         0.00041  23639084.13445  23639087.12648
 94 02 05 02 59 30.0000000  0  8 04 07 09 12 13 24 26 27
 -10111589.12648  -7879152.27346         0.00041  22705224.25646  22705224.02548
 -24525975.01748 -19111124.86447         0.00041  20675903.34847  20675902.29648
 -11970191.27848  -9327413.95246         0.00041  23073235.80246  23073234.65748
  -6139076.84407  -4783690.62707  24151532.64307  24151534.44207         0.00001
 -22674688.35008 -17668570.24508  21000765.62608  21000767.73608         0.00001
  -1688688.31348  -1315859.11144         0.00041  24928661.40244  24928661.08848
 -13542406.79848 -10552511.96446         0.00041  22932333.18446  22932332.13948
  -9412107.90648  -7334093.85445         0.00041  23659968.18045  23659967.07248
 94 02 05 03 00 00.0000000  0  8 04 07 09 12 13 24 26 27
 -10205022.45248  -7951957.44546         0.00041  22687445.15446  22687443.79648
 -24487236.05548 -19080938.65747         0.00041  20683275.30847  20683274.25648
 -12060556.70848  -9397828.55446         0.00041  23056039.58346  23056038.19848
  -6230168.91207  -4854671.39507  24134198.27407  24134200.25207         0.00001
 -22731844.09108 -17713107.17408  20989889.25608  20989891.28208         0.00001
  -1794869.09148  -1398597.19444         0.00041  24908461.75244  24908455.17548
 -13491585.27148 -10512910.79746         0.00041  22942004.18746  22942002.53048
  -9302075.75548  -7248354.53145         0.00041  23680908.09545  23680904.84248
 94 02 05 03 00 30.0000000  0  8 04 07 09 12 13 24 26 27
 -10298197.07648  -8024561.02946         0.00041  22669715.37246  22669714.01048
 -24448102.25548 -19050444.78647         0.00041  20690722.20147  20690721.26748
 -12150662.53048  -9468040.85546         0.00041  23038893.45846  23038892.45648
  -6321216.21107  -4925617.28407  24116872.54507  24116874.63007         0.00001
 -22788426.65208 -17757197.46408  20979121.93508  20979123.98408         0.00001
  -1901080.98148  -1481359.52544         0.00041  24888248.47944  24888244.37448
 -13440345.08748 -10472983.38746         0.00041  22951755.29746  22951753.86648
  -9191847.73448  -7162462.61945         0.00041  23701879.91645  23701880.53648
 94 02 05 03 01 00.0000000  0  8 04 07 09 12 13 24 26 27
 -10391302.24548  -8097110.50446         0.00041  22651997.77446  22651996.39948
 -24408742.40848 -19019774.76647         0.00041  20698212.32747  20698211.42048
 -12240690.75548  -9538192.69646         0.00041  23021760.98946  23021760.05148
  -6412390.51707  -4996662.13907  24099522.50907  24099524.70007         0.00001
 -22844608.13308 -17800975.22108  20968431.04008  20968432.99308         0.00001
  -2007503.73748  -1564286.12644         0.00041  24867996.97744  24867993.41048
 -13388861.97248 -10432866.68246         0.00041  22961553.20746  22961551.51948
  -9081577.47248  -7076537.76545         0.00041  23722867.32345  23722864.21248
 94 02 05 03 01 30.0000000  0  8 04 07 09 12 13 24 26 27
 -10484238.72248  -8169528.52146         0.00041  22634312.17446  22634310.35248
 -24369069.30948 -18988860.65747         0.00041  20705761.93547  20705760.98648
 -12330553.43148  -9608215.52746         0.00041  23004660.60146  23004659.76948
  -6503592.73208  -5067728.74907  24082167.42808  24082169.42107         0.00001
 -22900290.19708 -17844363.82108  20957835.06808  20957837.06008         0.00001
  -2114040.15548  -1647301.43345         0.00041  24847722.58145  24847719.32648
 -13337035.12848 -10392482.12146         0.00041  22971415.29846  22971414.79648
  -8971163.59948  -6990501.00545         0.00041  23743871.72145  23743874.77548
 94 02 05 03 02 00.0000000  0  8 04 07 09 12 13 24 26 27
 -10576973.00348  -8241788.98646         0.00041  22616665.20846  22616664.05448
 -24329071.93348 -18957693.86647         0.00041  20713373.17447  20713372.03748
 -12420256.17048  -9678113.72546         0.00041  22987592.00446  22987591.22948
  -6594797.54908  -5138797.39807  24064811.37108  24064813.66207         0.00001
 -22955448.38608 -17887344.20908  20947338.84608  20947340.80908         0.00001
  -2220657.98248  -1730380.13944         0.00041  24827433.92844  24827429.74748
 -13284850.95148 -10351819.12846         0.00041  22981346.32246  22981345.40548
  -8860575.70348  -6904328.63945         0.00041  23764918.50645  23764919.43148
 94 02 05 03 02 30.0000000  0  8 04 07 09 12 13 24 26 27
 -10669483.58448  -8313875.14846         0.00041  22599060.37546  22599059.66948
 -24288756.19748 -18926279.00247         0.00041  20721044.98747  20721043.92848
 -12509803.05848  -9747890.50746         0.00041  22970551.02346  22970550.11648
  -6685998.60208  -5209863.11407  24047456.59908  24047458.80007         0.00001
 -23010076.99108 -17929911.92308  20936943.35508  20936945.30708         0.00001
  -2327363.82448  -1813527.38744         0.00041  24807128.75744  24807124.73948
 -13232321.18248 -10310886.84146         0.00041  22991341.16646  22991340.64548
  -8749806.36548  -6818014.89645         0.00041  23785998.69745  23785998.43048
 94 02 05 03 03 00.0000000  0  8 04 07 09 12 13 24 26 27
 -10761729.98948  -8385755.44046         0.00041  22581506.52546  22581505.78148
 -24248099.53948 -18894598.48547         0.00041  20728781.23347  20728780.74448
 -12599153.57748  -9817514.25546         0.00041  22953548.06046  22953547.54348
  -6777158.28208  -5280896.60607  24030109.53208  24030111.67707         0.00001
 -23064138.94808 -17972038.10808  20926655.75008  20926657.62308         0.00001
  -2434127.32248  -1896719.61445         0.00041  24786808.43145  24786808.09548
 -13179423.84348 -10269668.15046         0.00041  23001407.20446  23001405.67348
  -8638813.78348  -6731527.17645         0.00041  23807120.21045  23807119.73348
 94 02 05 03 03 30.0000000  0  8 04 07 09 12 13 24 26 27
 -10853630.55148  -8457366.25646         0.00041  22564019.02946  22564017.41448
 -24207027.61048 -18862594.37847         0.00041  20736597.27547  20736596.36248
 -12688220.19448  -9886916.79146         0.00041  22936599.27946  22936598.91448
  -6868193.90308  -5351833.44007  24012785.92508  24012787.99607         0.00001
 -23117552.48208 -18013659.01908  20916491.44608  20916493.28008         0.00001
  -2540842.62248  -1979874.22644         0.00041  24766501.39944  24766501.65648
 -13126094.01148 -10228112.44446         0.00041  23011554.28546  23011553.62048
  -8527538.00348  -6644818.79745         0.00041  23828294.98245  23828294.64748
 94 02 05 03 04 00.0000000  0  8 04 07 09 12 13 24 26 27
 -10945345.09048  -8528832.12646         0.00041  22546565.87546  22546565.31048
 -24165673.69448 -18830370.54247         0.00041  20744467.00147  20744465.87648
 -12777135.30548  -9956201.25646         0.00041  22919679.12446  22919678.36048
  -6959249.64408  -5422785.95207  23995458.48108  23995460.61007         0.00001
 -23170462.67308 -18054887.71708  20906422.88708  20906424.79308         0.00001
  -2647635.31448  -2063089.15944         0.00041  24746179.98244  24746179.42748
 -13072495.43248 -10186347.32546         0.00041  23021754.44946  23021753.34248
  -8416140.85648  -6558015.86745         0.00041  23849495.12045  23849493.19248
 94 02 05 03 04 30.0000000  0  8 04 07 09 12 13 24 26 27
 -11036840.51548  -8600127.24146         0.00041  22529155.34346  22529154.21348
 -24123988.07248 -18797888.23347         0.00041  20752399.35347  20752398.19248
 -12865822.23948 -10025307.93446         0.00041  22902802.68846  22902802.38548
  -7050285.84608  -5493723.24007  23978134.82808  23978137.07307         0.00001
 -23222830.59308 -18095693.86308  20896457.55508  20896459.53608         0.00001
  -2754469.20248  -2146336.28244         0.00041  24725854.79344  24725847.61448
 -13018592.34548 -10144344.91846         0.00041  23032013.17746  23032011.75848
  -8304588.01748  -6471091.58045         0.00041  23870722.92945  23870720.51848
 94 02 05 03 05 00.0000000  0  8 04 07 09 12 13 24 26 27
 -11128157.93348  -8671283.64646         0.00041  22511777.06546  22511776.35448
 -24082010.64848 -18765178.54547         0.00041  20760387.17047  20760386.02148
 -12954307.15248 -10094257.20046         0.00041  22885964.28746  22885963.89848
  -7141345.04508  -5564678.44307  23960806.80108  23960809.20907         0.00001
 -23274699.55708 -18136111.22308  20886587.22608  20886589.16608         0.00001
  -2861385.62748  -2229647.60044         0.00041  24705506.55344  24705503.57348
 -12964415.79348 -10102129.40346         0.00041  23042322.42746  23042320.35648
  -8192937.16248  -6384090.89445         0.00041  23891971.98145  23891966.72048
 94 02 05 03 05 30.0000000  0  8 04 07 09 12 13 24 26 27
 -11219279.49148  -8742287.43046         0.00041  22494437.04146  22494436.90148
 -24039708.73948 -18732216.01647         0.00041  20768437.02947  20768436.04448
 -13042566.37448 -10163030.59746         0.00041  22869168.29846  22869167.41648
  -7232415.36507  -5635642.31007  23943476.63807  23943479.22207         0.00001
 -23326058.85008 -18176131.43308  20876813.88208  20876815.75408         0.00001
  -2968375.13447  -2313015.92344         0.00041  24685151.46744  24685142.76447
 -12909943.98448 -10059683.84146         0.00041  23052687.17046  23052685.27348
  -8081197.34948  -6297020.94245         0.00041  23913231.67545  23913230.72948
 94 02 05 03 06 00.0000000  0  8 04 07 09 12 13 24 26 27
 -11310264.49948  -8813184.81746         0.00041  22477124.29146  22477123.08848
 -23997169.65848 -18699068.67947         0.00041  20776531.89247  20776531.01548
 -13130670.93648 -10231683.47646         0.00041  22852402.40246  22852402.18348
  -7323579.49808  -5706679.26808  23926128.65608  23926131.27208         0.00001
 -23376992.01308 -18215819.59508  20867121.67908  20867123.49108         0.00001
  -3075542.88747  -2396523.14944         0.00041  24664753.61944  24664749.47447
 -12855251.35948 -10017066.22646         0.00041  23063093.82746  23063092.45348
  -7969439.57548  -6209937.00045         0.00041  23934498.84345  23934497.88548
 94 02 05 03 06 30.0000000  0  8 04 07 09 12 13 24 26 27
 -11400783.16248  -8883718.82746         0.00041  22459898.91546  22459897.67448
 -23954107.73348 -18665513.92147         0.00041  20784726.50347  20784725.49248
 -13218323.47548 -10299984.12846         0.00041  22835723.42846  22835722.67648
  -7414534.20508  -5777553.03108  23908820.61008  23908822.96808         0.00001
 -23427196.87508 -18254940.24708  20857568.00308  20857569.74608         0.00001
  -3182606.11747  -2479948.91945         0.00041  24644378.80645  24644377.21347
 -12800022.34648  -9974030.63346         0.00041  23073604.77946  23073603.53048
  -7857345.37548  -6122590.90945         0.00041  23955829.74145  23955828.42748
 94 02 05 03 07 00.0000000  0  8 04 07 09 12 13 24 26 27
 -11491025.60148  -8954037.57946         0.00041  22442726.08746  22442725.60548
 -23910721.12248 -18631706.16747         0.00041  20792982.51447  20792981.46248
 -13305729.66148 -10368092.81346         0.00041  22819091.81646  22819090.18648
  -7505464.66108  -5848407.89608  23891517.12108  23891519.44008         0.00001
 -23476859.67808 -18293638.51808  20848117.42908  20848119.24008         0.00001
  -3289748.23947  -2563436.14344         0.00041  24623989.37944  24623987.31147
 -12744443.54748  -9930722.48646         0.00041  23084179.77546  23084179.86148
  -7745101.26848  -6035127.95545         0.00041  23977187.60145  23977187.16748
 94 02 05 03 07 30.0000000  0  7 04 07 09 12 13 24 27
 -11581175.81848  -9024284.45146         0.00041  22425571.60146  22425570.33948
 -23867193.93848 -18597788.86647         0.00041  20801265.77647  20801264.27848
 -13393057.10848 -10436140.12546         0.00041  22802472.93446  22802471.79548
  -7596538.93407  -5919374.81007  23874186.07707  23874188.56507         0.00001
 -23526149.31908 -18332046.00008  20838737.79608  20838739.80708         0.00001
  -3397133.06047  -2647112.51744         0.00041  24603556.74144  24603553.13047
  -7632867.16348  -5947672.79645         0.00041  23998547.63745  23998545.14248
 94 02 05 03 08 00.0000000  0  7 04 07 09 12 13 24 27
 -11671111.22548  -9094363.96846         0.00041  22408456.84046  22408456.13548
 -23823417.00548 -18563676.96447         0.00041  20809595.87247  20809594.76548
 -13480192.79848 -10504038.04446         0.00041  22785890.76646  22785889.96548
  -7687627.40607  -5990352.79708  23856852.45507  23856854.88008         0.00001
 -23574937.36208 -18370062.63708  20829453.73908  20829455.70908         0.00001
  -3504635.33247  -2730880.47244         0.00041  24583099.71344  24583096.68447
  -7520501.63448  -5860115.26945         0.00041  24019928.60645  24019927.85448
 94 02 05 03 08 30.0000000  0  8 04 05 07 09 12 13 24 27
 -11760445.41848  -9163975.00546         0.00041  22391456.48646  22391456.37448
        -0.74057         0.21854         0.00051  25370808.30154  25370802.87157
 -23778981.55248 -18529051.93447         0.00041  20818051.91147  20818050.86948
 -13566751.46848 -10571486.31746         0.00041  22769419.40946  22769418.39848
  -7778324.54308  -6061025.85508  23839593.36308  23839595.77408         0.00001
 -23622819.57608 -18407373.43608  20820342.11508  20820343.99208         0.00001
  -3611837.51647  -2814414.52044         0.00041  24562699.10744  24562695.10847
  -7407619.05448  -5772154.83445         0.00041  24041409.61345  24041408.52548
 94 02 05 03 09 00.0000000  0  8 04 05 07 09 12 13 24 27
 -11849320.32748  -9233228.15446         0.00041  22374545.17646  22374543.80448
    -77030.26247    -60022.49144         0.00041  25356144.12544  25356143.88247
 -23734015.86348 -18494013.73147         0.00041  20826608.17447  20826607.21948
 -13652859.35548 -10638583.34346         0.00041  22753033.51246  22753032.63548
  -7868759.15808  -6131494.33808  23822384.41608  23822386.65508         0.00001
 -23669925.91408 -18444079.64408  20811378.02308  20811379.90708         0.00001
  -3718850.72747  -2897801.30544         0.00041  24542331.97044  24542331.71547
  -7294364.48748  -5683904.52446         0.00041  24062960.52846  24062959.78648
 94 02 05 03 09 30.0000000  0  8 04 05 07 09 12 13 24 27
 -11938151.79548  -9302447.44646         0.00041  22357640.73546  22357640.26648
   -154296.91447   -120230.14844         0.00041  25341440.14444  25341438.91047
 -23688939.96248 -18458889.64047         0.00041  20835185.75847  20835184.65848
 -13738942.24048 -10705660.88946         0.00041  22736654.18846  22736652.75648
  -7959356.95607  -6202089.98108  23805144.03307  23805146.45408         0.00001
 -23716683.11408 -18480513.80308  20802480.37708  20802482.32808         0.00001
  -3826081.95547  -2981358.04244         0.00041  24521931.97344  24521927.34847
  -7181173.10448  -5595703.43045         0.00041  24084502.04045  24084499.59648
 94 02 05 03 10 00.0000000  0  8 04 05 07 09 12 13 24 27
 -12026665.62348  -9371419.23646         0.00041  22340797.22046  22340796.69348
   -231537.14147   -180417.23744         0.00041  25326738.58344  25326742.13547
 -23643477.78248 -18423464.56147         0.00041  20843837.19647  20843836.32648
 -13824749.27648 -10772523.47246         0.00041  22720324.06146  22720324.05648
  -8049860.08808  -6272611.85808  23787921.76908  23787924.23308         0.00001
 -23762834.56908 -18516475.96108  20793698.10408  20793699.99208         0.00001
  -3933257.71147  -3064871.53844         0.00041  24501535.40844  24501531.26247
  -7067798.01048  -5507359.26045         0.00041  24106076.26245  24106074.16148
 94 02 05 03 10 30.0000000  0  8 04 05 07 09 12 13 24 27
 -12114970.31848  -9440228.06446         0.00041  22323992.50846  22323992.49048
   -308865.53247   -240672.95744         0.00041  25312028.98144  25312026.96247
 -23597746.21748 -18387829.56547         0.00041  20852540.01247  20852538.93248
 -13910377.55948 -10839246.76746         0.00041  22704031.17446  22704029.81448
  -8140384.11607  -6343150.01008  23770695.40307  23770698.05608         0.00001
 -23808497.11508 -18552057.13908  20785008.78608  20785010.64008         0.00001
  -4040480.85447  -3148422.05444         0.00041  24481128.04444  24481127.60247
  -6954366.77748  -5418971.29545         0.00041  24127662.05345  24127659.04348
 94 02 05 03 11 00.0000000  0  8 04 05 07 09 12 13 24 27
 -12203156.15148  -9508944.28146         0.00041  22307212.71546  22307211.26848
   -386354.79547   -301054.07644         0.00041  25297282.89844  25297278.41447
 -23551859.59548 -18352073.75947         0.00041  20861271.44647  20861270.39948
 -13995899.31848 -10905887.07146         0.00041  22687755.29046  22687754.43748
  -8231026.49708  -6413780.39608  23753446.76908  23753449.45908         0.00001
 -23853769.53408 -18587334.33608  20776393.73708  20776395.60908         0.00001
  -4147852.73347  -3232088.37844         0.00041  24460696.03344  24460695.04947
  -6840965.00748  -5330606.31845         0.00041  24149240.82145  24149238.83448
 94 02 05 03 11 30.0000000  0  8 04 05 07 09 12 13 24 27
 -12290909.11248  -9577323.19546         0.00041  22290513.47046  22290512.38748
   -463707.56347   -361328.88344         0.00041  25282562.62444  25282560.94947
 -23505520.12948 -18315965.08747         0.00041  20870089.82847  20870088.58748
 -14081012.24148 -10972208.80946         0.00041  22671557.97046  22671558.18348
  -8321481.88908  -6484265.07908  23736233.68308  23736236.25108         0.00001
 -23898347.88408 -18622070.69908  20767910.76608  20767912.61008         0.00001
  -4255086.06447  -3315646.72344         0.00041  24440295.59944  24440290.80247
  -6727287.04048  -5242026.06845         0.00041  24170874.12545  24170871.49948
 94 02 05 03 12 00.0000000  0  8 04 05 07 09 12 13 24 27
 -12378528.51248  -9645598.03446         0.00041  22273840.01046  22273838.94648
   -541253.90947   -421754.53744         0.00041  25267800.70844  25267802.85547
 -23459056.02948 -18279759.28847         0.00041  20878931.47847  20878930.58548
 -14166010.29648 -11038441.02346         0.00041  22655383.31546  22655383.15948
  -8412052.57108  -6554839.59108  23718998.73808  23719001.08408         0.00001
 -23942535.80908 -18656502.82208  20759502.02508  20759503.90308         0.00001
  -4362507.08647  -3399351.32044         0.00041  24419848.66544  24419849.53747
  -6613629.37748  -5153461.68645         0.00041  24192499.36345  24192499.28748
 94 02 05 03 12 30.0000000  0  8 04 05 07 09 12 13 24 27
 -12465978.13248  -9713740.56846         0.00041  22257198.59246  22257197.89148
   -618964.79647   -482308.35844         0.00041  25253018.96644  25253015.38347
 -23412460.15348 -18243450.80847         0.00041  20887798.31747  20887797.32448
 -14250850.78848 -11104550.46546         0.00041  22639239.02746  22639238.57348
  -8502697.06608  -6625471.62908  23701749.57908  23701751.85308         0.00001
 -23986293.04108 -18690599.35008  20751175.23208  20751177.15408         0.00001
  -4470092.15447  -3483183.78244         0.00041  24399373.73144  24399375.71047
  -6499948.38748  -5064879.11245         0.00041  24214134.11045  24214131.57848
 94 02 05 03 13 00.0000000  0  8 04 05 07 09 12 13 24 27
 -12553071.59648  -9781605.58946         0.00041  22240624.68346  22240624.74248
   -696660.91148   -542850.75844         0.00041  25238236.09544  25238233.01148
 -23365532.83748 -18206884.06747         0.00041  20896728.34747  20896727.53648
 -14335358.96148 -11170400.97546         0.00041  22623158.16346  22623157.79248
  -8593220.82308  -6696009.58908  23684523.39408  23684525.72108         0.00001
 -24029426.63508 -18724209.92608  20742967.20408  20742969.08008         0.00001
  -4577651.82147  -3566996.41944         0.00041  24378911.72744  24378905.91747
  -6386049.11948  -4976126.43745         0.00041  24235807.89045  24235806.58048
 94 02 05 03 13 30.0000000  0  8 04 05 07 09 12 13 24 27
 -12639862.16748  -9849234.59546         0.00041  22224109.99246  22224108.85148
   -774418.96348   -603441.42344         0.00041  25223439.16944  25223437.61948
 -23318310.25948 -18170087.25547         0.00041  20905714.47047  20905713.32848
 -14419605.60048 -11236047.68346         0.00041  22607127.56146  22607126.33148
  -8683675.12808  -6766493.43108  23667310.50308  23667312.94108         0.00001
 -24071989.39208 -18757375.69408  20734867.80108  20734869.62908         0.00001
  -4685220.55547  -3650816.16345         0.00041  24358439.22645  24358436.39847
  -6271997.38948  -4887254.96845         0.00041  24257513.67245  24257510.04648
 94 02 05 03 14 00.0000000  0  8 04 05 07 09 12 13 24 27
 -12726374.04248  -9916646.43946         0.00041  22207646.95046  22207645.98148
   -852263.63448   -664099.57444         0.00041  25208623.63644  25208622.05048
 -23270814.03548 -18133077.21147         0.00041  20914752.72547  20914751.95848
 -14503609.62148 -11301505.34446         0.00041  22591141.08046  22591140.72748
  -8774083.14108  -6836941.20008  23650106.51608  23650108.72808         0.00001
 -24114005.84008 -18790115.76708  20726872.33608  20726874.14308         0.00001
  -4792799.61347  -3734643.96145         0.00041  24337970.28245  24337967.66247
  -6157828.80748  -4798292.45045         0.00041  24279238.72645  24279235.61248
 94 02 05 03 14 30.0000000  0  8 04 05 07 09 12 13 24 27
 -12812603.49248  -9983838.20446         0.00041  22191238.07546  22191237.45448
   -930174.82848   -724809.49644         0.00041  25193800.30444  25193795.88948
 -23223010.85548 -18095827.97847         0.00041  20923849.33147  20923848.43648
 -14587374.99248 -11366777.04046         0.00041  22575201.82746  22575200.22848
  -8864437.30608  -6907347.00508  23632912.59708  23632914.88008         0.00001
 -24155470.23408 -18822425.66608  20718981.90008  20718983.73408         0.00001
  -4900369.69447  -3818464.68145         0.00041  24317498.56045  24317497.05447
  -6043551.07248  -4709244.83745         0.00041  24300983.86445  24300982.03348
 94 02 05 03 15 00.0000000  0  8 04 05 07 09 12 13 24 27
 -12898507.49048 -10050776.35446         0.00041  22174891.40146  22174889.89248
  -1008121.13247   -785546.85544         0.00041  25178960.78244  25178961.97547
 -23174848.52848 -18058298.88847         0.00041  20933014.27547  20933013.45848
 -14670863.13548 -11431832.71746         0.00041  22559313.93546  22559313.14748
  -8954703.50108  -6977684.26208  23615735.50708  23615737.81508         0.00001
 -24196349.56608 -18854279.67308  20711202.82308  20711204.66808         0.00001
  -5007881.72747  -3902240.25144         0.00041  24297042.60044  24297037.74747
  -5929139.00248  -4620092.58245         0.00041  24322754.94445  24322753.57048
 94 02 05 03 15 30.0000000  0  8 04 05 07 09 12 13 24 27
 -12984132.01748 -10117496.76346         0.00041  22158597.50646  22158596.26848
  -1086169.18547   -846363.48644         0.00041  25164111.92544  25164108.98547
 -23126410.09148 -18020554.64947         0.00041  20942231.87947  20942230.94948
 -14754128.75548 -11496715.01146         0.00041  22543469.24846  22543468.22548
  -9044952.47308  -7048008.10508  23598561.84708  23598564.03608         0.00001
 -24236716.52708 -18885734.42808  20703521.18108  20703523.03808         0.00001
  -5115407.75847  -3986026.71545         0.00041  24276574.49945  24276574.96047
  -5814673.89748  -4530899.01245         0.00041  24344536.33945  24344535.40148
 94 02 05 03 16 00.0000000  0  8 04 05 07 09 12 13 24 27
 -13069371.59848 -10183917.19946         0.00041  22142376.86946  22142375.66148
  -1164202.06348   -907168.26544         0.00041  25149263.70144  25149263.20848
 -23077605.58548 -17982525.16347         0.00041  20951519.00047  20951517.88948
 -14837058.99448 -11561335.97346         0.00041  22527688.02146  22527687.59048
  -9135082.36108  -7118239.15108  23581410.63808  23581412.81008         0.00001
 -24276470.75208 -18916711.72808  20695956.24308  20695958.04408         0.00001
  -5222871.38947  -4069764.51345         0.00041  24256127.10445  24256126.34747
  -5700050.95048  -4441582.43945         0.00041  24366350.43145  24366347.59548
 94 02 05 03 16 30.0000000  0  8 04 05 07 09 12 13 24 27
 -13154257.56248 -10250062.09046         0.00041  22126223.38946  22126222.60048
  -1242232.92148   -967971.43844         0.00041  25134413.63844  25134412.20948
 -23028459.23548 -17944229.30247         0.00041  20960871.71747  20960870.44848
 -14919675.14848 -11625712.18346         0.00041  22511966.93046  22511966.10648
  -9225116.13708  -7188395.30008  23564277.62508  23564279.90308         0.00001
 -24315637.17108 -18947230.99508  20688503.12908  20688504.92308         0.00001
  -5330309.18848  -4153482.23644         0.00041  24235683.18244  24235681.99448
  -5585290.22448  -4352158.51045         0.00041  24388187.22745  24388186.18548
 94 02 05 03 17 00.0000000  0  8 04 05 07 09 12 13 24 27
 -13238817.18248 -10315952.70146         0.00041  22110131.92346  22110131.31148
  -1320275.69748  -1028783.94744         0.00041  25119571.80944  25119562.05648
 -22979015.80348 -17905701.95247         0.00041  20970280.07847  20970279.08648
 -15001984.78248 -11689849.55646         0.00041  22496303.45146  22496302.90748
  -9315075.75708  -7258493.66308  23547158.90108  23547160.94208         0.00001
 -24354239.15608 -18977310.44108  20681157.40308  20681159.21108         0.00001
  -5437748.88947  -4237201.44944         0.00041  24215239.80244  24215234.70347
  -5470413.10348  -4262643.94245         0.00041  24410049.81345  24410046.75548
 94 02 05 03 17 30.0000000  0  8 04 05 07 09 12 13 24 27
 -13323048.84048 -10381587.74046         0.00041  22094103.20446  22094102.52948
  -1398306.64548  -1089587.23044         0.00041  25104715.93844  25104714.67748
 -22929270.42748 -17866939.31247         0.00041  20979746.56447  20979745.31648
 -15083981.10248 -11753742.79746         0.00041  22480700.08646  22480699.04948
  -9404947.52908  -7328523.58708  23530056.89908  23530058.83908         0.00001
 -24392264.88708 -19006940.86608  20673921.34708  20673923.02508         0.00001
  -5545188.39148  -4320920.44845         0.00041  24194791.08645  24194790.95748
  -5355414.63148  -4173034.74545         0.00041  24431931.59045  24431929.94048
 94 02 05 03 18 00.0000000  0  8 04 05 07 09 12 13 24 27
 -13407005.48648 -10447008.48546         0.00041  22078126.37846  22078125.71748
  -1476347.29248  -1150398.13344         0.00041  25089860.62644  25089863.19048
 -22879258.71948 -17827969.14647         0.00041  20989263.27547  20989262.01648
 -15165696.26948 -11817416.93946         0.00041  22465151.00646  22465149.76948
  -9494757.53708  -7398505.37408  23512966.58308  23512968.60908         0.00001
 -24429742.20508 -19036143.95508  20666789.68708  20666791.36308         0.00001
  -5652650.85648  -4404657.39545         0.00041  24174345.96045  24174341.94748
  -5240320.24348  -4083350.82345         0.00041  24453835.26945  24453831.11848
 94 02 05 03 18 30.0000000  0  8 04 05 07 09 12 13 24 27
 -13490657.87148 -10512192.15146         0.00041  22062207.79646  22062207.56448
  -1554384.93047  -1211206.62444         0.00041  25075011.11744  25075007.69547
 -22828955.28548 -17788771.66047         0.00041  20998835.69647  20998834.63148
 -15247098.48148 -11880847.23346         0.00041  22449660.73246  22449659.37348
  -9584474.78508  -7468414.88508  23495893.81908  23495895.90408         0.00001
 -24466642.02608 -19064897.04608  20659767.88308  20659769.51608         0.00001
  -5760096.30848  -4488381.07445         0.00041  24153895.98645  24153895.36048
  -5125109.83448  -3993576.48446         0.00041  24475758.10246  24475755.18348
 94 02 05 03 19 00.0000000  0  8 04 05 07 09 12 13 24 27
 -13574021.12848 -10577150.51746         0.00041  22046345.49246  22046344.22848
  -1632464.46447  -1272047.79844         0.00041  25060157.16544  25060152.36347
 -22778398.71548 -17749376.92247         0.00041  21008456.44947  21008455.49648
 -15328211.95848 -11944052.52146         0.00041  22434224.14646  22434223.61848
  -9674121.92308  -7538269.76008  23478834.56308  23478836.63308         0.00001
 -24502988.86808 -19093219.23808  20652851.22608  20652852.96608         0.00001
  -5867543.57247  -4572106.13944         0.00041  24133451.01244  24133447.96947
  -5009811.97948  -3903734.02045         0.00041  24497697.94245  24497695.92248
 94 02 05 03 19 30.0000000  0  8 04 05 07 09 12 13 24 27
 -13657067.23348 -10641861.74846         0.00041  22030542.54846  22030541.10548
  -1710594.94347  -1332928.54644         0.00041  25045287.94444  25045283.53347
 -22727573.93048 -17709773.18447         0.00041  21018127.85147  21018126.59348
 -15409028.76348 -12007026.63746         0.00041  22418845.66646  22418845.51748
  -9763683.98408  -7608058.33708  23461791.43408  23461793.47608         0.00001
 -24538769.42108 -19121100.16408  20646042.36708  20646044.10308         0.00001
  -5974963.54747  -4655809.94444         0.00041  24113008.74444  24113006.50747
  -4894405.51248  -3813806.91745         0.00041  24519659.94645  24519656.89748
 94 02 05 03 20 00.0000000  0  8 04 05 07 09 12 13 24 27
 -13739845.64648 -10706364.38746         0.00041  22014789.73246  22014788.98048
  -1788857.19548  -1393912.04144         0.00041  25030400.74244  25030393.72448
 -22676539.31148 -17670005.93747         0.00041  21027840.03247  21027838.60948
 -15489594.29948 -12069804.95446         0.00041  22403515.19446  22403514.00348
  -9853217.07808  -7677824.35208  23444753.80208  23444755.85908         0.00001
 -24574041.79708 -19148585.11408  20639330.25308  20639332.00108         0.00001
  -6082408.93747  -4739533.55644         0.00041  24092564.33544  24092560.59647
  -4778947.67148  -3723839.77945         0.00041  24541630.94945  24541627.76948
 94 02 05 03 20 30.0000000  0  8 04 05 07 09 12 13 24 27
 -13822176.64648 -10770518.39946         0.00041  21999122.61146  21999121.54548
  -1867093.20548  -1454875.05144         0.00041  25015507.77244  25015505.99648
 -22625136.09748 -17629951.48247         0.00041  21037621.15547  21037620.02848
 -15569749.66748 -12132263.67546         0.00041  22388261.69746  22388260.51348
  -9942560.44108  -7747442.53108  23427752.24908  23427754.29608         0.00001
 -24608647.53008 -19175550.60708  20632745.03408  20632746.75408         0.00001
  -6189715.28548  -4823148.85145         0.00041  24072143.67045  24072141.07148
  -4663282.34448  -3633710.94745         0.00041  24563638.32845  24563637.64148
 94 02 05 03 21 00.0000000  0  8 04 05 07 09 12 13 24 27
 -13904052.44548 -10834317.71346         0.00041  21983542.97646  21983541.20248
  -1945283.68948  -1515802.55045         0.00041  25000626.77445  25000625.96748
 -22573359.65848 -17589606.20447         0.00041  21047474.05747  21047472.85348
 -15649495.03948 -12194402.91146         0.00041  22373085.68746  22373085.02948
 -10031710.99308  -7816910.46708  23410787.45208  23410789.44508         0.00001
 -24642585.09108 -19201995.44308  20626286.88508  20626288.61208         0.00001
  -6296869.42948  -4906645.57045         0.00041  24051752.98245  24051750.42248
  -4547398.48248  -3543411.87145         0.00041  24585692.85645  24585689.71348
 94 02 05 03 21 30.0000000  0  8 04 05 07 09 12 13 24 27
 -13985681.43348 -10897924.69446         0.00041  21968008.70846  21968007.70248
  -2023614.71648  -1576839.55144         0.00041  24985727.14544  24985720.82848
 -22521413.38848 -17549128.58247         0.00041  21057358.76947  21057357.91548
 -15729039.71448 -12256385.76346         0.00041  22357949.19246  22357948.58448
 -10120877.87908  -7886391.13108  23393819.60508  23393821.47008         0.00001
 -24676065.82608 -19228084.31208  20619915.65708  20619917.41708         0.00001
  -6404082.40248  -4990188.12245         0.00041  24031348.14245  24031348.04948
  -4431510.28248  -3453109.40145         0.00041  24607746.41045  24607743.42448
 94 02 05 03 22 00.0000000  0  8 04 05 07 09 12 13 24 27
 -14066976.24348 -10961271.28246         0.00041  21952538.73146  21952537.89048
  -2101977.00748  -1637900.96844         0.00041  24970808.14244  24970807.47048
 -22469218.62848 -17508457.33447         0.00041  21067290.90347  21067290.15848
 -15808297.11148 -12318144.75946         0.00041  22342866.86146  22342866.59548
 -10209973.82808  -7955816.52008  23376865.10208  23376867.19408         0.00001
 -24709004.50108 -19253750.79208  20613647.61908  20613649.33708         0.00001
  -6511282.80548  -5073720.87545         0.00041  24010953.29945  24010948.28648
  -4315545.28448  -3362747.05545         0.00041  24629811.95545  24629810.52848
 94 02 05 03 22 30.0000000  0  8 04 05 07 09 12 13 24 27
 -14147953.22548 -11024370.20646         0.00041  21937129.22746  21937128.64048
  -2180363.66648  -1698981.38044         0.00041  24955893.73144  24955889.64448
 -22416796.13348 -17467608.62747         0.00041  21077266.98347  21077265.98748
 -15887299.08048 -12379704.70846         0.00041  22327834.05946  22327833.25548
 -10299019.22008  -8025202.52008  23359920.33108  23359922.40308         0.00001
 -24741423.60008 -19279012.40908  20607478.43908  20607480.17608         0.00001
  -6618491.09448  -5157259.71544         0.00041  23990549.47044  23990546.78248
  -4199518.58048  -3272336.64345         0.00041  24651893.46945  24651889.44848
 94 02 05 03 23 00.0000000  0  8 04 05 07 09 12 13 24 27
 -14228620.40948 -11087227.74046         0.00041  21921778.54946  21921778.15748
  -2258789.93948  -1760092.61744         0.00041  24940967.90144  24940966.17248
 -22364136.65848 -17426575.26747         0.00041  21087288.02147  21087286.70048
 -15966052.30648 -12441070.84546         0.00041  22312847.78646  22312846.79648
 -10388015.43108  -8094550.20008  23342984.88008  23342986.90008         0.00001
 -24773326.61308 -19303871.88108  20601407.50708  20601409.24008         0.00001
  -6725702.34048  -5240800.89544         0.00041  23970147.58044  23970146.13948
  -4083437.64948  -3181883.93845         0.00041  24673981.62445  24673979.50048
 94 02 05 03 23 30.0000000  0  8 04 05 07 09 12 13 24 27
 -14308938.73848 -11149813.43146         0.00041  21906494.78146  21906493.88248
  -2337240.74448  -1821222.93144         0.00041  24926042.21944  24926039.24248
 -22311216.08748 -17385338.45447         0.00041  21097358.07147  21097356.91748
 -16044524.11248 -12502217.67646         0.00041  22297914.76546  22297914.09848
 -10476929.21908  -8163833.65408  23326065.09208  23326067.14908         0.00001
 -24804682.54808 -19328305.05608  20595440.62508  20595442.39208         0.00001
  -6832889.22348  -5324323.10145         0.00041  23949750.72145  23949749.05148
  -3967297.40448  -3091385.05145         0.00041  24696079.85845  24696079.62448
 94 02 05 03 24 00.0000000  0  8 04 05 07 09 12 13 24 27
 -14388875.45948 -11212101.76646         0.00041  21891282.56646  21891282.21048
  -2415710.10748  -1882367.89345         0.00041  24911106.82245  24911107.60848
 -22258010.15748 -17343879.28447         0.00041  21107483.12447  21107482.14748
 -16122686.68748 -12563123.56446         0.00041  22283040.13546  22283039.95348
 -10565731.01908  -8233029.84808  23309166.62908  23309168.74608         0.00001
 -24835463.91508 -19352290.52208  20589583.10008  20589584.91108         0.00001
  -6940012.96848  -5407796.11345         0.00041  23929365.40745  23929364.09248
  -3851083.87748  -3000829.06945         0.00041  24718200.30745  24718194.19548
 94 02 05 03 24 30.0000000  0  8 04 05 07 09 12 13 24 27
 -14468452.69648 -11274109.99046         0.00041  21876139.68646  21876139.37648
  -2494238.33048  -1943558.56144         0.00041  24896160.38844  24896162.71448
 -22204532.22348 -17302208.16347         0.00041  21117659.11747  21117658.03548
 -16200544.68448 -12623792.10646         0.00041  22268224.93646  22268223.93148
 -10654433.97708  -8302149.01208  23292287.03308  23292289.07008         0.00001
 -24865686.13108 -19375840.28508  20583831.94008  20583833.74408         0.00001
  -7047067.22048  -5491214.97545         0.00041  23908992.49845  23908992.32048
  -3734824.97848  -2910237.74445         0.00041  24740316.57245  24740318.39448
 94 02 05 03 25 00.0000000  0  8 04 05 07 09 12 13 24 27
 -14547806.11348 -11335943.79546         0.00041  21861039.51946  21861039.18448
  -2572973.79648  -2004910.75044         0.00041  24881182.78844  24881179.66248
 -22150928.27848 -17260438.84347         0.00041  21127859.89947  21127859.04448
 -16278207.99548 -12684308.95346         0.00041  22253446.07346  22253445.36748
 -10743166.89608  -8371291.51708  23275401.54608  23275403.72008         0.00001
 -24895480.15208 -19399056.38108  20578162.29108  20578164.11908         0.00001
  -7154176.70347  -5574676.89744         0.00041  23888611.64344  23888608.36147
  -3618669.82047  -2819727.25244         0.00041  24762423.72344  24762421.92247
 94 02 05 03 25 30.0000000  0  8 04 05 07 09 12 13 24 27
 -14626662.08048 -11397389.98546         0.00041  21846033.24446  21846033.24948
  -2651637.44548  -2066207.18544         0.00041  24866209.51844  24866210.28448
 -22096955.72548 -17218382.31147         0.00041  21138130.46747  21138129.49948
 -16355387.13648 -12744448.52146         0.00041  22238758.94746  22238758.62548
 -10831659.19208  -8440246.53408  23258562.06508  23258564.06408         0.00001
 -24924577.76908 -19421729.83808  20572625.22508  20572627.00408         0.00001
  -7261080.02848  -5657978.15845         0.00041  23868268.81845  23868266.26848
  -3502348.69347  -2729087.51244         0.00041  24784557.23944  24784556.00147
 94 02 05 03 26 00.0000000  0  8 04 05 07 09 12 13 24 27
 -14705033.69048 -11458458.76146         0.00041  21831119.89246  21831119.15948
  -2730218.10848  -2127438.53645         0.00041  24851263.17345  24851257.02148
 -22042615.89148 -17176039.58647         0.00041  21148471.40247  21148470.18748
 -16432081.27848 -12804210.17146         0.00041  22224165.46046  22224164.55448
 -10919911.01708  -8509014.17208  23241768.46408  23241770.31808         0.00001
 -24952981.45408 -19443862.57008  20567220.19908  20567221.94008         0.00001
  -7367776.00748  -5741117.88945         0.00041  23847965.55145  23847963.70848
  -3385832.03147  -2638295.26145         0.00041  24806728.19545  24806728.79647
 94 02 05 03 26 30.0000000  0  8 04 05 07 09 12 13 24 27
 -14783056.47048 -11519255.71546         0.00041  21816273.29346  21816272.28548
  -2808830.57248  -2188694.92944         0.00041  24836299.63444  24836296.82848
 -21988037.09548 -17133510.65447         0.00041  21158857.31747  21158856.00648
 -16508411.59548 -12863688.31846         0.00041  22209639.60546  22209639.11848
 -11008046.97008  -8577691.51308  23224996.57108  23224998.76408         0.00001
 -24980818.00908 -19465553.37408  20561923.05608  20561924.83508         0.00001
  -7474404.22348  -5824204.75845         0.00041  23827673.14545  23827672.78148
  -3269229.01147  -2547435.75344         0.00041  24828918.97244  24828917.23147
 94 02 05 03 27 00.0000000  0  8 04 05 07 09 12 13 24 27
 -14860792.18148 -11579828.97846         0.00041  21801480.77446  21801479.25348
  -2887519.86548  -2250011.18545         0.00041  24821322.51245  24821322.42248
 -21933280.11748 -17090842.87947         0.00041  21169277.20647  21169275.86048
 -16584458.68848 -12922945.77346         0.00041  22195168.52346  22195168.18848
 -11096129.99208  -8646327.60508  23208234.99908  23208236.96708         0.00001
 -25008152.93408 -19486853.30108  20556721.36808  20556723.15208         0.00001
  -7581048.01948  -5907303.81645         0.00041  23807381.47345  23807379.63748
  -3152587.67647  -2456546.40644         0.00041  24851111.48344  24851113.38347
 94 02 05 03 27 30.0000000  0  8 04 05 07 09 12 13 24 27
 -14938196.08948 -11640143.69146         0.00041  21786751.06446  21786749.97048
  -2966254.88148  -2311363.00045         0.00041  24806339.94745  24806340.49448
 -21878299.05348 -17048000.49247         0.00041  21179739.37647  21179738.62848
 -16660200.84248 -12981965.61846         0.00041  22180755.62546  22180754.99348
 -11184122.10908  -8714892.86008  23191490.52308  23191492.54608         0.00001
 -25034950.85908 -19507734.78808  20551621.87908  20551623.64808         0.00001
  -7687675.27248  -5990389.93245         0.00041  23787090.87245  23787088.75648
  -3035866.47847  -2365594.88044         0.00041  24873329.05444  24873325.24947
 94 02 05 03 28 00.0000000  0  8 04 05 07 09 12 13 24 27
 -15015245.91448 -11700182.50046         0.00041  21772089.05546  21772087.95748
  -3045004.29048  -2372726.10044         0.00041  24791357.11444  24791353.90348
 -21823042.10848 -17004943.12947         0.00041  21190254.33047  21190253.44948
 -16735621.96748 -13040735.30546         0.00041  22166402.79946  22166402.09648
 -11271992.39408  -8783363.18208  23174769.46108  23174771.49408         0.00001
 -25061183.09408 -19528175.47808  20546630.09108  20546631.83108         0.00001
  -7794262.90448  -6073445.22645         0.00041  23766805.83145  23766805.63648
  -2919045.16347  -2274565.31744         0.00041  24895557.35044  24895555.57847
 94 02 05 03 28 30.0000000  0  8 04 05 07 09 12 13 24 27
 -15091959.84348 -11759959.57146         0.00041  21757489.63046  21757489.62548
  -3123797.71447  -2434123.50444         0.00041  24776361.50244  24776359.93147
 -21767540.76848 -16961695.32947         0.00041  21200816.54147  21200815.47248
 -16810744.35048 -13099272.21046         0.00041  22152107.19946  22152106.71648
 -11359767.72408  -8851759.51208  23158066.26508  23158068.35808         0.00001
 -25086879.18508 -19548198.38708  20541740.21108  20541741.96408         0.00001
  -7900844.89048  -6156496.05345         0.00041  23746526.75145  23746524.40948
  -2802179.56447  -2183501.17044         0.00041  24917800.45444  24917794.69247
 94 02 05 03 29 00.0000000  0  8 04 05 07 09 12 13 24 27
 -15168272.95048 -11819424.31546         0.00041  21742969.10946  21742967.71448
  -3202602.72348  -2495529.83644         0.00041  24761368.64944  24761366.13248
 -21711755.81248 -16918226.53047         0.00041  21211431.95547  21211430.65448
 -16885516.28148 -13157536.03346         0.00041  22137877.91146  22137877.98748
 -11447408.02208  -8920050.61808  23141388.92208  23141390.91808         0.00001
 -25112001.24408 -19567773.99408  20536959.59808  20536961.37908         0.00001
  -8007367.86848  -6239501.03345         0.00041  23726255.35745  23726253.27948
  -2685244.38647  -2092382.86144         0.00041  24940043.78644  24940046.60347
 94 02 05 03 29 30.0000000  0  8 04 05 07 09 12 13 24 27
 -15244170.85848 -11878565.53046         0.00041  21728525.11746  21728524.81348
  -3281421.24348  -2556946.71644         0.00041  24746367.95044  24746365.42348
 -21655687.91048 -16874537.26447         0.00041  21222101.07647  21222099.73248
 -16959903.57248 -13215500.13846         0.00041  22123723.29146  22123722.97248
 -11534904.62108  -8988229.76508  23124738.74408  23124740.88108         0.00001
 -25136543.44108 -19586897.77808  20532289.37108  20532291.15308         0.00001
  -8113807.05448  -6322440.61745         0.00041  23705998.63245  23705997.92748
  -2568245.47047  -2001214.90044         0.00041  24962316.36344  24962310.64247
 94 02 05 03 30 00.0000000  0  8 04 05 07 09 12 13 24 27
 -15319604.08948 -11937344.65746         0.00041  21714171.41646  21714170.69148
  -3360201.66347  -2618333.98544         0.00041  24731373.83344  24731373.45347
 -21599302.20548 -16830600.34947         0.00041  21232830.42147  21232829.59648
 -17033859.63648 -13273128.22446         0.00041  22109649.77846  22109649.80848
 -11622216.21908  -9056264.74008  23108123.90208  23108126.01008         0.00001
 -25160466.99108 -19605539.48908  20527736.90008  20527738.64808         0.00001
  -8220109.48448  -6405273.66945         0.00041  23685770.72045  23685768.75048
  -2451141.86548  -1909965.40145         0.00041  24984595.18345  24984594.18248
 94 02 05 03 30 30.0000000  0  8 04 05 07 09 12 13 24 27
 -15394743.77548 -11995895.05046         0.00041  21699872.56646  21699871.75848
  -3439138.97648  -2679843.43244         0.00041  24716358.87344  24716353.24248
 -21542804.84048 -16786576.42747         0.00041  21243582.12647  21243580.91548
 -17107553.38748 -13330551.92346         0.00041  22095627.12746  22095626.00248
 -11709526.14608  -9124298.41608  23091509.26608  23091511.37708         0.00001
 -25183957.87508 -19623844.06008  20523266.74808  20523268.46408         0.00001
  -8326436.72748  -6488126.06145         0.00041  23665538.81045  23665535.79148
  -2334126.19148  -1818784.35845         0.00041  25006865.47445  25006861.82948
 94 02 05 03 31 00.0000000  0  8 04 05 07 09 12 13 24 27
 -15469418.58348 -12054083.19246         0.00041  21685662.27946  21685661.84648
  -3518083.96148  -2741358.92644         0.00041  24701335.29344  24701330.67948
 -21486041.23048 -16742345.04447         0.00041  21254383.53647  21254382.36748
 -17180827.57048 -13387648.66946         0.00041  22081683.46146  22081682.66648
 -11796667.77908  -9192200.96008  23074926.88108  23074928.97108         0.00001
 -25206852.12108 -19641683.72208  20518910.14808  20518911.91308         0.00001
  -8432601.23848  -6570851.65645         0.00041  23645334.63945  23645333.82148
  -2217026.62048  -1727537.97145         0.00041  25029146.31545  25029145.92048
 94 02 05 03 31 30.0000000  0  8 04 05 07 09 12 13 24 27
 -15543686.13448 -12111954.00546         0.00041  21671530.00046  21671529.21848
  -3597082.25647  -2802915.98544         0.00041  24686301.03944  24686296.67747
 -21429057.13048 -16697941.84547         0.00041  21265227.58147  21265226.57348
 -17253732.98848 -13444458.06546         0.00041  22067809.36846  22067808.95248
 -11883679.72208  -9260002.43508  23058368.99008  23058371.10808         0.00001
 -25229191.02908 -19659090.64408  20514659.14108  20514660.93008         0.00001
  -8538639.72148  -6653479.04645         0.00041  23625156.73645  23625155.80848
  -2099887.49748  -1636260.73745         0.00041  25051437.82445  25051436.14848
 94 02 05 03 32 00.0000000  0  8 04 05 07 09 12 13 24 27
 -15617598.68748 -12169548.19046         0.00041  21657464.88346  21657463.69048
  -3676188.32247  -2864556.98644         0.00041  24671242.68344  24671242.87747
 -21371907.18848 -16653409.41947         0.00041  21276102.33047  21276101.55048
 -17326333.85548 -13501030.16646         0.00041  22053994.22546  22053993.56748
 -11970606.97308  -9327737.92508  23041827.26208  23041829.39408         0.00001
 -25251022.14408 -19676101.89508  20510504.75008  20510506.56808         0.00001
  -8644595.87048  -6736042.27545         0.00041  23604995.62545  23604992.52048
  -1982754.22148  -1544988.07245         0.00041  25073730.48445  25073725.84248
 94 02 05 03 32 30.0000000  0  8 04 05 07 09 12 13 24 27
 -15691086.79048 -12226811.64946         0.00041  21643480.05146  21643479.28348
  -3755330.74347  -2926226.32344         0.00041  24656180.74744  24656183.25447
 -21314516.74548 -16608689.58647         0.00041  21287023.50947  21287022.72148
 -17398557.25048 -13557308.12546         0.00041  22040250.57946  22040249.50748
 -12057365.61008  -9395342.02308  23025317.70608  23025319.72308         0.00001
 -25272264.35208 -19692654.25708  20506462.59308  20506464.25908         0.00001
  -8750399.14948  -6818486.36945         0.00041  23584860.98045  23584858.06248
  -1865539.55548  -1453651.98445         0.00041  25096034.84445  25096030.67148
 94 02 05 03 33 00.0000000  0  8 04 05 07 09 12 13 24 27
 -15764161.20248 -12283752.74646         0.00041  21629574.58146  21629573.96148
  -3834514.22748  -2987927.70244         0.00041  24641119.94744  24641116.51748
 -21256886.20848 -16563782.67247         0.00041  21297990.53847  21297989.63548
 -17470430.89148 -13613313.54646         0.00041  22026573.23146  22026572.74048
 -12143964.80808  -9462821.88008  23008838.29408  23008840.39208         0.00001
 -25292929.73808 -19708757.14308  20502530.08108  20502531.73308         0.00001
  -8856077.92548  -6900833.45845         0.00041  23564752.10845  23564747.90948
  -1748240.19148  -1362249.89544         0.00041  25118351.27844  25118351.84748
 94 02 05 03 33 30.0000000  0  8 04 05 07 09 12 13 24 27
 -15836873.38748 -12340411.58546         0.00041  21615738.18746  21615737.24448
  -3913765.94447  -3049682.22244         0.00041  24626035.33244  24626033.72747
 -21199052.39848 -16518717.35647         0.00041  21308995.97947  21308994.59748
 -17541989.97548 -13669073.86646         0.00041  22012956.65746  22012955.81248
 -12230443.91208  -9530208.16208  22992381.88408  22992383.92408         0.00001
 -25313060.43508 -19724443.38608  20498699.32008  20498700.98308         0.00001
  -8961688.70348  -6983127.56145         0.00041  23544652.04245  23544651.59348
  -1630899.29548  -1270815.45244         0.00041  25140683.29944  25140681.59548
 94 02 05 03 34 00.0000000  0  8 04 05 07 09 12 13 24 27
 -15909191.85348 -12396763.63246         0.00041  21601976.65946  21601975.48048
  -3993062.71647  -3111471.89044         0.00041  24610947.35244  24610943.19747
 -21141016.39248 -16473494.48947         0.00041  21320039.52847  21320038.67548
 -17613224.24448 -13724581.08146         0.00041  21999400.67046  21999400.05748
 -12316792.17508  -9597492.49208  22975950.31108  22975952.32008         0.00001
 -25332648.45408 -19739706.76708  20494971.79908  20494973.55108         0.00001
  -9067233.92548  -7065370.56645         0.00041  23524569.56645  23524567.96248
  -1513507.33547  -1179341.23144         0.00041  25163024.94244  25163020.37847
 94 02 05 03 34 30.0000000  0  8 04 05 07 09 12 13 24 27
 -15981191.44048 -12452867.19046         0.00041  21588275.36646  21588274.47248
  -4072478.74547  -3173354.43744         0.00041  24595833.21144  24595832.55447
 -21082860.83148 -16428178.45946         0.00041  21331106.49146  21331105.17348
 -17684207.63548 -13779892.79646         0.00041  21985893.57746  21985892.30948
 -12403097.89808  -9664743.65608  22959526.88308  22959528.89008         0.00001
 -25351785.07308 -19754618.39108  20491330.20808  20491331.88408         0.00001
  -9172811.74448  -7147639.02445         0.00041  23504478.24045  23504476.06648
  -1396172.10447  -1087911.08444         0.00041  25185356.50144  25185348.36947
 94 02 05 03 35 00.0000000  0  8 04 05 07 09 12 13 24 27
 -16052571.55948 -12508488.05246         0.00041  21574692.40046  21574691.49648
  -4151713.47848  -3235095.79644         0.00041  24580754.20644  24580754.92948
 -21024291.26348 -16382539.82947         0.00041  21342251.71147  21342250.89448
 -17754611.25648 -13834752.76246         0.00041  21972495.62246  21972495.01048
 -12489062.81108  -9731729.28708  22943168.26108  22943170.37808         0.00001
 -25370174.90408 -19768948.13608  20487830.71608  20487832.46808         0.00001
  -9278106.48048  -7229686.81445         0.00041  23484441.18845  23484439.34148
  -1278625.45047   -996316.36944         0.00041  25207720.78444  25207716.71947
 94 02 05 03 35 30.0000000  0  7 04 05 07 09 12 13 24
 -16123461.48448 -12563726.95046         0.00041  21561202.36146  21561201.16748
  -4230894.91547  -3296795.51744         0.00041  24565686.65144  24565685.40047
 -20965446.40348 -16336686.68146         0.00041  21353449.48846  21353448.53048
 -17824542.06148 -13889244.30046         0.00041  21959188.23746  21959188.07848
 -12574808.42308  -9798544.01308  22926851.50408  22926853.41608         0.00001
 -25387942.48508 -19782792.98808  20484449.67408  20484451.39508         0.00001
  -9383226.95248  -7311598.87645         0.00041  23464437.96045  23464436.06048
 94 02 05 03 36 00.0000000  0  7 04 05 07 09 12 13 24
 -16193974.55548 -12618672.19346         0.00041  21547783.85146  21547783.16748
  -4310140.17947  -3358544.98045         0.00041  24550606.36445  24550604.60747
 -20906433.35548 -16290702.47846         0.00041  21364679.66446  21364678.18848
 -17894105.43648 -13943449.51846         0.00041  21945950.59346  21945950.29648
 -12660444.14808  -9865273.12308  22910555.52408  22910557.37708         0.00001
 -25405199.96008 -19796240.36108  20481165.70608  20481167.39308         0.00001
  -9488278.20748  -7393456.95445         0.00041  23444448.54045  23444445.42448
 94 02 05 03 36 30.0000000  0  7 04 05 07 09 12 13 24
 -16264150.47548 -12673354.71446         0.00041  21534430.34446  21534429.00848
  -4389471.99047  -3420361.91845         0.00041  24535508.42245  24535509.71547
 -20847258.38248 -16244592.10246         0.00041  21375940.08746  21375938.70148
 -17963315.59648 -13997379.50646         0.00041  21932781.10946  21932779.85248
 -12745982.30508  -9931926.20708  22894278.13008  22894280.14408         0.00001
 -25421962.61308 -19809302.15208  20477975.88608  20477977.51708         0.00001
  -9593257.12248  -7475258.70246         0.00041  23424470.58446  23424468.92348
 94 02 05 03 37 00.0000000  0  7 04 05 07 09 12 13 24
 -16333934.84648 -12727732.15246         0.00041  21521150.47146  21521149.40648
  -4468841.53348  -3482208.25944         0.00041  24520408.07344  24520407.34948
 -20787870.81348 -16198316.06946         0.00041  21387240.87446  21387239.75248
 -18032133.37948 -14051003.75246         0.00041  21919684.29446  21919683.88048
 -12831361.59108  -9998455.50308  22878030.93908  22878032.87608         0.00001
 -25438172.24208 -19821933.02008  20474891.24408  20474892.92408         0.00001
  -9698103.11348  -7556956.85146         0.00041  23404519.34146  23404516.70948
 94 02 05 03 37 30.0000000  0  7 04 05 07 09 12 13 24
 -16403324.75648 -12781802.20546         0.00041  21507945.66046  21507945.44448
  -4548264.78248  -3544096.42544         0.00041  24505296.76844  24505293.15748
 -20728280.51348 -16151882.06046         0.00041  21398580.66046  21398579.65748
 -18100605.52748 -14104358.66746         0.00041  21906654.85646  21906654.48648
 -12916594.94908 -10064871.09308  22861811.49308  22861813.43308         0.00001
 -25453845.04808 -19834145.58508  20471908.79208  20471910.42308         0.00001
  -9802852.79848  -7638579.94746         0.00041  23384584.87946  23384583.27848
 94 02 05 03 38 00.0000000  0  7 04 05 07 09 12 13 24
 -16472325.38348 -12835568.91446         0.00041  21494815.70146  21494815.04448
  -4627748.60448  -3606031.78144         0.00041  24490167.32144  24490166.31448
 -20668505.06448 -16105303.78747         0.00041  21409956.02447  21409954.58848
 -18168758.51848 -14157464.89346         0.00041  21893685.71846  21893685.22548
 -13001700.23308 -10131186.88208  22845616.54908  22845618.46808         0.00001
 -25469001.62208 -19845955.88408  20469024.60108  20469026.23608         0.00001
  -9907528.20248  -7720145.19046         0.00041  23364666.85546  23364665.22248
 94 02 05 03 38 30.0000000  0  7 04 05 07 09 12 13 24
 -16540916.67448 -12889016.66246         0.00041  21481763.24446  21481762.11148
  -4707281.18048  -3668005.18345         0.00041  24475031.66745  24475032.17948
 -20608557.18348 -16058591.14446         0.00041  21421362.97246  21421362.11648
 -18236589.24148 -14210319.99946         0.00041  21880778.36646  21880777.68948
 -13086675.87608 -10197401.65008  22829446.25008  22829448.11008         0.00001
 -25483643.86308 -19857365.40308  20466238.26508  20466239.88308         0.00001
 -10012128.26448  -7801651.68846         0.00041  23344761.87846  23344759.81548
 94 02 05 03 39 00.0000000  0  7 04 05 07 09 12 13 24
 -16609042.47348 -12942101.68746         0.00041  21468799.13846  21468798.12948
  -4786823.97047  -3729986.49144         0.00041  24459895.19244  24459894.63847
 -20548402.14048 -16011717.08146         0.00041  21432810.38146  21432809.21148
 -18304042.86448 -14262881.25746         0.00041  21867942.11246  21867941.73748
 -13171479.26508 -10263482.20608  22813308.62908  22813310.45108         0.00001
 -25497732.28808 -19868343.38808  20463557.36208  20463558.97708         0.00001
 -10116620.70048  -7883074.32846         0.00041  23324878.00446  23324874.82748
 94 02 05 03 39 30.0000000  0  7 04 05 07 09 12 13 24
 -16676567.87548 -12994718.87046         0.00041  21455950.19246  21455948.71948
  -4866233.46948  -3791863.96344         0.00041  24444787.71944  24444784.56548
 -20487898.08748 -15964571.06146         0.00041  21444323.96546  21444323.00248
 -18370951.80948 -14315018.09146         0.00041  21855210.70346  21855209.61048
 -13255968.70608 -10329318.12608  22797230.87808  22797232.72408         0.00001
 -25511128.22708 -19878781.76608  20461008.14408  20461009.79408         0.00001
 -10220844.42548  -7964287.60846         0.00041  23305045.17746  23305041.19848
 94 02 05 03 40 00.0000000  0  7 04 05 07 09 12 13 24
 -16743699.22748 -13047029.01346         0.00041  21443174.82146  21443173.84548
  -4945698.95248  -3853785.08044         0.00041  24429665.43544  24429663.97648
 -20427234.44748 -15917300.68446         0.00041  21455868.23446  21455867.11748
 -18437484.63148 -14366861.84746         0.00041  21842548.93746  21842548.75148
 -13340330.28808 -10395054.41108  22781177.28208  22781179.19508         0.00001
 -25524020.96108 -19888828.03808  20458554.75908  20458556.36508         0.00001
 -10324959.48648  -8045416.22646         0.00041  23285230.07646  23285228.59248
